Date StartTime U_cm/s V_cm/s W_cm/s Ustd_cm/s Vstd_cm/s Wstd_cm/s Uvar_(cm/s)^2 Vvar_(cm/s)^2 Wvar_(cm/s)^2 KE_(m/s)^2 TurbulentKE_(m/s)^2 HorizWindSpeed_cm/s FrictionSpeec_cm/s DragCoef SpeedOfSound_m/s SonicTemperature_C Pressure_mb 
04/21/2013  00:00:00      -87.261      -30.344       -5.717       18.670       16.073       13.100      348.554      258.355      171.622        0.467        0.039       92.387       11.454        0.015      337.845       10.094      863.643
04/21/2013  00:01:00      -85.341      -31.029       -6.885       22.276       13.468       14.341      496.201      181.374      205.662        0.459        0.044       90.807       14.331        0.025      337.937       10.248      863.643
04/21/2013  00:02:00      -82.944      -33.746       -6.462       11.536       12.575        8.115      133.091      158.139       65.846        0.421        0.018       89.546        5.316        0.004      337.935       10.245      863.659
04/21/2013  00:03:00      -58.998      -33.725       -2.774       18.308       15.256       10.441      335.172      232.758      109.022        0.265        0.034       67.957        7.856        0.013      337.932       10.240      863.666
04/21/2013  00:04:00      -72.762      -29.407       -9.297       19.139       17.864       10.080      366.297      319.107      101.605        0.352        0.039       78.479        5.405        0.005      338.016       10.381      863.678
04/21/2013  00:05:00      -79.693      -33.281       -7.700       16.540       13.531       11.461      273.584      183.097      131.359        0.405        0.029       86.363        6.716        0.006      337.986       10.331      863.688
04/21/2013  00:06:00      -73.668      -38.618       -6.326       15.178       14.678       10.967      230.361      215.442      120.279        0.376        0.028       83.176        8.420        0.010      337.961       10.289      863.693
04/21/2013  00:07:00      -96.705      -40.980      -17.048       11.951        9.943        9.716      142.828       98.859       94.395        0.583        0.017      105.029        4.662        0.002      338.004       10.361      863.697
04/21/2013  00:08:00      -50.100      -35.026        2.358       42.612       18.752       15.312     1815.764      351.632      234.455        0.307        0.120       61.130       21.368        0.122      337.974       10.311      863.693
04/21/2013  00:09:00      -10.828      -34.475       -0.580       20.158       18.692       14.201      406.365      349.384      201.655        0.113        0.048       36.136        9.981        0.076      337.985       10.329      863.689
04/21/2013  00:10:00      -11.790      -35.373        2.670       20.541       15.679       15.548      421.953      245.827      241.748        0.115        0.045       37.286        8.082        0.047      338.081       10.490      863.687
04/21/2013  00:11:00      -47.099      -27.734       -8.845       23.334       17.098        9.524      544.457      292.349       90.709        0.200        0.046       54.658       11.306        0.043      338.029       10.401      863.672
04/21/2013  00:12:00      -54.171      -23.354       -0.268       18.756       14.413       10.459      351.784      207.741      109.389        0.207        0.033       58.991        5.723        0.009      337.962       10.290      863.662
04/21/2013  00:13:00      -92.556      -32.139       -9.580       15.545        9.782        8.274      241.643       95.686       68.464        0.505        0.020       97.977        6.545        0.004      337.924       10.226      863.651
04/21/2013  00:14:00      -88.295      -25.465      -10.612       14.412       10.137       13.369      207.694      102.754      178.738        0.452        0.024       91.893        6.594        0.005      337.898       10.183      863.654
04/21/2013  00:15:00      -59.720      -16.512       -0.976       23.467       15.130       13.704      550.688      228.920      187.795        0.240        0.048       61.960       13.833        0.050      337.852       10.106      863.653
04/21/2013  00:16:00      -74.986      -36.895       -3.689       20.084       16.613        9.412      403.370      276.000       88.593        0.388        0.038       83.571        8.749        0.011      337.879       10.152      863.645
04/21/2013  00:17:00      -69.176      -16.451       -5.725       12.555       11.970        8.053      157.620      143.273       64.843        0.273        0.018       71.105        5.529        0.006      337.896       10.179      863.651
04/21/2013  00:18:00      -63.915      -15.289       -8.922       11.650        9.158        6.654      135.713       83.872       44.274        0.233        0.013       65.718        4.623        0.005      337.905       10.195      863.645
04/21/2013  00:19:00      -48.600      -12.350       -4.595       10.966       10.421        6.785      120.256      108.594       46.032        0.141        0.014       50.145        5.496        0.012      337.862       10.123      863.647
04/21/2013  00:20:00      -49.523      -18.667       -1.566       18.688       11.882        9.001      349.242      141.185       81.019        0.169        0.029       52.924        9.787        0.034      337.867       10.131      863.655
04/21/2013  00:21:00      -52.609      -11.101       -7.810       10.816       12.537        9.491      116.989      157.176       90.088        0.166        0.018       53.767        2.387        0.002      337.899       10.184      863.676
04/21/2013  00:22:00      -57.701      -17.181      -13.719        7.127        6.768        5.782       50.793       45.810       33.435        0.197        0.007       60.205        3.112        0.003      337.818       10.048      863.683
04/21/2013  00:23:00      -33.982      -20.865       -7.640       14.007       13.371        7.205      196.197      178.777       51.912        0.104        0.021       39.876        5.923        0.022      337.811       10.036      863.691
04/21/2013  00:24:00      -18.037       -4.290       -6.888       10.481        6.451        5.627      109.860       41.622       31.660        0.029        0.009       18.540        2.237        0.015      337.803       10.023      863.713
04/21/2013  00:25:00       13.341        1.281      -12.533       12.744       15.814        6.206      162.407      250.073       38.511        0.039        0.023       13.402        5.229        0.152      337.861       10.123      863.723
04/21/2013  00:26:00       18.947       18.470        0.678       12.026        7.717       11.782      144.623       59.545      138.809        0.052        0.017       26.460        5.535        0.044      337.956       10.283      863.724
04/21/2013  00:27:00       -1.505        5.975        7.819        5.055        9.611        8.319       25.550       92.367       69.205        0.014        0.009        6.161        6.454        1.097      337.766        9.963      863.725
04/21/2013  00:28:00      -24.831      -14.483       -0.358       14.015        8.023        7.145      196.430       64.376       51.048        0.057        0.016       28.746        3.638        0.016      337.866       10.128      863.740
04/21/2013  00:29:00      -30.040       -9.587        1.095       20.798       12.078        8.785      432.570      145.882       77.181        0.083        0.033       31.533        7.466        0.056      337.769        9.966      863.751
04/21/2013  00:30:00      -35.512      -23.963       -2.526       21.104       15.016       11.184      445.367      225.484      125.088        0.132        0.040       42.841        5.582        0.017      337.779        9.984      863.754
04/21/2013  00:31:00       -9.455      -17.789        1.036       29.068       20.363       11.212      844.941      414.650      125.710        0.090        0.069       20.146       13.286        0.435      337.729        9.900      863.773
04/21/2013  00:32:00      -43.406      -38.848       -0.279       19.182       19.542       16.669      367.930      381.899      277.847        0.221        0.051       58.252       12.533        0.046      337.727        9.895      863.791
04/21/2013  00:33:00      -59.900      -21.681        3.440       35.087       17.586       15.184     1231.069      309.252      230.546        0.292        0.089       63.703       15.637        0.060      337.736        9.912      863.800
04/21/2013  00:34:00      -13.153      -14.992        9.157       19.429       16.542       17.379      377.468      273.634      302.042        0.072        0.048       19.944       13.256        0.442      337.704        9.857      863.818
04/21/2013  00:35:00      -32.635      -18.095        4.475       26.722       19.663       18.447      714.071      386.628      340.297        0.143        0.072       37.316        8.357        0.050      337.703        9.857      863.839
04/21/2013  00:36:00      -18.757      -19.242        0.060       19.174       13.411       12.065      367.625      179.867      145.563        0.071        0.035       26.872        6.743        0.063      337.756        9.944      863.853
04/21/2013  00:37:00      -32.503      -21.633        3.995       25.118       18.111       13.557      630.903      328.009      183.799        0.134        0.057       39.044        7.231        0.034      337.757        9.947      863.855
04/21/2013  00:38:00      -27.502      -24.626        2.420       30.643       19.717       12.144      939.022      388.755      147.479        0.142        0.074       36.916       15.245        0.171      337.761        9.954      863.863
04/21/2013  00:39:00      -36.914      -44.343        0.716       21.514       20.325       14.573      462.866      413.124      212.376        0.221        0.054       57.697       11.911        0.043      337.751        9.938      863.866
04/21/2013  00:40:00      -75.823      -38.361        0.201       22.991       19.897       12.541      528.608      395.904      157.278        0.415        0.054       84.975        8.830        0.011      337.722        9.888      863.863
04/21/2013  00:41:00      -63.053      -36.930        0.196       25.475       21.128       15.056      648.974      446.410      226.669        0.333        0.066       73.072       12.296        0.028      337.670        9.800      863.857
04/21/2013  00:42:00      -44.863      -27.968        4.767       28.226       21.548       15.427      796.693      464.335      238.006        0.216        0.075       52.867       14.234        0.072      337.552        9.603      863.857
04/21/2013  00:43:00      -64.222      -44.508       -4.175       21.986       21.902       13.311      483.372      479.709      177.179        0.363        0.057       78.137       11.359        0.021      337.728        9.899      863.852
04/21/2013  00:44:00      -50.894      -26.650       -3.452       42.523       19.619       14.194     1808.170      384.899      201.458        0.285        0.120       57.450       17.951        0.098      337.681        9.819      863.852
04/21/2013  00:45:00     -111.990      -52.104       -3.289       25.161       19.665       14.039      633.081      386.714      197.102        0.824        0.061      123.517        5.786        0.002      337.704        9.858      863.863
04/21/2013  00:46:00      -88.805      -57.776        0.596       35.679       23.415       17.542     1272.992      548.258      307.731        0.668        0.106      105.946       15.820        0.022      337.684        9.823      863.867
04/21/2013  00:47:00     -101.928      -44.293        0.340       34.700       23.100       18.057     1204.099      533.603      326.038        0.721        0.103      111.136       16.754        0.023      337.693        9.840      863.879
04/21/2013  00:48:00     -111.865      -42.857       -3.494       17.952       17.290       12.960      322.269      298.937      167.952        0.758        0.039      119.793        9.763        0.007      337.692        9.837      863.893
04/21/2013  00:49:00     -102.775      -44.823       -3.373       17.624       18.924       14.460      310.618      358.105      209.094        0.673        0.044      112.124       12.133        0.012      337.731        9.903      863.915
04/21/2013  00:50:00     -113.461      -39.051       -3.728       26.822       20.206       14.337      719.402      408.292      205.556        0.787        0.067      119.993        8.856        0.005      337.778        9.981      863.920
04/21/2013  00:51:00     -134.799      -37.713       -8.983       12.881       13.307       10.123      165.931      177.073      102.483        1.006        0.022      139.975        7.651        0.003      337.720        9.885      863.930
04/21/2013  00:52:00      -97.504      -51.887       -8.284       22.882       15.213       13.008      523.570      231.445      169.216        0.660        0.046      110.451       13.744        0.015      337.648        9.763      863.947
04/21/2013  00:53:00      -56.876      -38.369       -9.215       19.689       18.967       13.858      387.651      359.754      192.056        0.287        0.047       68.608        9.751        0.020      337.649        9.766      863.952
04/21/2013  00:54:00     -109.149      -23.880      -10.657       31.732       17.104       11.799     1006.922      292.557      139.224        0.702        0.072      111.731       11.565        0.011      337.697        9.846      863.961
04/21/2013  00:55:00     -103.717      -45.554        5.316       73.501       35.033       22.965     5402.387     1227.297      527.383        1.001        0.358      113.280       28.055        0.061      337.796       10.012      863.958
04/21/2013  00:56:00      -15.989      -25.547       -0.124       40.067       24.162       14.859     1605.369      583.792      220.780        0.166        0.120       30.138       15.652        0.270      337.708        9.865      863.966
04/21/2013  00:57:00      -45.588      -12.465       -7.215       21.710       14.032       12.242      471.321      196.890      149.858        0.155        0.041       47.262       12.082        0.065      337.501        9.516      863.984
04/21/2013  00:58:00     -117.827      -55.044      -14.241       20.790       18.521       11.314      432.222      343.015      128.010        0.901        0.045      130.050        3.468        0.001      337.517        9.545      864.013
04/21/2013  00:59:00     -117.816      -59.970      -11.862       18.334       24.127       15.303      336.146      582.121      234.189        0.938        0.058      132.201        7.806        0.003      337.419        9.380      864.029
04/21/2013  01:00:00      -70.892      -41.206       -0.525       41.694       27.985       16.922     1738.414      783.136      286.359        0.477        0.140       81.998       19.606        0.057      337.386        9.326      864.045
04/21/2013  01:01:00      -78.672      -29.828      -14.963       24.040       17.476       15.695      577.899      305.412      246.330        0.422        0.056       84.137        6.197        0.005      337.486        9.492      864.059
04/21/2013  01:02:00     -101.791      -27.086       -3.115       28.274       30.258       17.688      799.413      915.572      312.863        0.657        0.101      105.333       14.865        0.020      337.387        9.327      864.071
04/21/2013  01:03:00      -75.728      -23.166        4.229       29.727       31.411       21.052      883.719      986.666      443.167        0.430        0.116       79.192       16.015        0.041      337.359        9.279      864.080
04/21/2013  01:04:00       -4.249      -23.604        5.131       30.686       23.041       19.228      941.627      530.899      369.722        0.122        0.092       23.984       13.895        0.336      337.323        9.220      864.103
04/21/2013  01:05:00      -55.147      -19.817       -4.195       18.257       22.741       13.628      333.329      517.166      185.720        0.224        0.052       58.600        8.649        0.022      337.303        9.186      864.123
04/21/2013  01:06:00      -74.551      -17.967      -10.067       26.376       17.483       14.253      695.689      305.642      203.153        0.359        0.060       76.686       10.169        0.018      337.333        9.235      864.143
04/21/2013  01:07:00      -73.924       -7.062      -14.393       15.297       16.213       14.068      233.998      262.855      197.919        0.321        0.035       74.261        5.688        0.006      337.357        9.277      864.162
04/21/2013  01:08:00      -44.093      -35.678       -0.112       30.533       15.428       19.828      932.240      238.022      393.138        0.239        0.078       56.720       19.814        0.122      337.308        9.195      864.181
04/21/2013  01:09:00     -108.297      -48.628      -14.060       24.676       15.008       11.219      608.926      225.231      125.861        0.763        0.048      118.714       12.970        0.012      337.335        9.239      864.192
04/21/2013  01:10:00     -125.657      -52.902      -11.007       14.803       22.141       14.088      219.137      490.217      198.467        0.981        0.045      136.339       13.978        0.011      337.291        9.166      864.198
04/21/2013  01:11:00     -105.083      -36.563       -6.608       39.643       21.827       16.583     1571.606      476.403      275.010        0.737        0.116      111.262       10.895        0.010      337.162        8.952      864.208
04/21/2013  01:12:00      -98.011      -10.049       -4.852       42.304       24.130       15.967     1789.620      582.253      254.944        0.618        0.131       98.525       20.694        0.044      337.119        8.877      864.202
04/21/2013  01:13:00     -125.603      -21.943       -7.993       30.630       23.297       21.410      938.219      542.729      458.409        0.913        0.097      127.506       18.822        0.022      337.113        8.867      864.184
04/21/2013  01:14:00     -114.994      -12.458       -6.702       29.465       21.359       20.864      868.183      456.210      435.290        0.759        0.088      115.667       13.660        0.014      337.137        8.908      864.183
04/21/2013  01:15:00     -124.756      -37.385       -5.711       29.723       18.440       17.688      883.447      340.023      312.849        0.927        0.077      130.237       17.790        0.019      337.177        8.975      864.171
04/21/2013  01:16:00     -113.905      -36.506       -8.224       22.916       30.881       16.974      525.162      953.645      288.119        0.807        0.088      119.612       14.183        0.014      337.239        9.079      864.164
04/21/2013  01:17:00     -115.426      -36.428       -6.133       21.093       26.390       13.906      444.901      696.416      193.374        0.801        0.067      121.038       10.449        0.007      337.250        9.097      864.167
04/21/2013  01:18:00     -115.748      -22.351      -14.689       17.744       18.431       12.899      314.836      339.694      166.386        0.747        0.041      117.887        9.898        0.007      337.201        9.016      864.178
04/21/2013  01:19:00     -106.534      -13.337      -10.641       15.221       14.225       10.959      231.693      202.355      120.105        0.610        0.028      107.366        4.558        0.002      337.136        8.906      864.181
04/21/2013  01:20:00     -116.485      -16.200       -6.082       19.122       19.800       15.552      365.649      392.043      241.853        0.743        0.050      117.606       11.698        0.010      337.122        8.883      864.195
04/21/2013  01:21:00     -114.443      -26.208       -6.153       29.834       23.892       17.255      890.045      570.825      297.743        0.779        0.088      117.405       15.756        0.018      337.100        8.846      864.207
04/21/2013  01:22:00      -86.568      -43.987       -1.101       28.836       23.532       18.848      831.541      553.747      355.229        0.559        0.087       97.102       15.081        0.024      337.114        8.869      864.196
04/21/2013  01:23:00     -107.434      -34.245       -8.260       23.912       18.483       13.443      571.808      341.606      180.722        0.694        0.055      112.759       12.508        0.012      337.157        8.940      864.192
04/21/2013  01:24:00      -87.700      -40.768        0.382       36.041       25.159       18.153     1298.982      632.997      329.542        0.581        0.113       96.712       19.659        0.041      337.165        8.956      864.201
04/21/2013  01:25:00     -106.122      -34.315      -11.232       25.573       18.789       15.629      653.995      353.044      244.258        0.691        0.063      111.532       14.651        0.017      337.158        8.944      864.193
04/21/2013  01:26:00     -105.615      -35.433       -9.776       16.536       16.722       12.455      273.442      279.613      155.122        0.661        0.035      111.401        9.483        0.007      337.185        8.989      864.192
04/21/2013  01:27:00     -103.735      -47.918        3.153       35.266       29.353       18.599     1243.656      861.598      345.936        0.776        0.123      114.267       16.240        0.020      337.146        8.923      864.182
04/21/2013  01:28:00     -112.236      -49.682       -1.049       27.396       24.267       15.066      750.559      588.872      226.974        0.832        0.078      122.740       13.313        0.012      337.148        8.928      864.172
04/21/2013  01:29:00      -72.922      -47.644       -1.523       32.482       23.019       19.986     1055.056      529.878      399.424        0.479        0.099       87.106       18.956        0.047      337.056        8.772      864.179
04/21/2013  01:30:00     -119.356      -56.249       -3.922       35.832       23.947       16.448     1283.937      573.445      270.548        0.978        0.106      131.946       14.236        0.012      337.070        8.797      864.177
04/21/2013  01:31:00     -116.306      -22.926       -4.812       28.634       29.164       16.405      819.900      850.538      269.124        0.801        0.097      118.544       13.391        0.013      337.013        8.700      864.176
04/21/2013  01:32:00     -114.751        4.579      -13.015       38.972       19.939       14.721     1518.839      397.553      216.716        0.775        0.107      114.842       16.761        0.021      337.002        8.681      864.201
04/21/2013  01:33:00     -113.019      -29.549      -11.984       25.200       22.672       14.369      635.030      514.005      206.480        0.757        0.068      116.818       10.979        0.009      337.047        8.755      864.203
04/21/2013  01:34:00     -143.535      -43.281      -16.484       18.154       26.750       14.123      329.564      715.559      199.451        1.200        0.062      149.918       10.667        0.005      336.915        8.535      864.190
04/21/2013  01:35:00     -126.086      -66.195       -9.417       17.619       14.200       11.906      310.443      201.653      141.746        1.051        0.033      142.406        8.160        0.003      336.914        8.535      864.179
04/21/2013  01:36:00      -99.082      -50.005       -4.819       40.882       23.198       16.602     1671.302      538.139      275.617        0.741        0.124      110.985       21.008        0.036      336.889        8.495      864.171
04/21/2013  01:37:00      -93.838       -3.971       -8.908       24.955       20.898       13.062      622.734      436.731      170.613        0.507        0.062       93.922       11.530        0.015      336.942        8.580      864.142
04/21/2013  01:38:00     -117.811      -15.281      -16.341       25.356       17.505       14.651      642.934      306.425      214.637        0.777        0.058      118.798       13.365        0.013      336.932        8.564      864.141
04/21/2013  01:39:00     -116.421      -12.340       -5.986       25.968       30.258       15.448      674.345      915.545      238.633        0.778        0.091      117.073       11.696        0.010      336.789        8.327      864.143
04/21/2013  01:40:00     -149.239      -77.247        6.262       40.707       33.164       20.497     1657.057     1099.882      420.142        1.573        0.159      168.046       20.095        0.014      336.932        8.563      864.120
04/21/2013  01:41:00     -126.843      -79.979        7.375       53.504       37.551       30.437     2862.714     1410.076      926.414        1.387        0.260      149.952       27.965        0.035      337.016        8.705      864.107
04/21/2013  01:42:00     -168.302      -53.028       -3.555       46.678       34.959       24.184     2178.879     1222.120      584.885        1.757        0.199      176.458       27.853        0.025      337.023        8.717      864.086
04/21/2013  01:43:00     -150.023      -36.414        2.238       35.186       33.162       21.126     1238.049     1099.712      446.306        1.331        0.139      154.379       17.935        0.013      336.993        8.667      864.095
04/21/2013  01:44:00      -97.235      -27.255       -4.177       39.489       28.659       16.866     1559.401      821.338      284.451        0.644        0.133      100.983       17.277        0.029      336.980        8.645      864.099
04/21/2013  01:45:00      -77.556       19.265       -3.247       25.438       14.432       14.489      647.086      208.272      209.926        0.373        0.053       79.913       13.785        0.030      336.899        8.510      864.110
04/21/2013  01:46:00     -133.045        4.251      -17.444       48.622       19.874       21.224     2364.096      394.956      450.458        1.062        0.160      133.113       23.519        0.031      336.761        8.281      864.102
04/21/2013  01:47:00      -72.700      -50.907       -3.589       29.929       20.000       11.703      895.741      400.012      136.955        0.466        0.072       88.752        6.692        0.006      336.900        8.511      864.091
04/21/2013  01:48:00      -65.158      -42.153        6.750       42.707       27.668       21.723     1823.864      765.510      471.906        0.456        0.153       77.604       20.391        0.069      336.846        8.422      864.064
04/21/2013  01:49:00     -145.678      -32.042       -5.633       36.857       29.654       18.745     1358.439      879.345      351.382        1.243        0.129      149.161       14.577        0.010      336.918        8.541      864.059
04/21/2013  01:50:00      -97.610       -8.506        6.058       59.783       52.000       26.102     3573.949     2704.002      681.309        0.830        0.348       97.980       32.023        0.107      336.704        8.184      864.071
04/21/2013  01:51:00      -51.256      -35.091        9.534       44.241       28.043       22.399     1957.253      786.412      501.730        0.360        0.162       62.117       22.905        0.136      336.837        8.406      864.069
04/21/2013  01:52:00      -21.624      -49.745       -4.913       26.208       15.572       11.908      686.867      242.480      141.812        0.202        0.054       54.241       11.066        0.042      337.128        8.895      864.058
04/21/2013  01:53:00      -74.677       -1.057       -3.848       42.991       17.338       10.127     1848.199      300.593      102.551        0.392        0.113       74.685       12.885        0.030      337.317        9.211      864.055
04/21/2013  01:54:00     -130.105       -6.414      -12.784       23.805       26.831       16.245      566.668      719.927      263.909        0.934        0.078      130.263       12.337        0.009      337.120        8.880      864.076
04/21/2013  01:55:00      -11.073      -70.632      -10.318       41.170       18.070       15.009     1695.003      326.538      225.277        0.373        0.112       71.494        9.116        0.016      337.204        9.019      864.057
04/21/2013  01:56:00      -26.671      -53.577       -3.853       23.890       28.475       20.045      570.717      810.798      401.804        0.269        0.089       59.849       13.704        0.052      337.447        9.427      864.036
04/21/2013  01:57:00      -33.105      -28.353        2.587       34.392       25.974       18.413     1182.832      674.658      339.038        0.205        0.110       43.587       19.131        0.193      337.399        9.347      864.033
04/21/2013  01:58:00      -43.609        3.243        8.992       38.663       24.476       18.842     1494.858      599.090      355.021        0.222        0.122       43.730       12.953        0.088      337.333        9.236      864.031
04/21/2013  01:59:00      -29.623       25.047        6.253       42.579       15.765       12.299     1812.933      248.538      151.257        0.188        0.111       38.792       18.984        0.239      337.027        8.724      864.033
04/21/2013  02:00:00      -34.106      -52.647        1.094       44.671       21.152       20.509     1995.460      447.394      420.629        0.340        0.143       62.728       20.169        0.103      336.976        8.637      864.033
04/21/2013  02:01:00      -20.538      -56.793       -2.993       21.451       34.286       16.502      460.159     1175.510      272.301        0.278        0.095       60.392       18.648        0.095      336.982        8.647      864.014
04/21/2013  02:02:00      -53.539      -14.657       -8.772       11.297       22.570        8.669      127.611      509.420       75.151        0.194        0.036       55.509        8.960        0.026      337.028        8.723      864.005
04/21/2013  02:03:00      -43.848      -24.434        3.921       29.397       24.247       14.567      864.161      587.910      212.206        0.210        0.083       50.196       10.757        0.046      336.981        8.645      863.991
04/21/2013  02:04:00      -15.186      -24.805        8.112       23.876       38.004       17.380      570.045     1444.273      302.055        0.161        0.116       29.084       19.222        0.437      336.886        8.487      863.959
04/21/2013  02:05:00      -68.416      -44.339        1.843       49.453       27.227       16.536     2445.561      741.322      273.426        0.505        0.173       81.528       19.274        0.056      336.897        8.507      863.946
04/21/2013  02:06:00      -44.197      -72.216        3.624       49.669       48.091       28.267     2467.027     2312.749      799.036        0.638        0.279       84.667       28.818        0.116      336.820        8.379      863.938
04/21/2013  02:07:00      -36.212     -145.401       -6.522       27.975       36.393       28.100      782.613     1324.482      789.599        1.270        0.145      149.842       25.247        0.028      336.917        8.541      863.915
04/21/2013  02:08:00      -31.721      -47.855        9.668       46.373       39.657       23.018     2150.468     1572.705      529.835        0.382        0.213       57.414       17.670        0.095      336.887        8.490      863.897
04/21/2013  02:09:00       -7.659      -53.578        4.617       22.082       40.478       19.266      487.594     1638.437      371.167        0.272        0.125       54.123       18.050        0.111      336.853        8.434      863.855
04/21/2013  02:10:00      -35.628      -63.459       -8.052       30.681       36.586       20.126      941.343     1338.567      405.057        0.402        0.134       72.776       14.790        0.041      337.006        8.689      863.840
04/21/2013  02:11:00      -30.846       28.060       -3.445       18.307       35.429       19.047      335.159     1255.193      362.796        0.185        0.098       41.699       14.686        0.124      336.943        8.583      863.851
04/21/2013  02:12:00      -43.980       23.261      -12.118       11.042       22.103        9.571      121.931      488.525       91.605        0.166        0.035       49.753        9.490        0.036      336.956        8.604      863.861
04/21/2013  02:13:00       -0.196       -5.188        4.350       11.678        9.073        7.316      136.375       82.319       53.520        0.016        0.014        5.191        8.447        2.647      336.869        8.461      863.855
04/21/2013  02:14:00       -3.655        5.576       -1.743       15.997        8.052        5.931      255.896       64.836       35.171        0.020        0.018        6.668        6.419        0.927      336.870        8.461      863.851
04/21/2013  02:15:00      -80.532      -29.320       -9.458       41.311       29.461       17.478     1706.577      867.938      305.489        0.516        0.144       85.703        5.316        0.004      336.915        8.536      863.864
04/21/2013  02:16:00      -66.267      -49.529       -2.029       61.835       24.712       17.749     3823.536      610.680      315.021        0.580        0.237       82.731        9.797        0.014      336.751        8.266      863.861
04/21/2013  02:17:00      -58.657      -35.413        1.912       32.375       20.957       17.179     1048.157      439.180      295.111        0.324        0.089       68.518       12.159        0.031      336.752        8.266      863.856
04/21/2013  02:18:00      -76.568        3.691       -6.894       24.070       25.671       11.506      579.349      658.978      132.390        0.365        0.069       76.657        5.647        0.005      336.634        8.068      863.846
04/21/2013  02:19:00      -56.276       23.987       -8.015       16.070       13.486        9.001      258.229      181.860       81.025        0.216        0.026       61.175        5.575        0.008      336.594        8.002      863.828
04/21/2013  02:20:00      -65.433        1.237      -13.623       10.181        9.294        6.647      103.647       86.381       44.183        0.235        0.012       65.445        3.695        0.003      336.691        8.163      863.800
04/21/2013  02:21:00      -68.214       -8.129      -10.576        8.498       10.056        8.984       72.223      101.119       80.716        0.254        0.013       68.696        3.294        0.002      336.760        8.277      863.778
04/21/2013  02:22:00      -33.346      -17.626       -2.220       19.803       14.379       12.126      392.153      206.753      147.042        0.109        0.037       37.717       10.489        0.077      336.811        8.364      863.760
04/21/2013  02:23:00      -64.688      -13.214       -9.617       25.961       14.187        8.864      673.974      201.265       78.567        0.270        0.048       66.024        7.003        0.011      336.797        8.341      863.750
04/21/2013  02:24:00      -97.238      -26.989      -14.022       15.743       16.318       11.964      247.850      266.288      143.143        0.552        0.033      100.914        6.948        0.005      336.710        8.195      863.748
04/21/2013  02:25:00      -79.748      -28.058      -11.124       16.032       17.753       11.250      257.030      315.167      126.572        0.398        0.035       84.540        5.942        0.005      336.611        8.031      863.755
04/21/2013  02:26:00      -48.732       -0.928       -1.740       19.064        9.759        9.995      363.440       95.243       99.908        0.147        0.028       48.741       10.278        0.044      336.729        8.227      863.740
04/21/2013  02:27:00      -31.027       -6.850       -5.544        6.149        7.169        4.430       37.814       51.401       19.624        0.057        0.005       31.774        2.655        0.007      336.813        8.366      863.732
04/21/2013  02:28:00      -70.364      -26.484       -7.443       13.522       13.860        9.531      182.857      192.113       90.832        0.309        0.023       75.183        6.158        0.007      336.767        8.290      863.725
04/21/2013  02:29:00      -57.527      -26.440       -4.288       14.099       13.932       11.856      198.772      194.101      140.556        0.228        0.027       63.312        7.461        0.014      336.660        8.112      863.711
04/21/2013  02:30:00      -30.862       -4.230       -2.074       19.037        7.400       11.903      362.393       54.764      141.673        0.077        0.028       31.151       14.158        0.207      336.670        8.130      863.698
04/21/2013  02:31:00      -92.906      -17.695       -7.400       36.216       17.849       11.722     1311.567      318.605      137.413        0.538        0.088       94.576        9.928        0.011      336.648        8.091      863.695
04/21/2013  02:32:00     -158.165      -37.788      -13.605       20.107       19.901       15.049      404.308      396.041      226.472        1.383        0.051      162.616       10.614        0.004      336.420        7.710      863.688
04/21/2013  02:33:00      -52.953      -31.998        4.207       45.695       13.232       11.998     2088.050      175.073      143.958        0.313        0.120       61.870       19.367        0.098      336.385        7.651      863.668
04/21/2013  02:34:00      -34.741      -43.463       -6.500       23.600       23.082       12.696      556.963      532.793      161.177        0.219        0.063       55.641        8.586        0.024      336.776        8.305      863.647
04/21/2013  02:35:00      -75.319      -38.623       -2.305       28.549       33.576       22.309      815.057     1127.335      497.692        0.480        0.122       84.645        9.144        0.012      336.830        8.395      863.660
04/21/2013  02:36:00      -65.634      -35.678        8.168       41.161       31.839       25.029     1694.190     1013.742      626.437        0.449        0.167       74.704       24.068        0.104      336.754        8.269      863.692
04/21/2013  02:37:00      -52.179      -38.081        7.411       47.790       34.077       23.643     2283.897     1161.217      558.972        0.412        0.200       64.598       19.938        0.095      336.703        8.183      863.722
04/21/2013  02:38:00      -92.910      -36.369       -7.186       27.264       23.442       16.960      743.349      549.548      287.630        0.579        0.079       99.775       10.668        0.011      336.564        7.952      863.741
04/21/2013  02:39:00      -74.401      -22.335       -5.372       22.563       27.302       16.458      509.085      745.374      270.852        0.379        0.076       77.681       15.147        0.038      336.394        7.668      863.741
04/21/2013  02:40:00      -90.966      -42.534       -8.440       34.815       21.470       12.736     1212.075      460.976      162.197        0.599        0.092      100.418       13.510        0.018      336.463        7.781      863.738
04/21/2013  02:41:00      -74.617       -2.323        4.531       45.896       20.902       15.457     2106.452      436.882      238.920        0.419        0.139       74.653       17.987        0.058      336.294        7.498      863.736
04/21/2013  02:42:00      -72.365      -31.173        2.106       47.562       27.763       15.262     2262.125      770.788      232.940        0.474        0.163       78.794       17.408        0.049      336.307        7.520      863.738
04/21/2013  02:43:00      -83.727      -36.091       -1.081       26.227       28.713       17.755      687.838      824.414      315.252        0.507        0.091       91.174       13.485        0.022      336.403        7.682      863.740
04/21/2013  02:44:00      -99.355      -76.510        1.782       38.534       30.542       25.106     1484.873      932.790      630.314        0.939        0.152      125.401       25.778        0.042      336.403        7.680      863.751
04/21/2013  02:45:00     -102.758      -46.471        4.145       59.739       32.386       20.874     3568.768     1048.885      435.719        0.889        0.253      112.778       25.904        0.053      336.330        7.558      863.769
04/21/2013  02:46:00      -46.112      -78.564        4.325       37.881       47.369       19.520     1434.949     2243.861      381.037        0.619        0.203       91.096       14.868        0.027      336.341        7.579      863.768
04/21/2013  02:47:00      -88.391      -64.193       -0.210       48.145       49.273       26.540     2317.941     2427.869      704.359        0.869        0.273      109.242       22.467        0.042      336.338        7.572      863.755
04/21/2013  02:48:00      -88.869      -84.553        2.679       48.650       41.822       22.729     2366.795     1749.079      516.598        0.984        0.232      122.666       21.398        0.030      336.340        7.576      863.760
04/21/2013  02:49:00     -100.030     -122.252        0.943       60.117       50.652       32.290     3614.004     2565.583     1042.654        1.609        0.361      157.960       29.946        0.036      336.325        7.549      863.753
04/21/2013  02:50:00     -105.966     -125.449        0.476       73.052       65.953       38.260     5336.618     4349.798     1463.806        1.906        0.558      164.214       37.544        0.052      336.307        7.520      863.720
04/21/2013  02:51:00      -46.807      -57.872        8.059       56.166       46.480       32.755     3154.610     2160.346     1072.882        0.600        0.319       74.432       29.152        0.153      336.266        7.452      863.698
04/21/2013  02:52:00     -101.458      -44.846       18.115       81.747       47.792       37.168     6682.597     2284.076     1381.475        1.149        0.517      110.927       42.971        0.150      336.214        7.365      863.680
04/21/2013  02:53:00     -168.210     -118.741       -4.504       64.300       72.300       37.818     4134.507     5227.251     1430.192        2.660        0.540      205.898       37.120        0.033      336.133        7.227      863.660
04/21/2013  02:54:00     -128.238      -89.158       10.380       86.967       78.039       42.360     7563.190     6090.010     1794.340        1.997        0.772      156.186       45.832        0.086      336.057        7.101      863.649
04/21/2013  02:55:00     -158.586     -135.074       -1.225       76.996       64.103       37.223     5928.324     4109.133     1385.543        2.741        0.571      208.313       36.484        0.031      336.117        7.200      863.626
04/21/2013  02:56:00     -176.871     -113.743      -10.165       61.614       49.052       37.554     3796.228     2406.099     1410.321        2.597        0.381      210.287       23.698        0.013      336.130        7.221      863.609
04/21/2013  02:57:00     -133.314     -108.692       -3.605       76.623       58.290       39.185     5871.078     3397.742     1535.468        2.020        0.540      172.007       35.111        0.042      336.092        7.160      863.600
04/21/2013  02:58:00     -150.275     -112.751        2.411      105.384       70.678       41.623    11105.835     4995.327     1732.470        2.656        0.892      187.871       45.617        0.059      336.109        7.186      863.582
04/21/2013  02:59:00     -140.229      -83.469        2.213       74.595       60.312       38.416     5564.353     3637.571     1475.779        1.866        0.534      163.191       27.118        0.028      336.067        7.117      863.575
04/21/2013  03:00:00     -121.739      -78.620        5.449       83.510       51.189       36.917     6973.943     2620.338     1362.900        1.599        0.548      144.919       31.829        0.048      336.087        7.153      863.568
04/21/2013  03:01:00      -66.521      -65.352       18.296       64.199       56.166       34.977     4121.540     3154.650     1223.381        0.876        0.425       93.252       27.918        0.090      336.104        7.181      863.563
04/21/2013  03:02:00     -164.142     -109.290        1.612       75.267       63.556       35.706     5665.119     4039.423     1274.937        2.493        0.549      197.198       40.232        0.042      336.108        7.186      863.555
04/21/2013  03:03:00     -163.001     -106.144       -5.058       70.819       63.583       37.577     5015.356     4042.747     1412.056        2.416        0.524      194.515       38.132        0.038      336.115        7.198      863.549
04/21/2013  03:04:00     -140.569     -100.718        2.841       80.401       58.353       35.990     6464.288     3405.039     1295.301        2.054        0.558      172.927       37.259        0.046      336.112        7.192      863.553
04/21/2013  03:05:00     -126.961      -98.208       -1.089       53.837       66.825       38.091     2898.405     4465.552     1450.908        1.729        0.441      160.511       37.025        0.053      336.125        7.215      863.533
04/21/2013  03:06:00     -119.059      -94.998        1.760       76.453       53.086       36.289     5845.090     2818.071     1316.864        1.659        0.499      152.314       32.816        0.046      336.130        7.224      863.524
04/21/2013  03:07:00     -140.552     -118.039        6.360       74.850       55.165       43.676     5602.533     3043.221     1907.582        2.214        0.528      183.543       40.794        0.049      336.115        7.197      863.507
04/21/2013  03:08:00     -192.484     -131.074       -3.976       57.790       74.891       38.799     3339.695     5608.705     1505.371        3.235        0.523      232.874       39.491        0.029      336.166        7.281      863.517
04/21/2013  03:09:00     -148.679      -91.511       -2.164       72.882       57.134       36.329     5311.792     3264.239     1319.782        2.019        0.495      174.585       41.079        0.055      336.167        7.284      863.517
04/21/2013  03:10:00     -157.470      -76.014      -13.418       50.476       59.150       31.169     2547.803     3498.731      971.478        1.889        0.351      174.857       27.542        0.025      336.148        7.255      863.522
04/21/2013  03:11:00     -151.921      -70.686      -11.745       50.570       58.498       30.562     2557.338     3422.030      934.028        1.756        0.346      167.560       33.236        0.039      336.164        7.281      863.532
04/21/2013  03:12:00     -111.169       -8.792       -1.639       67.878       45.797       31.005     4607.375     2097.371      961.320        1.005        0.383      111.516       39.382        0.125      335.975        6.966      863.541
04/21/2013  03:13:00      -68.805       -1.209        8.538       64.494       37.965       27.751     4159.414     1441.310      770.091        0.559        0.319       68.815       34.196        0.247      335.856        6.769      863.550
04/21/2013  03:14:00     -103.668      -17.972       -6.038       37.195       38.125       26.609     1383.476     1453.484      708.045        0.733        0.177      105.214       23.782        0.051      335.733        6.565      863.563
04/21/2013  03:15:00     -126.018      -44.003        1.672       38.358       46.873       27.412     1471.340     2197.083      751.422        1.112        0.221      133.479       20.358        0.023      335.795        6.667      863.561
04/21/2013  03:16:00     -112.224      -30.882       -4.359       59.992       40.066       25.135     3599.068     1605.314      631.793        0.970        0.292      116.396       28.414        0.060      335.800        6.676      863.564
04/21/2013  03:17:00      -86.128      -14.956        5.562       47.872       36.401       27.383     2291.701     1325.066      749.854        0.602        0.218       87.417       28.352        0.105      335.685        6.484      863.558
04/21/2013  03:18:00     -115.371      -36.745       -9.135       45.558       32.505       24.923     2075.551     1056.562      621.145        0.925        0.188      121.081       28.833        0.057      335.691        6.494      863.555
04/21/2013  03:19:00     -115.964      -66.775       -0.258       62.193       33.953       26.904     3867.922     1152.831      723.837        1.182        0.287      133.816       30.966        0.054      335.776        6.634      863.523
04/21/2013  03:20:00     -126.395      -40.802       -1.214       82.517       42.172       30.004     6808.977     1778.494      900.228        1.356        0.474      132.817       41.144        0.096      335.699        6.508      863.509
04/21/2013  03:21:00     -113.531      -70.601       -0.571       75.792       42.229       25.780     5744.440     1783.260      664.591        1.303        0.410      133.693       31.947        0.057      335.682        6.478      863.502
04/21/2013  03:22:00     -149.634      -57.349       -2.733       37.540       31.701       22.402     1409.259     1004.970      501.848        1.430        0.146      160.247       19.595        0.015      335.691        6.494      863.491
04/21/2013  03:23:00     -122.855      -29.166       -1.056       45.143       45.455       24.085     2037.925     2066.171      580.105        1.031        0.234      126.270       26.938        0.046      335.706        6.519      863.484
04/21/2013  03:24:00      -88.897      -28.728        3.889       35.935       30.379       20.268     1291.343      922.863      410.785        0.568        0.131       93.424       16.880        0.033      335.706        6.520      863.473
04/21/2013  03:25:00     -101.507      -29.011       -4.915       30.574       31.328       19.410      934.790      981.441      376.739        0.673        0.115      105.572       17.406        0.027      335.759        6.607      863.463
04/21/2013  03:26:00      -94.514      -22.633       -3.935       37.331       21.897       18.906     1393.617      479.495      357.441        0.585        0.112       97.186       19.640        0.041      335.728        6.556      863.451
04/21/2013  03:27:00      -70.033      -14.867        6.075       37.247       29.713       25.691     1387.323      882.852      660.028        0.405        0.147       71.593       24.507        0.117      335.643        6.414      863.454
04/21/2013  03:28:00      -47.032      -22.064        7.485       29.530       24.259       15.016      872.020      588.479      225.477        0.222        0.084       51.950       15.750        0.092      335.704        6.515      863.460
04/21/2013  03:29:00      -53.669      -22.100        7.761       30.541       24.130       16.264      932.769      582.239      264.526        0.260        0.089       58.042       16.703        0.083      335.780        6.641      863.458
04/21/2013  03:30:00      -23.755      -21.375        8.601       19.103       13.050       13.527      364.937      170.297      182.967        0.091        0.036       31.956       10.331        0.105      335.885        6.816      863.465
04/21/2013  03:31:00      -70.141       -2.929       -7.247       19.143       19.988       11.584      366.465      399.540      134.193        0.294        0.045       70.202        6.750        0.009      335.780        6.644      863.471
04/21/2013  03:32:00      -74.797      -15.543       -6.974       23.841       16.606       15.301      568.416      275.760      234.131        0.348        0.054       76.395       15.431        0.041      335.791        6.660      863.461
04/21/2013  03:33:00      -76.516       -8.336      -10.728       15.759       15.050       11.176      248.349      226.490      124.892        0.332        0.030       76.969        6.514        0.007      335.793        6.665      863.453
04/21/2013  03:34:00      -78.364      -22.661       -7.776       22.375       16.271       13.658      500.625      264.754      186.550        0.383        0.048       81.575        8.720        0.011      335.844        6.748      863.450
04/21/2013  03:35:00      -91.877      -41.689      -13.672       10.384       11.831        8.662      107.826      139.980       75.031        0.534        0.016      100.893        1.890        0.000      335.829        6.723      863.455
04/21/2013  03:36:00     -104.419      -41.911       -4.191       20.524       21.025       10.390      421.229      442.031      107.959        0.682        0.049      112.516        6.994        0.004      335.862        6.778      863.458
04/21/2013  03:37:00     -110.680      -17.331       -8.511       20.741       20.550       13.911      430.208      422.293      193.504        0.683        0.052      112.029        7.529        0.005      335.761        6.610      863.474
04/21/2013  03:38:00     -111.657      -15.218       -3.103       26.682       20.876       18.645      711.905      435.787      347.625        0.710        0.075      112.690       16.632        0.022      335.635        6.402      863.478
04/21/2013  03:39:00     -110.360      -24.662       -5.993       27.372       19.172       13.269      749.229      367.569      176.055        0.706        0.065      113.082       10.143        0.008      335.619        6.373      863.481
04/21/2013  03:40:00      -93.359      -37.308       -2.665       15.851       17.470       12.683      251.251      305.211      160.854        0.542        0.036      100.537        8.824        0.008      335.638        6.408      863.475
04/21/2013  03:41:00      -87.327      -37.526       -2.306       31.397       25.445       19.406      985.801      647.431      376.612        0.552        0.100       95.048       11.861        0.016      335.613        6.364      863.476
04/21/2013  03:42:00      -55.955      -34.706        1.547       43.822       16.139       13.130     1920.374      260.452      172.399        0.335        0.118       65.844        9.508        0.021      335.604        6.350      863.477
04/21/2013  03:43:00      -50.613      -47.961       10.805       36.743       28.932       22.253     1350.068      837.058      495.207        0.383        0.134       69.728       13.010        0.035      335.637        6.405      863.464
04/21/2013  03:44:00     -107.751      -79.800       -0.548       49.863       34.035       23.522     2486.302     1158.362      553.285        1.109        0.210      134.083       23.664        0.031      335.753        6.596      863.437
04/21/2013  03:45:00     -121.919      -56.154        4.544       41.552       35.795       23.891     1726.596     1281.258      570.796        1.081        0.179      134.229       22.554        0.028      335.721        6.544      863.427
04/21/2013  03:46:00      -93.939      -53.135        7.615       50.763       41.673       26.774     2576.872     1736.623      716.835        0.837        0.252      107.925       22.848        0.045      335.718        6.539      863.425
04/21/2013  03:47:00     -112.487      -71.684        3.506       44.286       28.175       22.703     1961.246      793.828      515.424        1.054        0.164      133.386       18.407        0.019      335.708        6.522      863.438
04/21/2013  03:48:00      -85.431      -59.294        3.069       56.899       34.440       25.563     3237.543     1186.117      653.450        0.795        0.254      103.992       29.125        0.078      335.736        6.569      863.435
04/21/2013  03:49:00      -90.255      -83.889        1.040       41.064       42.131       25.683     1686.237     1774.982      659.636        0.965        0.206      123.221       26.397        0.046      335.776        6.634      863.436
04/21/2013  03:50:00     -100.037      -44.385       -2.136       32.068       25.119       16.519     1028.352      630.948      272.877        0.696        0.097      109.441       12.470        0.013      335.764        6.615      863.442
04/21/2013  03:51:00     -107.244      -26.389       -3.871       30.889       22.844       17.126      954.121      521.833      293.288        0.699        0.088      110.443       12.636        0.013      335.647        6.421      863.438
04/21/2013  03:52:00     -126.864      -35.824       -3.492       27.562       25.524       16.219      759.664      651.454      263.071        0.953        0.084      131.824       13.637        0.011      335.664        6.449      863.425
04/21/2013  03:53:00     -127.451      -57.251       -3.947       24.987       24.892       16.926      624.356      619.633      286.501        1.053        0.077      139.719        9.726        0.005      335.694        6.499      863.408
04/21/2013  03:54:00      -96.644      -29.747        2.249       36.486       30.196       20.815     1331.243      911.782      433.263        0.645        0.134      101.119       17.480        0.030      335.619        6.373      863.407
04/21/2013  03:55:00     -102.786      -47.198       -4.446       42.908       40.480       23.647     1841.057     1638.614      559.167        0.842        0.202      113.104       10.501        0.009      335.661        6.443      863.412
04/21/2013  03:56:00     -134.934      -40.603       -5.833       30.697       29.652       15.307      942.325      879.237      234.290        1.097        0.103      140.910        9.282        0.004      335.659        6.442      863.409
04/21/2013  03:57:00     -138.798      -42.433       -5.150       35.512       31.757       21.854     1261.089     1008.495      477.586        1.192        0.137      145.139       23.626        0.026      335.539        6.241      863.404
04/21/2013  03:58:00     -145.724      -58.199       -1.972       44.048       28.745       22.305     1940.204      826.259      497.493        1.394        0.163      156.916       24.787        0.025      335.656        6.435      863.398
04/21/2013  03:59:00     -136.490      -56.368        0.262       40.638       41.591       24.039     1651.454     1729.801      577.859        1.288        0.198      147.671       23.546        0.025      335.673        6.464      863.394
04/21/2013  04:00:00     -126.354      -41.123       -2.105       56.250       31.548       21.847     3164.102      995.302      477.288        1.115        0.232      132.877       25.396        0.037      335.547        6.254      863.383
04/21/2013  04:01:00     -133.693      -28.340       -3.422       42.112       27.866       22.832     1773.452      776.507      521.282        1.088        0.154      136.664       22.051        0.026      335.510        6.192      863.370
04/21/2013  04:02:00     -131.523      -45.320       -0.624       32.265       31.035       18.972     1041.014      963.154      359.933        1.086        0.118      139.113       15.430        0.012      335.595        6.335      863.368
04/21/2013  04:03:00     -128.170      -19.122       -5.695       27.244       27.944       19.431      742.243      780.891      377.557        0.936        0.095      129.589       12.523        0.009      335.537        6.236      863.370
04/21/2013  04:04:00     -114.610      -29.871       -1.666       32.452       25.315       20.672     1053.118      640.852      427.346        0.808        0.106      118.439       18.451        0.024      335.526        6.218      863.369
04/21/2013  04:05:00      -97.171      -41.058        5.860       40.269       30.310       25.453     1621.555      918.711      647.849        0.717        0.159      105.490       23.250        0.049      335.608        6.355      863.370
04/21/2013  04:06:00     -122.807      -51.588       -1.306       25.552       31.623       19.005      652.899     1000.025      361.182        0.988        0.101      133.202       15.418        0.013      335.664        6.450      863.382
04/21/2013  04:07:00      -98.278      -46.453       -1.004       35.405       27.725       20.057     1253.525      768.670      402.266        0.712        0.121      108.703       15.098        0.019      335.611        6.359      863.392
04/21/2013  04:08:00      -70.337      -66.007        2.079       39.437       24.848       16.364     1555.271      617.399      267.779        0.587        0.122       96.458       20.167        0.044      335.681        6.477      863.399
04/21/2013  04:09:00     -114.466      -60.121       -8.283       27.846       23.574       19.234      775.377      555.719      369.957        0.924        0.085      129.294       16.855        0.017      335.664        6.450      863.415
04/21/2013  04:10:00     -111.865      -51.240       -6.533       22.510       18.438       17.502      506.721      339.951      306.305        0.817        0.058      123.042        9.903        0.006      335.699        6.508      863.428
04/21/2013  04:11:00     -105.455      -36.146        5.718       35.681       27.213       19.199     1273.105      740.526      368.599        0.742        0.119      111.478       19.095        0.029      335.620        6.376      863.437
04/21/2013  04:12:00     -103.992      -23.931       -0.963       32.336       24.085       18.270     1045.636      580.101      333.809        0.667        0.098      106.710       17.334        0.026      335.501        6.177      863.446
04/21/2013  04:13:00     -145.025       -6.502      -14.893       24.902       20.045       16.814      620.086      401.802      282.721        1.130        0.065      145.171        8.383        0.003      335.446        6.085      863.450
04/21/2013  04:14:00     -104.649      -19.043        1.515       44.912       34.873       21.302     2017.061     1216.115      453.767        0.750        0.184      106.367       21.730        0.042      335.431        6.060      863.449
04/21/2013  04:15:00     -126.784      -33.294        3.289       46.480       28.346       19.142     2160.372      803.494      366.401        1.026        0.167      131.082       22.024        0.028      335.494        6.165      863.436
04/21/2013  04:16:00     -119.583      -35.160        5.243       46.098       38.306       23.295     2124.988     1467.372      542.643        0.985        0.207      124.645       24.706        0.039      335.548        6.254      863.440
04/21/2013  04:17:00     -127.848      -24.459       -5.792       34.729       23.944       18.370     1206.137      573.329      337.448        0.955        0.106      130.167       19.186        0.022      335.575        6.300      863.442
04/21/2013  04:18:00     -117.488      -42.214       -0.137       26.965       23.941       18.328      727.103      573.174      335.927        0.861        0.082      124.842       15.885        0.016      335.475        6.132      863.443
04/21/2013  04:19:00     -144.076      -51.625       -0.251       30.542       21.543       17.658      932.796      464.103      311.796        1.257        0.085      153.046       19.126        0.016      335.484        6.149      863.441
04/21/2013  04:20:00     -126.678      -30.176       -9.471       22.618       26.779       16.122      511.553      717.097      259.903        0.927        0.074      130.223       12.178        0.009      335.407        6.019      863.450
04/21/2013  04:21:00     -108.827      -22.677       -3.064       38.060       20.440       18.167     1448.589      417.792      330.029        0.728        0.110      111.165       19.345        0.030      335.371        5.959      863.452
04/21/2013  04:22:00     -116.761      -10.505       -4.869       38.905       22.625       18.603     1513.601      511.905      346.088        0.807        0.119      117.232       18.731        0.026      335.313        5.863      863.443
04/21/2013  04:23:00     -101.126        1.913       -9.133       34.928       22.745       16.996     1219.949      517.313      288.851        0.617        0.101      101.145       15.209        0.023      335.358        5.938      863.444
04/21/2013  04:24:00      -94.142      -21.433       -3.649       29.147       28.137       19.742      849.546      791.706      389.762        0.568        0.102       96.551       18.160        0.035      335.349        5.921      863.457
04/21/2013  04:25:00      -72.428      -44.591        1.060       46.463       27.418       20.499     2158.805      751.753      420.197        0.528        0.167       85.054       21.586        0.064      335.287        5.818      863.472
04/21/2013  04:26:00     -108.076      -29.372       -7.401       36.772       30.207       16.567     1352.161      912.456      274.463        0.757        0.127      111.996       13.065        0.014      335.226        5.718      863.473
04/21/2013  04:27:00      -85.453      -42.833       -8.137       33.942       36.193       16.877     1152.040     1309.908      284.825        0.597        0.137       95.587       18.388        0.037      335.199        5.673      863.471
04/21/2013  04:28:00      -70.771      -20.296        0.127       55.185       24.650       21.896     3045.404      607.602      479.452        0.478        0.207       73.624       25.829        0.123      335.241        5.743      863.465
04/21/2013  04:29:00     -138.575       -0.172      -14.991       26.549       27.132       25.148      704.854      736.161      632.426        1.075        0.104      138.576       22.907        0.027      335.186        5.651      863.456
04/21/2013  04:30:00      -81.478      -35.316        0.423       37.677       30.755       24.001     1419.525      945.857      576.055        0.541        0.147       88.803       23.169        0.068      335.224        5.714      863.444
04/21/2013  04:31:00      -31.305      -38.093       17.357       42.665       34.729       24.646     1820.321     1206.091      607.441        0.318        0.182       49.306       24.836        0.254      335.203        5.681      863.439
04/21/2013  04:32:00      -94.521      -44.397       -2.483       35.475       29.893       15.987     1258.486      893.620      255.584        0.666        0.120      104.428        4.081        0.002      335.231        5.726      863.438
04/21/2013  04:33:00      -88.540      -33.332        0.687       40.935       21.687       17.497     1675.681      470.316      306.151        0.570        0.123       94.606       20.079        0.045      335.289        5.822      863.437
04/21/2013  04:34:00      -86.322      -57.653       -3.150       37.555       24.750       21.055     1410.365      612.573      443.300        0.663        0.123      103.804       21.500        0.043      335.309        5.855      863.446
04/21/2013  04:35:00     -100.328      -49.537       -3.699       28.874       25.910       16.429      833.692      671.349      269.900        0.715        0.089      111.891       15.543        0.019      335.342        5.910      863.455
04/21/2013  04:36:00      -96.775      -17.673       -5.626       22.003       20.334       13.495      484.122      413.466      182.121        0.539        0.054       98.375       12.585        0.016      335.301        5.844      863.457
04/21/2013  04:37:00     -113.342      -11.979       -9.129       18.117       13.821       14.222      328.235      191.008      202.260        0.690        0.036      113.973        9.060        0.006      335.285        5.815      863.456
04/21/2013  04:38:00      -94.876      -17.033       -2.719       27.286       21.358       19.107      744.503      456.155      365.091        0.543        0.078       96.392       16.131        0.028      335.299        5.839      863.459
04/21/2013  04:39:00      -86.345      -59.302       -2.364       27.526       19.270       21.180      757.682      371.324      448.609        0.628        0.079      104.748       17.686        0.029      335.426        6.052      863.467
04/21/2013  04:40:00      -17.319      -33.669       11.653       41.039       26.375       23.391     1684.170      695.618      547.133        0.225        0.146       37.862       25.866        0.467      335.425        6.050      863.474
04/21/2013  04:41:00      -65.262      -35.055        4.833       35.635       25.674       17.745     1269.847      659.165      314.868        0.388        0.112       74.081       17.604        0.056      335.395        5.999      863.489
04/21/2013  04:42:00     -104.146      -51.726        0.065       28.052       19.309       12.106      786.895      372.836      146.549        0.741        0.065      116.284       11.015        0.009      335.353        5.929      863.504
04/21/2013  04:43:00      -90.374      -43.823        4.098       29.145       24.003       15.000      849.421      576.141      224.988        0.588        0.083      100.439       14.312        0.020      335.295        5.832      863.499
04/21/2013  04:44:00      -65.637      -48.571        4.492       32.089       29.453       19.018     1029.699      867.482      361.673        0.447        0.113       81.654       16.922        0.043      335.357        5.936      863.497
04/21/2013  04:45:00      -85.440      -48.880       -0.857       29.554       24.251       16.033      873.424      588.126      257.045        0.570        0.086       98.434       15.551        0.025      335.427        6.053      863.510
04/21/2013  04:46:00      -78.376      -47.675       -4.051       47.432       23.022       18.427     2249.750      530.025      339.556        0.578        0.156       91.737       24.859        0.073      335.454        6.099      863.515
04/21/2013  04:47:00      -75.632      -15.832       -1.481       24.890       24.750       13.175      619.528      612.544      173.575        0.369        0.070       77.272       11.471        0.022      335.411        6.026      863.515
04/21/2013  04:48:00      -71.982      -23.996       -4.734       18.309       17.836       10.131      335.231      318.134      102.630        0.327        0.038       75.876        8.375        0.012      335.318        5.871      863.528
04/21/2013  04:49:00      -74.721      -36.284       -5.496       18.396       14.881       10.957      338.428      221.443      120.061        0.380        0.034       83.064        6.196        0.006      335.338        5.906      863.553
04/21/2013  04:50:00      -84.245      -16.730       -5.971       23.945       22.541       12.020      573.385      508.099      144.487        0.432        0.061       85.890       10.446        0.015      335.318        5.872      863.559
04/21/2013  04:51:00      -83.036      -13.590      -10.135       25.150       16.520       15.375      632.534      272.902      236.388        0.416        0.057       84.141       15.937        0.036      335.321        5.876      863.550
04/21/2013  04:52:00      -68.795      -31.636       -2.219       22.544       11.589       10.418      508.212      134.295      108.533        0.324        0.038       75.720        9.841        0.017      335.391        5.993      863.549
04/21/2013  04:53:00      -38.731      -23.016       -5.400       16.672       17.104        9.048      277.943      292.534       81.870        0.136        0.033       45.054        6.337        0.020      335.367        5.953      863.550
04/21/2013  04:54:00      -69.325      -28.402      -12.317       12.401       14.483        8.286      153.794      209.758       68.661        0.310        0.022       74.917        5.810        0.006      335.319        5.873      863.558
04/21/2013  04:55:00      -81.014      -27.248      -14.791       20.060       16.246       10.455      402.386      263.946      109.300        0.415        0.039       85.474       10.234        0.014      335.292        5.828      863.553
04/21/2013  04:56:00      -93.635      -23.344      -16.789       10.621       11.036        9.450      112.815      121.795       89.297        0.496        0.016       96.501        2.167        0.001      335.215        5.699      863.555
04/21/2013  04:57:00      -96.912      -20.570      -14.260        9.214       10.492        8.475       84.889      110.079       71.834        0.514        0.013       99.071        3.165        0.001      335.222        5.710      863.545
04/21/2013  04:58:00      -77.027      -26.790      -10.562        9.115       11.732        7.000       83.079      137.642       48.999        0.352        0.013       81.553        4.210        0.003      335.249        5.755      863.541
04/21/2013  04:59:00      -65.313      -12.817      -12.305       10.547        7.281        7.206      111.240       53.015       51.924        0.240        0.011       66.559        2.773        0.002      335.289        5.822      863.539
04/21/2013  05:00:00      -70.678       -9.387       -8.007        9.441       10.051        7.547       89.127      101.014       56.951        0.270        0.012       71.298        3.368        0.002      335.253        5.763      863.536
04/21/2013  05:01:00      -75.534      -11.553       -8.920       12.354       11.141        8.352      152.622      124.126       69.750        0.313        0.017       76.413        6.422        0.007      335.274        5.799      863.551
04/21/2013  05:02:00      -95.861      -20.118       -8.957       14.847       10.691        7.730      220.432      114.288       59.752        0.503        0.020       97.949        4.234        0.002      335.264        5.780      863.567
04/21/2013  05:03:00     -107.396      -20.346      -14.204       12.180       10.563        7.618      148.345      111.581       58.035        0.623        0.016      109.306        3.573        0.001      335.195        5.666      863.566
04/21/2013  05:04:00     -111.263      -17.701      -13.407       13.999       16.962       12.137      195.971      287.697      147.303        0.675        0.032      112.663        8.523        0.006      335.214        5.698      863.562
04/21/2013  05:05:00     -108.698      -40.239      -17.077        9.746        8.649       10.487       94.990       74.802      109.971        0.700        0.014      115.907        5.258        0.002      335.149        5.590      863.565
04/21/2013  05:06:00     -123.245      -39.929      -15.360       13.152        8.034        7.279      172.976       64.538       52.982        0.865        0.015      129.552        4.859        0.001      335.240        5.741      863.560
04/21/2013  05:07:00      -95.363      -28.555       -5.501       30.092       20.474       15.853      905.556      419.204      251.317        0.576        0.079       99.546       15.545        0.024      335.191        5.659      863.567
04/21/2013  05:08:00     -104.900      -39.967       -7.363        8.031       13.119       10.522       64.501      172.103      110.707        0.650        0.017      112.255        6.814        0.004      335.223        5.713      863.586
04/21/2013  05:09:00      -93.299      -35.298      -12.124       12.297       11.334        8.948      151.208      128.470       80.073        0.523        0.018       99.753        5.132        0.003      335.318        5.870      863.596
04/21/2013  05:10:00     -104.715      -28.052      -13.338       11.734       11.684       10.525      137.679      136.511      110.767        0.616        0.019      108.407        5.423        0.003      335.236        5.735      863.615
04/21/2013  05:11:00     -136.854      -37.935      -14.333       23.067       18.055       12.823      532.093      325.977      164.429        1.070        0.051      142.014       10.847        0.006      335.142        5.579      863.623
04/21/2013  05:12:00     -141.536      -40.640       -5.362       39.042       26.585       21.881     1524.245      706.785      478.770        1.221        0.135      147.255       23.710        0.026      335.034        5.400      863.626
04/21/2013  05:13:00     -117.909      -45.583       -1.459       41.318       27.698       18.237     1707.151      767.193      332.599        0.939        0.140      126.413       20.787        0.027      335.026        5.387      863.633
04/21/2013  05:14:00     -126.021      -41.376       -3.189       29.393       30.787       17.705      863.932      947.833      313.461        0.986        0.106      132.640       10.627        0.006      334.989        5.326      863.637
04/21/2013  05:15:00     -133.661      -33.099      -14.835       17.439       16.240       12.709      304.104      263.726      161.524        0.996        0.036      137.698        8.476        0.004      334.950        5.261      863.648
04/21/2013  05:16:00     -117.810      -43.110      -14.944       18.627       16.428       13.370      346.973      269.872      178.747        0.838        0.040      125.449        8.210        0.004      334.967        5.289      863.647
04/21/2013  05:17:00     -115.596      -42.768      -11.176       25.271       21.909       15.663      638.618      479.988      245.338        0.834        0.068      123.253       13.082        0.011      334.926        5.221      863.646
04/21/2013  05:18:00     -122.854      -44.692      -13.811       14.565       16.494        9.080      212.142      272.047       82.447        0.892        0.028      130.731        4.749        0.001      334.946        5.254      863.654
04/21/2013  05:19:00     -115.209      -38.012       -9.405       15.480       17.322        9.176      239.637      300.046       84.192        0.772        0.031      121.318        7.645        0.004      335.007        5.354      863.664
04/21/2013  05:20:00     -110.509      -40.414      -12.911       13.191       16.215       10.085      174.001      262.921      101.715        0.728        0.027      117.667        6.257        0.003      335.007        5.356      863.660
04/21/2013  05:21:00     -106.121      -39.056      -13.455       14.584       15.253       10.608      212.689      232.648      112.525        0.676        0.028      113.080        5.509        0.002      334.973        5.300      863.652
04/21/2013  05:22:00     -102.349      -32.567      -12.980       10.528       13.914       11.832      110.828      193.588      139.998        0.607        0.022      107.406        6.783        0.004      334.937        5.240      863.647
04/21/2013  05:23:00     -105.778      -51.319       -7.203       12.964       15.222       10.058      168.067      231.724      101.155        0.719        0.025      117.570        4.530        0.001      335.041        5.411      863.635
04/21/2013  05:24:00     -112.679      -36.353      -15.063       15.703       19.150       10.930      246.589      366.706      119.457        0.749        0.037      118.398       10.215        0.007      335.018        5.374      863.630
04/21/2013  05:25:00     -123.737      -39.796       -9.625       25.270       18.000       13.629      638.582      324.013      185.737        0.907        0.057      129.979       12.098        0.009      335.030        5.396      863.643
04/21/2013  05:26:00     -126.218      -51.630      -12.668       12.916       17.295       12.532      166.834      299.106      157.056        0.969        0.031      136.370        9.373        0.005      335.009        5.358      863.653
04/21/2013  05:27:00     -119.329      -53.789       -6.190       22.444       20.279       15.963      503.747      411.228      254.809        0.917        0.058      130.892       15.266        0.014      335.074        5.466      863.660
04/21/2013  05:28:00     -107.375      -24.816      -10.419       27.690       18.296       15.370      766.725      334.751      236.250        0.680        0.067      110.205       12.618        0.013      335.172        5.629      863.661
04/21/2013  05:29:00     -118.305      -19.429       -9.190       27.359       20.748       13.863      748.522      430.462      192.188        0.791        0.069      119.890       13.719        0.013      335.057        5.439      863.672
04/21/2013  05:30:00      -94.202      -27.912        1.558       38.180       18.684       21.223     1457.742      349.082      450.400        0.596        0.113       98.250       22.851        0.054      334.998        5.340      863.678
04/21/2013  05:31:00     -106.363      -30.155       -3.529       24.761       18.977       14.557      613.130      360.133      211.900        0.671        0.059      110.555       11.877        0.012      334.992        5.330      863.682
04/21/2013  05:32:00      -98.605      -34.595       -2.407       20.131       16.363        9.784      405.274      267.737       95.722        0.585        0.038      104.498        9.671        0.009      335.058        5.442      863.691
04/21/2013  05:33:00      -85.247      -38.070       -1.267       22.523       17.185       16.590      507.283      295.313      275.217        0.490        0.054       93.362       14.370        0.024      335.000        5.343      863.700
04/21/2013  05:34:00      -69.878      -31.637        3.390       28.895       18.547       13.553      834.942      343.997      183.696        0.363        0.068       76.706       14.374        0.035      334.990        5.328      863.695
04/21/2013  05:35:00      -77.401      -47.755       -5.481       15.685       17.064       10.313      246.007      291.181      106.352        0.447        0.032       90.948        2.757        0.001      335.097        5.505      863.692
04/21/2013  05:36:00      -77.707      -11.774       -5.373       19.479       16.192       10.295      379.441      262.191      105.988        0.348        0.037       78.594       10.421        0.018      335.032        5.398      863.695
04/21/2013  05:37:00      -71.719      -36.857       -5.632       21.195       15.441       13.448      449.214      238.432      180.856        0.370        0.043       80.635       13.759        0.029      334.988        5.324      863.704
04/21/2013  05:38:00      -79.220      -50.092       -2.762       19.365       17.764       11.523      375.020      315.563      132.775        0.481        0.041       93.729       10.504        0.013      335.025        5.384      863.728
04/21/2013  05:39:00      -85.521      -36.375       -2.554       32.844       21.277       14.401     1078.755      452.718      207.382        0.519        0.087       92.935       15.943        0.029      335.051        5.428      863.741
04/21/2013  05:40:00     -104.857      -46.610       -9.707       18.556       17.644       14.325      344.334      311.308      205.207        0.706        0.043      114.750        9.569        0.007      335.000        5.342      863.743
04/21/2013  05:41:00      -85.940      -51.866       -6.344       23.642       19.644       16.840      558.962      385.898      283.577        0.567        0.061      100.379       15.468        0.024      335.023        5.383      863.758
04/21/2013  05:42:00      -71.537      -42.301      -17.061       11.742       11.668        9.007      137.872      136.150       81.122        0.378        0.018       83.108        6.620        0.006      335.052        5.430      863.765
04/21/2013  05:43:00      -66.122      -31.152       -4.037       12.395       14.530        8.279      153.626      211.119       68.536        0.290        0.022       73.093        4.691        0.004      335.133        5.565      863.767
04/21/2013  05:44:00      -81.706      -14.997       -9.403       12.041       10.634        7.773      144.978      113.080       60.425        0.365        0.016       83.071        4.380        0.003      335.122        5.546      863.775
04/21/2013  05:45:00      -94.597      -16.934      -15.001        7.896       16.049        8.949       62.352      257.560       80.079        0.493        0.020       96.101        2.665        0.001      335.121        5.547      863.799
04/21/2013  05:46:00     -108.553      -30.473      -16.504       12.030       14.712       11.415      144.710      216.440      130.301        0.674        0.025      112.749        5.678        0.003      335.100        5.509      863.826
04/21/2013  05:47:00      -94.185      -45.044       -6.274       17.220       18.283       12.514      296.516      334.258      156.602        0.586        0.039      104.402       10.026        0.009      335.071        5.462      863.824
04/21/2013  05:48:00      -99.078      -56.715       -5.242       17.593       17.340       14.521      309.530      300.680      210.851        0.694        0.041      114.162        8.106        0.005      334.993        5.332      863.809
04/21/2013  05:49:00      -66.315      -32.547        2.545       27.115       13.261       14.032      735.218      175.846      196.898        0.329        0.055       73.872       14.918        0.041      335.035        5.403      863.809
04/21/2013  05:50:00      -20.562      -22.500        6.654       17.766       16.232       13.036      315.615      263.467      169.925        0.086        0.037       30.480        9.620        0.100      335.154        5.599      863.812
04/21/2013  05:51:00      -31.866      -11.919       -0.312       15.806       10.050        8.493      249.840      101.005       72.127        0.079        0.021       34.023        8.777        0.067      335.223        5.714      863.799
04/21/2013  05:52:00      -30.159      -17.805       -1.043       15.613       16.683        9.308      243.776      278.328       86.642        0.092        0.030       35.023        7.234        0.043      335.261        5.774      863.791
04/21/2013  05:53:00      -48.384      -13.554       -4.675        7.833       11.857        6.684       61.360      140.600       44.676        0.140        0.012       50.247        4.698        0.009      335.197        5.670      863.776
04/21/2013  05:54:00      -32.227      -27.034       -6.177       18.566       12.760        9.281      344.707      162.818       86.141        0.120        0.030       42.064        7.930        0.036      335.258        5.770      863.767
04/21/2013  05:55:00      -16.443      -31.333       -6.337       26.984       17.005       12.153      728.118      289.173      147.693        0.123        0.058       35.385       11.197        0.100      335.298        5.837      863.769
04/21/2013  05:56:00      -43.266      -26.066       -3.023       25.595       16.727       14.580      655.096      279.785      212.570        0.185        0.057       50.511       10.818        0.046      335.238        5.737      863.795
04/21/2013  05:57:00      -86.151      -50.519      -10.605       16.727       14.067        8.756      279.791      197.886       76.675        0.532        0.028       99.870        6.562        0.004      335.305        5.849      863.826
04/21/2013  05:58:00     -101.182      -40.480      -10.435       13.675       20.909       12.473      187.017      437.172      155.564        0.638        0.039      108.979        5.705        0.003      335.141        5.578      863.838
04/21/2013  05:59:00      -83.238      -44.801        3.512       41.738       27.067       17.926     1742.088      732.634      321.346        0.587        0.140       94.529       20.567        0.047      335.133        5.565      863.846
04/21/2013  06:00:00      -78.757      -46.855       -0.809       22.389       20.844       15.822      501.262      434.464      250.349        0.479        0.059       91.641       11.910        0.017      335.223        5.713      863.854
04/21/2013  06:01:00      -83.310      -48.213       -3.062       36.076       22.975       15.185     1301.513      527.835      230.579        0.567        0.103       96.256       17.912        0.035      335.168        5.624      863.857
04/21/2013  06:02:00     -120.316      -29.136        1.029       27.479       23.178       17.091      755.114      537.230      292.119        0.845        0.079      123.794       16.576        0.018      335.083        5.481      863.878
04/21/2013  06:03:00      -97.257      -37.679        3.680       34.874       26.953       19.371     1216.192      726.485      375.239        0.660        0.116      104.300       19.112        0.034      334.909        5.193      863.908
04/21/2013  06:04:00      -68.619      -34.907        5.186       34.275       27.123       16.953     1174.806      735.637      287.390        0.408        0.110       76.987       17.706        0.053      335.102        5.513      863.923
04/21/2013  06:05:00     -107.631       -4.011       -3.432       35.501       24.539       14.111     1260.344      602.177      199.129        0.684        0.103      107.705       15.611        0.021      334.950        5.262      863.930
04/21/2013  06:06:00      -92.310      -24.342        1.765       31.112       20.456       16.994      967.962      418.454      288.804        0.540        0.084       95.465       17.277        0.033      334.902        5.180      863.917
04/21/2013  06:07:00     -119.638      -28.238       -4.255       30.513       21.749       15.779      931.018      473.035      248.968        0.839        0.083      122.926        8.868        0.005      334.992        5.330      863.921
04/21/2013  06:08:00     -165.227      -47.832       -4.848       29.297       26.835       22.927      858.315      720.110      525.628        1.586        0.105      172.011       17.634        0.011      334.892        5.164      863.924
04/21/2013  06:09:00     -116.989      -27.611       -0.081       41.133       28.853       20.630     1691.932      832.522      425.597        0.870        0.148      120.203       23.403        0.038      334.680        4.811      863.913
04/21/2013  06:10:00      -74.245      -41.396        3.749       30.187       26.361       16.269      911.250      694.889      264.693        0.456        0.094       85.006       14.292        0.028      334.916        5.204      863.887
04/21/2013  06:11:00      -85.268      -38.151       -0.721       28.762       31.783       16.013      827.250     1010.183      256.411        0.541        0.105       93.414       13.123        0.020      334.980        5.312      863.875
04/21/2013  06:12:00     -108.381      -59.371       -4.642       26.646       22.045       20.718      710.028      485.971      429.232        0.846        0.081      123.578       19.657        0.025      334.984        5.317      863.874
04/21/2013  06:13:00     -111.702      -56.163       -1.587       40.280       25.102       23.306     1622.474      630.095      543.173        0.921        0.140      125.027       24.080        0.037      335.032        5.398      863.874
04/21/2013  06:14:00     -128.012      -47.229        1.240       36.608       29.374       19.940     1340.134      862.856      397.586        1.061        0.130      136.446       18.513        0.018      334.959        5.276      863.881
04/21/2013  06:15:00     -111.669      -55.369       11.571       49.729       24.808       24.786     2472.954      615.445      614.344        0.969        0.185      124.642       27.009        0.047      334.951        5.263      863.885
04/21/2013  06:16:00     -154.761      -76.941        1.542       41.028       28.259       20.645     1683.274      798.552      426.217        1.639        0.145      172.832       22.184        0.016      334.979        5.311      863.885
04/21/2013  06:17:00     -145.096      -90.230        0.461       38.277       33.274       22.807     1465.138     1107.150      520.181        1.614        0.155      170.863       23.322        0.019      334.929        5.227      863.881
04/21/2013  06:18:00     -126.318      -59.897        5.245       43.630       36.317       23.724     1903.576     1318.912      562.841        1.168        0.189      139.799       25.503        0.033      334.870        5.129      863.879
04/21/2013  06:19:00     -156.551      -69.771       -2.992       36.106       26.058       16.520     1303.622      679.000      272.900        1.582        0.113      171.395       14.393        0.007      334.931        5.229      863.876
04/21/2013  06:20:00     -136.472      -42.156       -6.629       35.774       29.215       19.605     1279.784      853.544      384.361        1.148        0.126      142.835       15.149        0.011      334.894        5.167      863.890
04/21/2013  06:21:00     -123.129      -30.335        1.011       42.964       25.201       22.037     1845.880      635.070      485.618        0.952        0.148      126.811       23.145        0.033      334.939        5.242      863.904
04/21/2013  06:22:00     -176.855      -44.553      -10.223       27.550       23.299       15.316      759.011      542.844      234.566        1.745        0.077      182.381       11.935        0.004      334.878        5.141      863.923
04/21/2013  06:23:00     -151.560      -46.161      -13.414       38.732       37.964       18.181     1500.184     1441.267      330.563        1.428        0.164      158.434       10.318        0.004      334.800        5.012      863.947
04/21/2013  06:24:00     -123.630      -30.618      -15.593       21.113       18.296       13.076      445.755      334.753      170.973        0.871        0.048      127.365       10.282        0.007      334.694        4.834      863.975
04/21/2013  06:25:00      -87.441      -19.667      -10.054       22.784       20.811       13.128      519.090      433.110      172.332        0.463        0.056       89.626        8.608        0.009      334.691        4.831      863.993
04/21/2013  06:26:00      -59.086      -27.510        0.232       30.130       25.322       19.394      907.840      641.198      376.145        0.309        0.096       65.177       17.696        0.074      334.719        4.877      863.997
04/21/2013  06:27:00      -99.337      -10.914      -10.122       25.419       28.831       12.985      646.123      831.235      168.613        0.587        0.082       99.935       11.581        0.013      334.910        5.193      863.995
04/21/2013  06:28:00      -75.878       -7.381       -5.980       33.422       29.422       20.789     1117.057      865.635      432.164        0.413        0.121       76.236       18.031        0.056      334.923        5.215      863.991
04/21/2013  06:29:00     -103.144       -9.766       -9.758       23.137       31.038       18.002      535.330      963.337      324.067        0.633        0.091      103.606       12.839        0.015      335.004        5.352      863.989
04/21/2013  06:30:00     -109.043      -30.899       -1.918       33.925       31.207       20.175     1150.910      973.866      407.046        0.769        0.127      113.336       14.664        0.017      334.864        5.118      863.993
04/21/2013  06:31:00     -108.779      -19.844       -6.929       36.677       24.295       20.304     1345.177      590.271      412.239        0.731        0.117      110.574       16.569        0.022      334.835        5.069      863.989
04/21/2013  06:32:00      -82.986      -18.941       -2.041       23.654       27.816       19.554      559.498      773.756      382.340        0.448        0.086       85.120       11.131        0.017      334.929        5.228      863.985
04/21/2013  06:33:00     -103.324      -27.157      -11.202       27.228       32.431       14.680      741.363     1051.800      215.500        0.677        0.100      106.833       11.093        0.011      334.919        5.210      864.001
04/21/2013  06:34:00     -101.707      -22.955       -0.855       26.998       26.300       18.069      728.893      691.676      326.480        0.631        0.087      104.265       16.073        0.024      334.902        5.181      864.027
04/21/2013  06:35:00      -97.291      -39.141       -1.707       21.722       43.227       17.886      471.867     1868.545      319.906        0.683        0.133      104.869       12.389        0.014      334.914        5.200      864.045
04/21/2013  06:36:00     -109.512      -34.664       -6.239       21.310       22.158       13.572      454.133      490.966      184.191        0.718        0.056      114.867        8.641        0.006      334.921        5.214      864.074
04/21/2013  06:37:00      -65.538      -48.103       -0.599       40.823       25.143       20.744     1666.520      632.174      430.329        0.467        0.136       81.297       22.627        0.077      334.979        5.309      864.090
04/21/2013  06:38:00     -101.249      -42.467       -3.628       30.836       24.344       17.134      950.832      592.615      293.585        0.695        0.092      109.794       16.823        0.023      335.079        5.476      864.114
04/21/2013  06:39:00      -99.212      -47.673       -3.763       21.074       17.476       15.730      444.115      305.407      247.421        0.656        0.050      110.072       11.923        0.012      335.163        5.616      864.128
04/21/2013  06:40:00      -84.255      -22.014       -2.556       22.164       18.486       11.767      491.252      341.731      138.454        0.428        0.049       87.084       11.240        0.017      335.120        5.544      864.151
04/21/2013  06:41:00      -75.744      -40.555       -0.033       21.420       26.091       17.512      458.831      680.726      306.673        0.441        0.072       85.918       12.959        0.023      335.281        5.811      864.167
04/21/2013  06:42:00      -92.844      -26.579       -1.177       28.266       23.423       16.145      798.947      548.639      260.662        0.547        0.080       96.574       11.903        0.015      335.174        5.632      864.176
04/21/2013  06:43:00      -92.689      -21.646       -1.812       33.083       20.561       18.047     1094.483      422.736      325.704        0.545        0.092       95.183       19.025        0.040      335.286        5.817      864.187
04/21/2013  06:44:00      -63.010      -44.706        7.470       38.227       23.366       19.105     1461.335      545.955      364.997        0.420        0.119       77.259       17.602        0.052      335.616        6.369      864.192
04/21/2013  06:45:00       -5.151      -19.740       15.443       28.493       19.751       17.667      811.836      390.100      312.119        0.108        0.076       20.401       17.874        0.768      335.639        6.407      864.195
04/21/2013  06:46:00      -48.498      -28.019        0.191       18.454       16.885       11.542      340.533      285.104      133.209        0.195        0.038       56.010       10.170        0.033      335.619        6.374      864.213
04/21/2013  06:47:00      -75.335      -16.864       -1.054       20.256       21.175       12.593      410.316      448.380      158.595        0.349        0.051       77.199       13.613        0.031      335.567        6.286      864.230
04/21/2013  06:48:00      -92.520      -40.206       -3.888       24.640       24.602       13.218      607.117      605.260      174.706        0.579        0.069      100.879        8.191        0.007      335.505        6.184      864.250
04/21/2013  06:49:00      -85.322      -61.298        2.722       43.554       38.626       22.399     1896.940     1492.005      501.725        0.747        0.195      105.059       15.847        0.023      335.407        6.020      864.275
04/21/2013  06:50:00     -122.023      -80.043       -5.832       31.392       37.916       21.813      985.489     1437.618      475.814        1.211        0.145      145.933       11.325        0.006      335.314        5.865      864.297
04/21/2013  06:51:00     -108.301      -23.951       -3.842       44.259       28.541       19.392     1958.876      814.608      376.054        0.773        0.157      110.918       16.387        0.022      335.289        5.823      864.317
04/21/2013  06:52:00      -81.411      -43.075        2.157       36.427       27.600       18.680     1326.916      761.752      348.929        0.546        0.122       92.105       16.210        0.031      335.345        5.916      864.325
04/21/2013  06:53:00      -88.163      -62.141        4.050       34.306       60.822       28.222     1176.923     3699.361      796.474        0.866        0.284      107.863       23.167        0.046      335.365        5.949      864.324
04/21/2013  06:54:00      -54.112      -43.207        4.536       45.883       36.351       22.646     2105.290     1321.405      512.855        0.438        0.197       69.246       19.545        0.080      335.482        6.146      864.338
04/21/2013  06:55:00      -98.101      -49.660       -2.393       42.574       24.779       21.235     1812.550      613.978      450.939        0.749        0.144      109.954       22.603        0.042      335.477        6.138      864.350
04/21/2013  06:56:00      -50.217      -54.569        5.341       36.754       26.285       19.270     1350.841      690.892      371.346        0.397        0.121       74.159       19.879        0.072      335.546        6.251      864.351
04/21/2013  06:57:00      -23.947      -31.708       23.124       49.212       27.776       27.060     2421.808      771.508      732.265        0.302        0.196       39.735       29.842        0.564      335.609        6.358      864.364
04/21/2013  06:58:00      -43.551      -42.882        9.518       44.519       34.864       28.585     1981.938     1215.483      817.123        0.392        0.201       61.119       30.064        0.242      335.617        6.370      864.390
04/21/2013  06:59:00     -137.404      -85.761      -11.688       31.130       21.088       21.814      969.104      444.708      475.839        1.413        0.094      161.971       15.302        0.009      335.516        6.203      864.404
04/21/2013  07:00:00     -144.729      -66.992       -8.428       37.781       23.122       23.652     1427.372      534.619      559.394        1.401        0.126      159.482       24.061        0.023      335.538        6.240      864.406
04/21/2013  07:01:00     -119.463      -70.937       -3.823       30.082       35.930       22.641      904.931     1290.962      512.625        1.101        0.135      138.936       19.789        0.020      335.583        6.314      864.404
04/21/2013  07:02:00      -72.532      -69.904       -0.817       38.959       31.906       18.178     1517.796     1018.010      330.436        0.651        0.143      100.734       16.397        0.026      335.667        6.454      864.413
04/21/2013  07:03:00      -35.445      -46.173        5.170       42.546       28.670       22.560     1810.175      821.982      508.940        0.328        0.157       58.209       21.295        0.134      335.767        6.622      864.424
04/21/2013  07:04:00      -36.104      -35.627        4.586       35.790       31.729       20.500     1280.915     1006.704      420.249        0.265        0.135       50.723       20.986        0.171      335.792        6.663      864.442
04/21/2013  07:05:00      -40.997      -31.047        2.792       40.376       27.022       22.703     1630.245      730.180      515.418        0.276        0.144       51.426       20.889        0.165      335.857        6.770      864.449
04/21/2013  07:06:00      -53.191      -72.947       -5.122       27.702       20.972       21.345      767.377      439.828      455.617        0.492        0.083       90.280       16.344        0.033      335.788        6.655      864.444
04/21/2013  07:07:00      -61.070      -74.107       -0.177       23.746       20.446       15.155      563.894      418.051      229.689        0.522        0.061       96.028       11.785        0.015      335.783        6.646      864.441
04/21/2013  07:08:00      -44.439      -30.993       10.119       33.713       20.767       22.673     1136.540      431.271      514.087        0.256        0.104       54.179       17.968        0.110      335.930        6.892      864.435
04/21/2013  07:09:00      -56.692      -54.138        4.303       39.475       30.242       18.972     1558.301      914.591      359.948        0.450        0.142       78.389       19.220        0.060      335.767        6.620      864.442
04/21/2013  07:10:00      -68.870      -76.836       -1.088       38.704       32.338       24.707     1497.980     1045.729      610.416        0.690        0.158      103.184       28.736        0.078      335.717        6.539      864.460
04/21/2013  07:11:00      -73.731      -77.382        1.423       34.268       36.400       22.757     1174.266     1324.956      517.901        0.722        0.151      106.884       24.567        0.053      335.635        6.401      864.501
04/21/2013  07:12:00      -74.878      -82.825        2.716       30.607       33.926       23.302      936.766     1150.943      542.997        0.755        0.132      111.655       16.482        0.022      335.700        6.508      864.528
04/21/2013  07:13:00      -84.772      -91.436       -5.155       30.003       26.536       21.962      900.150      704.153      482.308        0.883        0.104      124.687       19.759        0.025      335.659        6.439      864.546
04/21/2013  07:14:00      -63.708      -53.140       -4.219       33.354       16.402       16.008     1112.500      269.023      256.259        0.427        0.082       82.961       12.953        0.024      335.729        6.558      864.569
04/21/2013  07:15:00      -46.751      -93.965       -3.726       30.117       24.364       26.363      907.055      593.597      695.010        0.661        0.110      104.952       22.540        0.046      335.732        6.562      864.593
04/21/2013  07:16:00      -62.024      -76.468       -2.063       25.405       36.544       23.787      645.436     1335.460      565.814        0.612        0.127       98.459       14.344        0.021      335.718        6.538      864.595
04/21/2013  07:17:00      -64.300      -75.632       -4.375       33.414       25.905       20.012     1116.479      671.086      400.477        0.603        0.109       99.271       21.560        0.047      335.698        6.506      864.596
04/21/2013  07:18:00      -51.546     -102.124       -9.313       30.157       26.969       16.186      909.415      727.332      261.996        0.754        0.095      114.395       10.764        0.009      335.726        6.554      864.604
04/21/2013  07:19:00      -42.676      -61.449        2.068       43.949       43.194       24.800     1931.552     1865.732      615.046        0.501        0.221       74.815       19.527        0.068      335.808        6.688      864.622
04/21/2013  07:20:00     -106.670      -71.456       -1.843       49.258       33.170       30.755     2426.302     1100.242      945.894        1.048        0.224      128.392       25.749        0.040      335.765        6.616      864.629
04/21/2013  07:21:00      -98.605      -62.607        2.741       56.707       40.981       34.184     3215.707     1679.464     1168.536        0.986        0.303      116.802       35.116        0.090      335.769        6.624      864.656
04/21/2013  07:22:00      -93.291      -90.402       -0.221       42.287       33.295       23.596     1788.195     1108.572      556.766        1.016        0.173      129.906       20.708        0.025      335.782        6.647      864.687
04/21/2013  07:23:00      -83.258      -46.385        1.590       34.215       23.142       20.510     1170.668      535.541      420.672        0.561        0.106       95.307       22.592        0.056      335.869        6.790      864.714
04/21/2013  07:24:00      -73.693      -27.310       -3.760       18.842       16.854       17.763      355.010      284.045      315.511        0.357        0.048       78.591       13.717        0.030      335.996        7.002      864.739
04/21/2013  07:25:00      -73.041      -18.382      -12.872       14.300       12.050       11.505      204.485      145.200      132.363        0.316        0.024       75.319        3.923        0.003      335.979        6.972      864.766
04/21/2013  07:26:00      -82.070        6.451      -11.508       12.446       12.248        8.539      154.898      150.018       72.920        0.364        0.019       82.324        6.429        0.006      335.994        6.998      864.781
04/21/2013  07:27:00      -62.449       -7.271       -5.312       18.801       12.830       10.001      353.494      164.602      100.019        0.230        0.031       62.871        7.869        0.016      336.028        7.053      864.793
04/21/2013  07:28:00      -52.768        0.934        1.243       24.353       16.539       11.910      593.080      273.546      141.838        0.190        0.050       52.777       14.272        0.073      336.130        7.225      864.796
04/21/2013  07:29:00      -44.268       -7.752       -9.296       21.707       11.791        9.011      471.192      139.035       81.199        0.140        0.035       44.942        6.116        0.019      336.129        7.223      864.785
04/21/2013  07:30:00      -27.828        8.618        4.310       13.237       12.528       14.664      175.226      156.953      215.042        0.071        0.027       29.132        9.730        0.112      336.517        7.872      864.772
04/21/2013  07:31:00      -14.876       -7.991       -1.865       12.449        8.174       13.580      154.984       66.815      184.406        0.035        0.020       16.887       11.251        0.444      336.436        7.738      864.765
04/21/2013  07:32:00       -7.141        6.178       13.960       13.889       12.608       13.824      192.904      158.961      191.112        0.041        0.027        9.442       10.196        1.166      337.082        8.818      864.765
04/21/2013  07:33:00        7.856       35.099        2.698       19.867       21.142       20.591      394.709      446.985      424.002        0.128        0.063       35.967       13.240        0.136      336.661        8.112      864.790
04/21/2013  07:34:00       -3.357        9.279        8.608        8.955       14.091       18.807       80.190      198.543      353.699        0.040        0.032        9.868       11.593        1.380      337.069        8.796      864.811
04/21/2013  07:35:00      -20.508        2.393       11.505       11.948       10.571       10.920      142.750      111.741      119.253        0.047        0.019       20.647        7.570        0.134      336.884        8.484      864.838
04/21/2013  07:36:00      -30.314        1.562       -6.433       11.430        9.716        9.337      130.656       94.399       87.174        0.064        0.016       30.355        7.628        0.063      336.610        8.027      864.859
04/21/2013  07:37:00      -29.948       -1.770        6.885       10.502       11.451        7.985      110.288      131.130       63.757        0.063        0.015       30.001        4.066        0.018      336.666        8.122      864.887
04/21/2013  07:38:00      -38.737        7.093        0.360       10.975        9.403        9.046      120.454       88.424       81.835        0.092        0.015       39.381        2.783        0.005      336.653        8.100      864.916
04/21/2013  07:39:00      -20.944        1.369        6.106       14.863        5.801       12.707      220.913       33.653      161.461        0.045        0.021       20.989        9.261        0.195      336.979        8.645      864.938
04/21/2013  07:40:00      -38.963       15.337        3.723       14.816       10.929       10.164      219.525      119.445      103.303        0.110        0.022       41.873        6.386        0.023      336.741        8.249      864.940
04/21/2013  07:41:00      -16.908       -0.959       -2.109        7.846        5.679        7.239       61.560       32.250       52.406        0.022        0.007       16.935        4.952        0.085      336.877        8.474      864.926
04/21/2013  07:42:00      -11.180       -4.990       -1.070       10.247        5.208        6.363      105.003       27.122       40.489        0.016        0.009       12.243        3.743        0.093      337.013        8.702      864.899
04/21/2013  07:43:00      -20.101        4.988       -2.817        7.300        7.084        9.424       53.285       50.185       88.809        0.031        0.010       20.710        6.067        0.086      337.007        8.692      864.872
04/21/2013  07:44:00       -9.596        2.677       18.602       11.792       10.551       16.438      139.042      111.329      270.216        0.048        0.026        9.963        5.311        0.284      337.871       10.139      864.862
04/21/2013  07:45:00       -5.449        9.348       28.528        9.574       13.847       10.607       91.654      191.739      112.499        0.066        0.020       10.820        7.594        0.493      337.838       10.082      864.859
04/21/2013  07:46:00       -5.892        4.150       35.476        7.733       14.215       13.813       59.805      202.067      190.801        0.088        0.023        7.207       10.267        2.030      338.034       10.411      864.858
04/21/2013  07:47:00        0.821       30.424       46.422       16.016       25.263       11.602      256.505      638.197      134.618        0.206        0.051       30.435        7.295        0.057      337.653        9.772      864.868
04/21/2013  07:48:00       33.575       22.585       15.807       12.352       18.309       22.748      152.574      335.229      517.472        0.145        0.050       40.464       14.687        0.132      337.032        8.732      864.868
04/21/2013  07:49:00       12.758       25.946        4.016       17.905       12.151       21.247      320.585      147.649      451.446        0.089        0.046       28.913       16.474        0.325      337.270        9.128      864.860
04/21/2013  07:50:00      -11.227       24.084       46.510       16.342       28.962       18.256      267.059      838.780      333.268        0.215        0.072       26.572       10.378        0.153      337.959       10.286      864.851
04/21/2013  07:51:00       -0.493      -17.158       43.839       17.240       42.374       20.004      297.217     1795.532      400.175        0.235        0.125       17.166       22.169        1.668      337.726        9.895      864.865
04/21/2013  07:52:00       -4.100       43.787       69.812       17.121       34.281       18.329      293.116     1175.214      335.940        0.431        0.090       43.978       18.237        0.172      337.829       10.068      864.875
04/21/2013  07:53:00       13.086       46.036       56.292       29.637       39.001       30.443      878.325     1521.094      926.775        0.439        0.166       47.859       24.138        0.254      337.490        9.498      864.890
04/21/2013  07:54:00        2.476       45.960       82.564       20.682       40.868       24.990      427.745     1670.157      624.478        0.583        0.136       46.027       23.279        0.256      337.542        9.587      864.908
04/21/2013  07:55:00       39.465       78.280       78.894       41.380       44.607       26.271     1712.267     1989.740      690.150        0.915        0.220       87.666       25.276        0.083      337.211        9.032      864.922
04/21/2013  07:56:00       45.448       58.498       49.627       54.586       31.378       35.457     2979.579      984.565     1257.185        0.658        0.261       74.078       32.256        0.190      337.303        9.188      864.944
04/21/2013  07:57:00       42.107       60.341       48.513       31.116       39.829       33.606      968.207     1586.377     1129.350        0.573        0.184       73.580       22.156        0.091      337.443        9.420      864.950
04/21/2013  07:58:00       93.389       51.173       29.035       40.172       32.193       40.444     1613.807     1036.417     1635.681        0.823        0.214      106.490       25.416        0.057      337.251        9.097      864.957
04/21/2013  07:59:00      120.072       86.700       42.714       40.810       38.945       42.212     1665.484     1516.702     1781.863        1.436        0.248      148.102       25.668        0.030      337.139        8.911      864.967
04/21/2013  08:00:00      103.853       61.270       39.938       63.720       33.022       38.353     4060.189     1090.439     1470.955        1.138        0.331      120.580       31.903        0.070      337.136        8.906      864.972
04/21/2013  08:01:00       90.050       71.964       45.941       40.003       33.690       40.743     1600.270     1134.997     1659.959        0.990        0.220      115.273       25.828        0.050      337.195        9.005      864.973
04/21/2013  08:02:00       71.116       53.652       34.518       42.564       33.443       33.715     1811.679     1118.412     1136.709        0.660        0.203       89.084       18.432        0.043      337.425        9.391      864.964
04/21/2013  08:03:00       88.615       98.398       73.332       51.543       41.166       43.591     2656.671     1694.671     1900.207        1.458        0.313      132.419       35.719        0.073      337.324        9.222      864.953
04/21/2013  08:04:00       66.981       85.537       74.178       33.761       32.509       26.344     1139.792     1056.855      693.995        1.010        0.145      108.642       20.644        0.036      337.194        9.003      864.966
04/21/2013  08:05:00       55.672       -6.220       47.473       43.122       90.699       39.843     1859.490     8226.374     1587.490        0.853        0.584       56.019       48.787        0.758      337.331        9.233      864.977
04/21/2013  08:06:00       34.623      -16.139       44.346       29.555       78.800       33.974      873.502     6209.409     1154.239        0.583        0.412       38.200       37.734        0.976      337.644        9.758      864.982
04/21/2013  08:07:00       37.678       37.924       44.017       34.724       29.508       24.539     1205.783      870.718      602.144        0.374        0.134       53.459       10.826        0.041      337.684        9.823      864.975
04/21/2013  08:08:00       30.460       50.828       79.597       37.894       35.552       31.181     1435.982     1263.915      972.244        0.676        0.184       59.256       19.668        0.110      337.642        9.755      864.960
04/21/2013  08:09:00       10.877       37.048       58.680       30.593       46.094       35.420      935.945     2124.632     1254.600        0.462        0.216       38.612       35.700        0.855      337.665        9.793      864.929
04/21/2013  08:10:00       15.948       -8.427       44.441       43.627       59.606       41.396     1903.335     3552.897     1713.604        0.473        0.358       18.037       29.757        2.722      337.984       10.327      864.901
04/21/2013  08:11:00       75.560      -55.230       -2.776       53.746       84.697       48.779     2888.640     7173.554     2379.348        1.060        0.622       93.593       52.302        0.312      337.731        9.904      864.897
04/21/2013  08:12:00        8.709       64.070       86.909       38.680       64.220       39.203     1496.169     4124.197     1536.885        0.944        0.358       64.659       46.175        0.510      337.872       10.140      864.892
04/21/2013  08:13:00       79.607       42.911       34.947       50.507       41.643       38.204     2550.958     1734.110     1459.516        0.757        0.287       90.436       29.060        0.103      337.530        9.568      864.900
04/21/2013  08:14:00       97.574       52.862       14.802       48.042       28.744       30.688     2307.989      826.246      941.736        0.830        0.204      110.973       26.832        0.058      337.476        9.476      864.882
04/21/2013  08:15:00       41.926      -42.147       12.794       49.216       43.945       39.218     2422.194     1931.135     1538.040        0.479        0.295       59.449       36.499        0.377      337.899       10.184      864.873
04/21/2013  08:16:00       47.613      -49.226        9.175       60.425       73.966       55.517     3651.135     5470.922     3082.176        0.849        0.610       68.485       36.415        0.283      337.894       10.177      864.864
04/21/2013  08:17:00       34.069      -59.819        8.012       60.746       52.278       38.048     3690.120     2733.007     1447.680        0.634        0.394       68.841       36.476        0.281      337.920       10.220      864.884
04/21/2013  08:18:00       36.492       51.491       50.247       35.478       38.326       33.697     1258.720     1468.914     1135.469        0.518        0.193       63.111       25.115        0.158      337.769        9.966      864.884
04/21/2013  08:19:00       37.580       33.291       26.936       39.008       34.632       26.675     1521.598     1199.367      711.572        0.334        0.172       50.205       22.674        0.204      337.866       10.129      864.889
04/21/2013  08:20:00       22.202      -65.764       15.203       51.707       55.349       43.335     2673.565     3063.499     1877.911        0.633        0.381       69.411       39.107        0.317      338.057       10.450      864.891
04/21/2013  08:21:00       49.219      -44.374       25.725       47.525       73.773       45.099     2258.671     5442.476     2033.894        0.739        0.487       66.269       49.382        0.555      338.242       10.761      864.889
04/21/2013  08:22:00       36.876       44.013       64.037       46.603       63.633       43.461     2171.883     4049.200     1888.863        0.775        0.405       57.420       44.870        0.611      338.020       10.387      864.894
04/21/2013  08:23:00       15.217       57.094       80.853       32.962       53.486       27.051     1086.483     2860.727      731.768        0.735        0.234       59.087       30.082        0.259      338.277       10.819      864.885
04/21/2013  08:24:00        6.560       51.845       83.695       28.497       35.943       24.936      812.096     1291.884      621.826        0.623        0.136       52.259       21.617        0.171      338.179       10.655      864.861
04/21/2013  08:25:00        9.926       -9.268       38.115       26.278       40.479       33.039      690.557     1638.529     1091.602        0.253        0.171       13.580       32.114        5.592      338.440       11.093      864.840
04/21/2013  08:26:00       -2.039       -0.213       53.826       28.955       35.951       29.165      838.395     1292.443      850.609        0.294        0.149        2.050       21.855      113.606      338.498       11.191      864.827
04/21/2013  08:27:00       -3.961       32.137       75.912       18.081       61.922       30.469      326.911     3834.291      928.346        0.595        0.254       32.380       34.146        1.112      338.398       11.022      864.803
04/21/2013  08:28:00       45.470       50.256       45.739       23.802       34.274       24.970      566.557     1174.686      623.506        0.452        0.118       67.773       24.183        0.127      337.813       10.041      864.793
04/21/2013  08:29:00       23.726        4.717       20.853       37.355       35.490       28.853     1395.378     1259.548      832.502        0.225        0.174       24.190       20.757        0.736      338.167       10.634      864.775
04/21/2013  08:30:00       62.832       51.488       44.215       35.969       37.030       33.038     1293.752     1371.234     1091.523        0.615        0.188       81.234       33.529        0.170      337.947       10.266      864.775
04/21/2013  08:31:00       33.932       50.103       42.450       40.032       23.906       24.768     1602.525      571.492      613.435        0.413        0.139       60.512       19.836        0.107      338.037       10.416      864.766
04/21/2013  08:32:00       18.981       -7.377       27.704       26.462       74.867       48.974      700.222     5605.133     2398.456        0.494        0.435       20.364       56.467        7.689      338.294       10.849      864.760
04/21/2013  08:33:00       21.742      -24.578       13.403       32.626       45.553       26.414     1064.483     2075.074      697.723        0.255        0.192       32.814       13.790        0.177      338.414       11.049      864.768
04/21/2013  08:34:00       -1.472       11.398       39.094       17.455       52.302       28.051      304.674     2735.461      786.839        0.274        0.191       11.493       31.856        7.684      338.609       11.377      864.780
04/21/2013  08:35:00        7.079       24.239       63.568       22.879       31.646       15.136      523.431     1001.500      229.091        0.322        0.088       25.252       14.584        0.334      338.535       11.253      864.787
04/21/2013  08:36:00       29.726      -28.764       36.408       46.712       51.385       37.630     2181.969     2640.415     1415.983        0.464        0.312       41.364       23.843        0.332      338.697       11.526      864.790
04/21/2013  08:37:00       10.014       45.079       74.475       35.143       43.722       30.587     1235.018     1911.572      935.575        0.588        0.204       46.178       25.108        0.296      338.706       11.541      864.791
04/21/2013  08:38:00       37.072       73.853       55.745       39.612       35.723       48.108     1569.076     1276.135     2314.389        0.755        0.258       82.635       32.578        0.155      338.119       10.554      864.791
04/21/2013  08:39:00       44.176       54.506       41.796       26.027       28.720       23.250      677.428      824.862      540.568        0.436        0.102       70.159       18.362        0.068      338.339       10.924      864.775
04/21/2013  08:40:00       38.544      -10.971       -0.591       29.139       75.541       24.777      849.087     5706.461      613.905        0.439        0.358       40.075       20.635        0.265      338.433       11.082      864.767
04/21/2013  08:41:00       51.475      -52.012       17.909       33.690       81.166       41.201     1135.009     6587.853     1697.541        0.755        0.471       73.177       47.446        0.420      338.411       11.044      864.759
04/21/2013  08:42:00      -11.029       -9.513       -2.992       21.766       37.556       25.710      473.762     1410.426      661.027        0.138        0.127       14.565       25.721        3.118      338.286       10.835      864.757
04/21/2013  08:43:00      -25.846       16.786       15.008       31.031       22.641       20.777      962.892      512.628      431.702        0.154        0.095       30.819       20.471        0.441      338.579       11.327      864.751
04/21/2013  08:44:00      -23.059       19.008      -11.317       18.373       21.949       21.774      337.551      481.778      474.101        0.116        0.065       29.883       11.310        0.143      338.472       11.147      864.757
04/21/2013  08:45:00       -1.285        4.145       27.819       16.691       22.759       15.080      278.587      517.966      227.394        0.091        0.051        4.340       15.224       12.304      339.218       12.400      864.758
04/21/2013  08:46:00        2.174        0.802       13.702       16.117       29.092       24.682      259.753      846.340      609.194        0.095        0.086        2.317       18.351       62.703      339.395       12.700      864.765
04/21/2013  08:47:00       -1.935       15.008       31.219       17.528       30.774       22.273      307.214      947.009      496.074        0.148        0.088       15.133        9.353        0.382      339.605       13.055      864.775
04/21/2013  08:48:00       16.314       34.516       41.722       35.116       21.845       25.807     1233.142      477.188      666.021        0.279        0.119       38.177       16.649        0.190      339.289       12.520      864.768
04/21/2013  08:49:00       64.083       73.058        6.163       28.522       25.603       25.376      813.493      655.503      643.949        0.580        0.106       97.181       18.358        0.036      338.478       11.155      864.769
04/21/2013  08:50:00       22.499        3.569        4.232       44.226       50.081       33.810     1955.904     2508.131     1143.129        0.307        0.280       22.780       24.660        1.172      338.819       11.729      864.773
04/21/2013  08:51:00       21.545       34.553       50.188       30.985       40.473       26.123      960.041     1638.067      682.421        0.373        0.164       40.720       19.207        0.222      339.130       12.253      864.771
04/21/2013  08:52:00       -7.038       22.388       70.006       15.800       32.444       18.408      249.631     1052.616      338.855        0.355        0.082       23.468       17.271        0.542      339.377       12.669      864.778
04/21/2013  08:53:00       36.945       39.713       38.596       67.647       59.344       28.162     4576.153     3521.731      793.084        0.666        0.445       54.241       16.529        0.093      338.833       11.753      864.791
04/21/2013  08:54:00       25.250       -0.840       50.335       36.663       45.236       19.832     1344.170     2046.311      393.298        0.348        0.189       25.264       18.349        0.528      339.264       12.480      864.798
04/21/2013  08:55:00       28.053       47.077       54.074       41.175       45.318       28.596     1695.345     2053.688      817.757        0.525        0.228       54.802       25.453        0.216      339.081       12.172      864.804
04/21/2013  08:56:00       40.800       57.374       65.099       48.928       38.535       30.196     2393.948     1484.932      911.796        0.699        0.240       70.402       26.388        0.140      338.919       11.898      864.807
04/21/2013  08:57:00       94.402       72.341       27.631       61.572       40.538       31.449     3791.158     1643.354      989.009        1.066        0.321      118.933       17.696        0.022      338.683       11.500      864.806
04/21/2013  08:58:00       61.264       66.128       32.809       52.923       45.029       32.476     2800.797     2027.629     1054.695        0.754        0.294       90.145       16.108        0.032      338.855       11.791      864.814
04/21/2013  08:59:00       61.329      -96.840       -2.572       61.262       76.892       30.572     3753.091     5912.312      934.664        1.187        0.530      114.626       29.725        0.067      338.787       11.675      864.814
04/21/2013  09:00:00       35.003      -76.978       20.759       37.776       74.578       36.172     1427.035     5561.831     1308.441        0.794        0.415       84.563       37.451        0.196      338.787       11.676      864.816
04/21/2013  09:01:00       81.427      -95.944        3.474       61.547       60.016       47.609     3788.086     3601.979     2266.586        1.275        0.483      125.839       43.724        0.121      338.637       11.423      864.814
04/21/2013  09:02:00       56.211      -71.308        1.899       54.266       50.397       52.150     2944.756     2539.882     2719.666        0.822        0.410       90.799       43.038        0.225      339.044       12.107      864.820
04/21/2013  09:03:00       51.001      -60.948       -5.392       47.474       58.799       48.791     2253.797     3457.313     2380.588        0.722        0.405       79.472       48.812        0.377      338.983       12.006      864.828
04/21/2013  09:04:00       20.468       -3.054       24.874       45.533       43.885       32.074     2073.284     1925.934     1028.715        0.304        0.251       20.695       28.275        1.867      339.154       12.294      864.839
04/21/2013  09:05:00       56.313       61.296       47.284       33.200       35.089       29.091     1102.224     1231.212      846.315        0.617        0.159       83.236       15.441        0.034      338.823       11.736      864.843
04/21/2013  09:06:00       40.017       45.546       47.824       42.515       49.192       29.042     1807.540     2419.891      843.447        0.552        0.254       60.628       10.796        0.032      339.174       12.327      864.845
04/21/2013  09:07:00       57.446       56.073       25.038       47.231       47.157       34.507     2230.812     2223.808     1190.699        0.636        0.282       80.276       24.483        0.093      339.426       12.750      864.858
04/21/2013  09:08:00      116.069       84.777        8.349       49.159       39.560       38.063     2416.639     1565.031     1448.826        1.308        0.272      143.733       13.322        0.009      339.107       12.213      864.868
04/21/2013  09:09:00      130.071       42.345       18.914       49.935       51.125       37.506     2493.469     2613.779     1406.666        1.279        0.326      136.790       13.602        0.010      339.151       12.287      864.882
04/21/2013  09:10:00      109.200       38.410       10.058       42.938       50.485       39.665     1843.702     2548.764     1573.333        0.973        0.298      115.759       18.635        0.026      339.196       12.364      864.885
04/21/2013  09:11:00      115.759       76.002       17.717       53.908       32.464       36.729     2906.050     1053.884     1348.991        1.240        0.265      138.479       19.537        0.020      339.001       12.036      864.894
04/21/2013  09:12:00      113.359       92.330       17.450       40.538       33.271       32.108     1643.361     1106.972     1030.942        1.273        0.189      146.202       19.848        0.018      338.852       11.786      864.893
04/21/2013  09:13:00       73.779       55.368        2.353       38.032       38.529       30.262     1446.466     1484.487      915.814        0.618        0.192       92.244       14.148        0.024      339.072       12.154      864.877
04/21/2013  09:14:00       36.617       43.888       44.336       37.647       30.780       27.180     1417.334      947.406      738.735        0.417        0.155       57.157       18.988        0.110      339.374       12.663      864.886
04/21/2013  09:15:00       19.767       51.256       20.059       36.768       37.636       34.343     1351.878     1416.453     1179.461        0.368        0.197       54.935       33.723        0.377      339.758       13.310      864.897
04/21/2013  09:16:00       30.860       32.846       17.997       44.890       39.758       35.897     2015.155     1580.735     1288.583        0.362        0.244       45.069       23.709        0.277      339.645       13.119      864.908
04/21/2013  09:17:00       58.691       58.310       90.337       72.196       76.236       56.009     5212.226     5811.950     3136.952        1.458        0.708       82.732       55.599        0.452      339.329       12.589      864.916
04/21/2013  09:18:00      121.914      113.122       73.900       74.452       61.884       58.343     5543.163     3829.631     3403.866        2.295        0.639      166.312       39.924        0.058      338.894       11.855      864.920
04/21/2013  09:19:00      109.953      107.673       60.639       86.012       53.052       60.768     7398.009     2814.485     3692.755        2.063        0.695      153.893       40.465        0.069      338.954       11.954      864.914
04/21/2013  09:20:00       99.709      106.978       87.422       99.826       53.171       44.716     9965.142     2827.154     1999.564        2.191        0.740      146.240       45.373        0.096      339.096       12.195      864.906
04/21/2013  09:21:00       48.731       52.467       24.297       64.272       48.916       25.687     4130.876     2392.805      659.822        0.645        0.359       71.607       25.811        0.130      338.975       11.992      864.917
04/21/2013  09:22:00       26.656       28.578       33.003       34.552       27.138       27.623     1193.849      736.496      763.054        0.265        0.135       39.080       20.192        0.267      339.765       13.324      864.912
04/21/2013  09:23:00       67.866       50.199       -8.769       43.586       40.942       37.281     1899.776     1676.215     1389.836        0.608        0.248       84.414       25.984        0.095      339.354       12.632      864.908
04/21/2013  09:24:00       -0.086       -1.720      -11.629       35.045       54.572       30.912     1228.133     2978.153      955.580        0.265        0.258        1.722       18.453      114.835      339.028       12.082      864.902
04/21/2013  09:25:00      -46.428      -46.864      -13.584       35.621       17.306       25.316     1268.876      299.499      640.918        0.337        0.110       65.968       18.621        0.080      338.832       11.752      864.874
04/21/2013  09:26:00       -6.839      -15.675       21.473       40.288       23.375       19.693     1623.122      546.411      387.821        0.166        0.128       17.102       24.739        2.092      339.968       13.667      864.845
04/21/2013  09:27:00      -26.068        9.958       21.727       20.611       20.315       25.358      424.825      412.703      643.021        0.137        0.074       27.905       15.437        0.306      339.894       13.541      864.828
04/21/2013  09:28:00      -53.759       -4.966       10.060       43.694       28.937       30.487     1909.141      837.370      929.435        0.335        0.184       53.988       20.421        0.143      339.317       12.567      864.809
04/21/2013  09:29:00       15.832       33.960       50.813       40.503       62.762       50.463     1640.473     3939.115     2546.545        0.605        0.406       37.469       49.805        1.767      339.883       13.522      864.787
04/21/2013  09:30:00        4.633       75.308      106.484       39.408       39.846       27.933     1552.999     1587.683      780.240        1.048        0.196       75.450       27.530        0.133      339.619       13.076      864.777
04/21/2013  09:31:00       27.082      -66.687       20.810       48.207       84.917       58.521     2323.910     7210.874     3424.756        0.928        0.648       71.976       63.074        0.768      339.513       12.899      864.775
04/21/2013  09:32:00       19.697      -45.425        6.229       56.517       52.507       53.511     3194.128     2756.960     2863.432        0.565        0.441       49.512       40.797        0.679      339.754       13.305      864.771
04/21/2013  09:33:00       46.876      -71.590        2.032       42.925       82.461       35.356     1842.549     6799.835     1250.038        0.861        0.495       85.571       42.685        0.249      339.623       13.084      864.783
04/21/2013  09:34:00       39.525      -97.543      -21.716       43.404       62.302       33.468     1883.895     3881.517     1120.079        0.922        0.344      105.246       16.091        0.023      339.450       12.792      864.784
04/21/2013  09:35:00       48.602      -63.291       14.016       48.136       87.554       54.520     2317.032     7665.686     2972.455        0.976        0.648       79.800       53.418        0.448      339.731       13.266      864.790
04/21/2013  09:36:00       44.118       50.996       82.907       41.529       42.627       25.324     1724.648     1817.065      641.311        0.780        0.209       67.432       19.424        0.083      339.500       12.877      864.801
04/21/2013  09:37:00       44.580       56.290       47.040       33.442       24.363       17.136     1118.380      593.553      293.656        0.469        0.100       71.805       18.779        0.068      339.267       12.484      864.810
04/21/2013  09:38:00      -29.732      -76.755       -2.491       45.159       59.607       33.346     2039.297     3553.041     1111.979        0.674        0.335       82.312       26.162        0.101      339.290       12.522      864.835
04/21/2013  09:39:00      -56.968      -34.052       -5.011       45.014       27.333       24.129     2026.303      747.084      582.191        0.389        0.168       66.369       17.789        0.072      339.265       12.479      864.836
04/21/2013  09:40:00     -117.853      -36.350      -40.378       25.656       23.572       19.200      658.210      555.617      368.624        0.921        0.079      123.331       11.931        0.009      339.178       12.331      864.850
04/21/2013  09:41:00      -59.383      -13.499        2.198       19.701       25.685       31.512      388.114      659.731      993.016        0.288        0.102       60.898       16.741        0.076      339.377       12.667      864.855
04/21/2013  09:42:00      -39.691       26.310        7.335       38.841       31.934       29.696     1508.595     1019.752      881.833        0.287        0.171       47.619       25.514        0.287      339.853       13.471      864.852
04/21/2013  09:43:00        0.359       33.036       18.438       39.160       32.845       42.108     1533.500     1078.779     1773.088        0.291        0.219       33.038       37.153        1.265      339.876       13.509      864.847
04/21/2013  09:44:00      -32.573      -23.269      -13.690       32.546       36.242       28.095     1059.238     1313.453      789.330        0.248        0.158       40.031       24.432        0.372      339.478       12.840      864.848
04/21/2013  09:45:00      -19.465        2.253       12.303       18.354       10.905       17.335      336.870      118.925      300.509        0.065        0.038       19.595        7.805        0.159      340.155       13.982      864.841
04/21/2013  09:46:00      -54.744      -37.269       -2.535       19.412       32.088       15.891      376.839     1029.664      252.524        0.303        0.083       66.226       10.276        0.024      339.661       13.147      864.834
04/21/2013  09:47:00      -73.504      -78.051       -2.902       24.173       38.582       20.703      584.317     1488.579      428.625        0.700        0.125      107.214       12.902        0.014      339.501       12.878      864.827
04/21/2013  09:48:00      -59.989      -23.846       -5.732       24.344       21.233       19.635      592.613      450.854      385.528        0.281        0.071       64.554        7.655        0.014      339.692       13.200      864.834
04/21/2013  09:49:00      -41.500       -5.520        2.157       27.273       30.076       15.559      743.837      904.548      242.077        0.182        0.095       41.865       10.362        0.061      339.931       13.603      864.852
04/21/2013  09:50:00      -43.269      -19.177        0.584       37.664       33.779       26.925     1418.601     1141.003      724.978        0.276        0.164       47.328       21.688        0.210      339.920       13.585      864.849
04/21/2013  09:51:00      -52.119      -89.722       -5.716       27.120       34.165       15.799      735.476     1167.255      249.604        0.648        0.108      103.761       13.570        0.017      339.554       12.966      864.864
04/21/2013  09:52:00      -64.338      -47.053       -9.230       22.106       23.683       17.850      488.658      560.866      318.619        0.390        0.068       79.708        5.368        0.005      339.561       12.978      864.870
04/21/2013  09:53:00      -53.454      -46.552       -1.591       25.881       33.589       16.258      669.819     1128.200      264.322        0.354        0.103       70.883       12.720        0.032      339.596       13.037      864.879
04/21/2013  09:54:00      -62.627      -65.619       -8.222       38.043       38.839       16.658     1447.240     1508.464      277.490        0.576        0.162       90.708       18.036        0.040      339.535       12.934      864.887
04/21/2013  09:55:00      -42.514       12.212       13.376       34.108       22.018       18.642     1163.376      484.808      347.517        0.207        0.100       44.233       15.437        0.122      340.261       14.162      864.893
04/21/2013  09:56:00      -24.930       14.649       40.083       19.801       19.566       17.944      392.091      382.813      321.974        0.177        0.055       28.915       12.133        0.176      340.631       14.785      864.896
04/21/2013  09:57:00        6.269        2.610       60.266       31.707       65.356       37.296     1005.335     4271.383     1390.971        0.517        0.333        6.790       36.450       28.817      340.680       14.868      864.879
04/21/2013  09:58:00        7.405      -79.841        5.844       74.117      103.796       63.272     5493.372    10773.569     4003.387        1.336        1.014       80.184       73.604        0.843      340.387       14.371      864.864
04/21/2013  09:59:00       84.693      -87.283       13.790       59.161      101.585       64.276     3500.043    10319.585     4131.368        1.646        0.898      121.619       78.915        0.421      340.103       13.891      864.856
04/21/2013  10:00:00        6.606      -76.284       27.866       32.457       68.714       52.868     1053.436     4721.573     2795.042        0.760        0.429       76.569       40.162        0.275      340.231       14.111      864.836
04/21/2013  10:01:00       34.348       63.521       81.711       48.032       75.039       49.602     2307.044     5630.889     2460.352        1.114        0.520       72.213       48.418        0.450      340.451       14.481      864.815
04/21/2013  10:02:00       57.579       62.786       31.449       50.097       49.223       59.826     2509.684     2422.929     3579.167        0.838        0.426       85.190       43.902        0.266      339.886       13.527      864.843
04/21/2013  10:03:00       30.050       58.901       58.249       37.948       37.108       27.842     1440.060     1377.024      775.188        0.568        0.180       66.124       17.122        0.067      340.390       14.378      864.841
04/21/2013  10:04:00       41.115       25.522       34.582       40.032       46.063       28.804     1602.563     2121.763      829.671        0.405        0.228       48.392       25.673        0.281      340.269       14.174      864.836
04/21/2013  10:05:00        9.653      -18.901       22.894       24.558       52.434       48.242      603.115     2749.312     2327.334        0.333        0.284       21.224       38.870        3.354      340.300       14.228      864.849
04/21/2013  10:06:00       -9.424       42.149        5.631       37.428       23.413       29.902     1400.889      548.190      894.150        0.237        0.142       43.190       14.065        0.106      340.430       14.446      864.853
04/21/2013  10:07:00      -75.078       14.527       -1.513       29.825       36.275       17.813      889.521     1315.902      317.290        0.419        0.126       76.471        8.142        0.011      339.936       13.611      864.848
04/21/2013  10:08:00      -68.433      -98.568       -5.232       53.209       44.521       24.610     2831.196     1982.125      605.672        0.992        0.271      119.994       25.074        0.044      339.895       13.542      864.858
04/21/2013  10:09:00      -64.006      -38.261       13.718       65.644       34.694       29.384     4309.180     1203.692      863.399        0.606        0.319       74.570       30.261        0.165      340.307       14.239      864.841
04/21/2013  10:10:00      -23.094      -34.066       18.397       39.669       34.981       23.968     1573.669     1223.641      574.467        0.270        0.169       41.156       17.836        0.188      340.828       15.120      864.846
04/21/2013  10:11:00      -91.050      -77.456       -7.562       36.126       31.347       20.112     1305.070      982.652      404.493        0.852        0.135      119.539       18.303        0.023      340.063       13.826      864.852
04/21/2013  10:12:00      -46.648      -25.970        1.642       31.041       28.986       20.936      963.536      840.205      438.314        0.255        0.112       53.390       19.123        0.128      340.256       14.150      864.851
04/21/2013  10:13:00       13.019      -12.512       16.739       57.462       43.161       44.266     3301.889     1862.859     1959.465        0.386        0.356       18.057       34.769        3.708      340.812       15.090      864.836
04/21/2013  10:14:00       58.382      -83.160       10.412       53.250       91.807       53.737     2835.519     8428.495     2887.627        1.229        0.708      101.607       61.767        0.370      340.599       14.731      864.824
04/21/2013  10:15:00       87.813      -91.743      -13.720       52.014       98.490       55.025     2705.481     9700.368     3027.705        1.587        0.772      126.996       53.293        0.176      340.765       15.010      864.824
04/21/2013  10:16:00       16.406      -18.959       21.967       51.546       68.715       48.671     2657.003     4721.784     2368.894        0.543        0.487       25.071       44.179        3.105      340.477       14.524      864.824
04/21/2013  10:17:00       83.866      -33.480       43.336       45.586       87.958       63.432     2078.063     7736.650     4023.576        1.193        0.692       90.301       61.444        0.463      340.759       15.003      864.822
04/21/2013  10:18:00       31.242      104.817       89.966       53.014       69.711       47.748     2810.435     4859.610     2279.843        1.500        0.497      109.374       48.314        0.195      340.621       14.768      864.820
04/21/2013  10:19:00       75.615       59.018       36.190       50.553       40.000       27.071     2555.573     1600.026      732.831        0.770        0.244       95.921       23.287        0.059      340.478       14.528      864.831
04/21/2013  10:20:00      -19.202       42.797       -3.867       56.243       49.839       39.218     3163.251     2483.908     1538.013        0.470        0.359       46.908       36.431        0.603      340.594       14.724      864.838
04/21/2013  10:21:00       30.973       37.324       33.186       42.943       30.163       31.901     1844.115      909.792     1017.651        0.361        0.189       48.502       28.413        0.343      341.201       15.750      864.833
04/21/2013  10:22:00       59.799       68.021       38.082       56.179       45.317       42.239     3156.076     2053.650     1784.094        0.832        0.350       90.569       36.165        0.159      341.348       15.999      864.821
04/21/2013  10:23:00       31.511       39.734       39.474       39.209       41.693       41.682     1537.325     1738.289     1737.350        0.457        0.251       50.713       21.640        0.182      341.479       16.221      864.817
04/21/2013  10:24:00       19.850       50.820       69.979       35.118       40.811       31.796     1233.298     1665.510     1010.967        0.589        0.195       54.560       29.696        0.296      341.158       15.677      864.810
04/21/2013  10:25:00       33.022       44.373       55.137       44.115       56.865       35.547     1946.163     3233.668     1263.593        0.627        0.322       55.312       39.526        0.511      341.108       15.591      864.804
04/21/2013  10:26:00       36.112       49.287       55.734       36.306       43.952       45.777     1318.123     1931.798     2095.529        0.609        0.267       61.101       39.795        0.424      340.832       15.125      864.793
04/21/2013  10:27:00       25.965       88.516      103.741       43.476       53.156       51.668     1890.120     2825.592     2669.611        1.333        0.369       92.246       38.661        0.176      340.720       14.935      864.776
04/21/2013  10:28:00       13.487       90.474      106.473       41.532       48.846       30.677     1724.891     2385.914      941.086        1.238        0.253       91.473       24.473        0.072      340.976       15.369      864.766
04/21/2013  10:29:00      -12.206       22.255       67.807       32.948       59.576       33.710     1085.595     3549.338     1136.337        0.551        0.289       25.382       32.647        1.654      341.213       15.770      864.758
04/21/2013  10:30:00       44.500      -42.307       12.737       47.912       71.890       43.738     2295.540     5168.195     1913.045        0.665        0.469       61.402       39.601        0.416      340.884       15.214      864.763
04/21/2013  10:31:00       44.408       51.853       15.832       36.971       47.059       35.163     1366.833     2214.592     1236.404        0.486        0.241       68.270       26.786        0.154      340.981       15.377      864.767
04/21/2013  10:32:00        5.235      -40.482       18.373       41.452       77.780       24.164     1718.308     6049.797      583.903        0.518        0.418       40.819       30.696        0.566      341.292       15.903      864.774
04/21/2013  10:33:00       75.896      -55.904        1.993       56.528       92.493       50.268     3195.394     8555.026     2526.876        1.158        0.714       94.263       60.741        0.415      340.937       15.303      864.771
04/21/2013  10:34:00       33.872      -28.857       27.115       40.035       43.106       38.487     1602.801     1858.157     1481.279        0.383        0.247       44.497       30.216        0.461      341.255       15.841      864.765
04/21/2013  10:35:00      -38.405      -50.644        3.136       30.232       43.282       28.193      913.998     1873.305      794.837        0.382        0.179       63.559       23.629        0.138      341.148       15.660      864.760
04/21/2013  10:36:00      -51.565      -10.816       -3.566       38.627       42.144       26.693     1492.031     1776.135      712.531        0.338        0.199       52.687        7.064        0.018      341.274       15.873      864.724
04/21/2013  10:37:00      -22.534      -51.198        4.412       28.107       38.238       28.200      789.993     1462.114      795.250        0.310        0.152       55.937       15.113        0.073      341.167       15.692      864.697
04/21/2013  10:38:00      -27.558      -25.919       10.554       27.809       22.574       23.598      773.326      509.564      556.876        0.169        0.092       37.831       10.621        0.079      341.198       15.746      864.667
04/21/2013  10:39:00        0.672       27.555       55.317       34.572       57.509       34.228     1195.228     3307.313     1171.571        0.475        0.284       27.564       35.248        1.635      341.678       16.558      864.636
04/21/2013  10:40:00       19.520       26.110       55.130       43.136       38.404       29.119     1860.731     1474.881      847.909        0.414        0.209       32.600       23.807        0.533      341.449       16.169      864.614
04/21/2013  10:41:00       27.730      -51.462        4.997       37.589       49.108       29.681     1412.900     2411.572      880.990        0.407        0.235       58.458       21.241        0.132      340.927       15.285      864.596
04/21/2013  10:42:00       33.426       32.792       18.574       44.170       34.220       22.915     1950.993     1171.011      525.106        0.309        0.182       46.826       11.969        0.065      341.539       16.322      864.592
04/21/2013  10:43:00       26.152       44.705       27.652       58.363       41.513       35.831     3406.225     1723.354     1283.891        0.493        0.321       51.792       24.313        0.220      341.864       16.874      864.585
04/21/2013  10:44:00      104.259       72.555       38.457       57.351       49.748       41.651     3289.116     2474.873     1734.768        1.255        0.375      127.020       29.055        0.052      341.304       15.922      864.574
04/21/2013  10:45:00       23.050      -34.121       15.473       51.109       88.566       44.276     2612.179     7843.863     1960.373        0.717        0.621       41.177       32.705        0.631      341.440       16.154      864.557
04/21/2013  10:46:00       82.158       10.202       53.784       54.494       68.708       58.936     2969.590     4720.851     3473.457        1.045        0.558       82.789       50.336        0.370      341.527       16.303      864.541
04/21/2013  10:47:00       41.886      -53.303       11.464       49.172       84.427       59.439     2417.872     7127.956     3532.989        0.890        0.654       67.791       58.782        0.752      341.456       16.180      864.533
04/21/2013  10:48:00       91.678     -114.795       -5.957       53.931       89.731       50.302     2908.561     8051.600     2530.245        1.755        0.675      146.911       60.170        0.168      341.090       15.561      864.520
04/21/2013  10:49:00       37.079      -57.137        5.534       49.042       79.644       48.546     2405.112     6343.114     2356.695        0.789        0.555       68.114       53.408        0.615      341.191       15.733      864.522
04/21/2013  10:50:00       56.495      -33.078       26.874       53.663       58.813       43.799     2879.723     3458.916     1918.347        0.663        0.413       65.466       36.890        0.318      341.262       15.852      864.519
04/21/2013  10:51:00       76.746      -57.456        7.001       69.535       35.340       31.445     4835.075     1248.890      988.796        0.816        0.354       95.870       29.073        0.092      340.925       15.281      864.523
04/21/2013  10:52:00       43.582       23.198       46.922       66.787       80.814       50.068     4460.447     6530.950     2506.783        0.907        0.675       49.371       52.191        1.117      341.375       16.043      864.509
04/21/2013  10:53:00       57.613      -27.309       23.218       80.937      102.888       53.718     6550.722    10585.972     2885.635        1.231        1.001       63.758       68.475        1.153      341.531       16.309      864.494
04/21/2013  10:54:00       71.639     -100.171       -8.129       64.145       80.515       41.990     4114.527     6482.650     1763.131        1.379        0.618      123.152       47.482        0.149      341.465       16.197      864.499
04/21/2013  10:55:00       40.699      -45.789       18.716       49.826       64.693       45.280     2482.655     4185.201     2050.295        0.641        0.436       61.262       38.328        0.391      341.442       16.158      864.513
04/21/2013  10:56:00       10.852       -1.825      -13.635       22.517       68.829       20.056      507.010     4737.432      402.230        0.298        0.282       11.004       12.234        1.236      341.355       16.011      864.511
04/21/2013  10:57:00       12.518       15.214       30.819       36.277       71.232       41.143     1316.001     5074.044     1692.772        0.471        0.404       19.702       43.562        4.889      341.459       16.186      864.515
04/21/2013  10:58:00       12.933       10.191       65.731       62.197      104.653       57.415     3868.430    10952.248     3296.505        1.135        0.906       16.466       61.441       13.924      341.626       16.470      864.521
04/21/2013  10:59:00       26.937        4.375       75.948       59.623       93.341       59.325     3554.862     8712.605     3519.430        1.115        0.789       27.290       61.743        5.119      341.760       16.697      864.530
04/21/2013  11:00:00       76.963      -30.032       31.808       63.006       69.354       56.737     3969.707     4809.954     3219.075        0.992        0.600       82.615       52.973        0.411      341.562       16.361      864.539
04/21/2013  11:01:00       33.115      -33.693        3.180       22.260       31.679       34.114      495.485     1003.553     1163.784        0.245        0.133       47.242       22.842        0.234      341.287       15.895      864.558
04/21/2013  11:02:00       60.549      -30.769       13.155       44.898       68.386       54.825     2015.867     4676.689     3005.770        0.724        0.485       67.918       54.289        0.639      341.603       16.429      864.532
04/21/2013  11:03:00       26.616       36.217       59.905       41.416       51.016       29.969     1715.302     2602.623      898.138        0.541        0.261       44.945       34.025        0.573      341.578       16.388      864.516
04/21/2013  11:04:00       -9.350      -11.059       10.019       25.571       27.646       22.797      653.859      764.309      519.691        0.112        0.097       14.482       13.407        0.857      341.586       16.403      864.491
04/21/2013  11:05:00      -30.052      -17.344       19.406       58.136       29.738       28.990     3379.781      884.351      840.449        0.334        0.255       34.698       31.846        0.842      342.009       17.121      864.470
04/21/2013  11:06:00      -79.980      -11.084      -11.698       16.959       24.609       17.605      287.605      605.621      309.941        0.393        0.060       80.744        9.094        0.013      341.059       15.509      864.469
04/21/2013  11:07:00      -39.429       45.650       -0.537       22.443       29.023       34.622      503.709      842.317     1198.682        0.309        0.127       60.321       21.022        0.121      341.595       16.418      864.449
04/21/2013  11:08:00       37.994       46.667       16.138       35.043       19.904       34.356     1228.032      396.176     1180.302        0.334        0.140       60.178        9.610        0.026      341.537       16.318      864.446
04/21/2013  11:09:00       14.724       -6.128        5.512       18.946       19.329       21.480      358.958      373.620      461.380        0.074        0.060       15.948       14.690        0.849      341.944       17.009      864.452
04/21/2013  11:10:00        5.468        1.644       21.893       32.323       20.352       21.501     1044.767      414.221      462.272        0.122        0.096        5.710       12.754        4.989      342.198       17.440      864.441
04/21/2013  11:11:00       -5.314      -35.912        1.047       22.279       53.380       27.348      496.345     2849.406      747.899        0.271        0.205       36.303       18.956        0.273      341.921       16.969      864.440
04/21/2013  11:12:00       16.244      -55.661       14.480       33.935       71.626       37.677     1151.582     5130.328     1419.581        0.564        0.385       57.983       41.616        0.515      342.570       18.074      864.426
04/21/2013  11:13:00       -3.442      -71.646       10.303       36.924       51.715       28.303     1363.354     2674.464      801.068        0.504        0.242       71.729       25.028        0.122      341.894       16.925      864.429
04/21/2013  11:14:00      -28.740     -123.441      -10.262       26.623       29.773       26.156      708.783      886.402      684.138        0.922        0.114      126.743       14.723        0.013      341.393       16.075      864.437
04/21/2013  11:15:00     -124.797      -48.278        0.808       51.790       52.882       26.868     2682.236     2796.508      721.864        1.205        0.310      133.810       25.898        0.037      341.791       16.749      864.430
04/21/2013  11:16:00      -60.525       15.048        9.903       57.704       40.692       36.618     3329.802     1655.878     1340.851        0.516        0.316       62.368       27.693        0.197      342.198       17.441      864.430
04/21/2013  11:17:00      -52.357       28.085        8.426       38.545       26.413       29.292     1485.686      697.627      858.013        0.332        0.152       59.414       20.677        0.121      342.307       17.627      864.414
04/21/2013  11:18:00      -27.903      -25.572      -19.149       31.449       34.143       24.229      989.057     1165.729      587.029        0.227        0.137       37.849       18.757        0.246      342.106       17.284      864.399
04/21/2013  11:19:00      -23.774      -37.379       -1.472       45.808       49.090       28.725     2098.404     2409.822      825.101        0.365        0.267       44.299       15.272        0.119      341.980       17.069      864.393
04/21/2013  11:20:00       -1.468      -71.781       -9.918       74.060       83.707       41.367     5484.941     7006.804     1711.195        0.973        0.710       71.796       45.707        0.405      341.950       17.020      864.381
04/21/2013  11:21:00      -22.312      -53.120        5.868       49.290       63.452       33.603     2429.534     4026.208     1129.144        0.547        0.379       57.616       25.532        0.196      342.010       17.121      864.383
04/21/2013  11:22:00      -38.908     -138.563       24.272       55.585      108.477       40.832     3089.707    11767.216     1667.236        1.891        0.826      143.922       41.658        0.084      341.974       17.058      864.389
04/21/2013  11:23:00      -21.594      -74.308        7.111       41.335       60.472       38.847     1708.541     3656.830     1509.076        0.646        0.344       77.382       30.552        0.156      341.938       16.999      864.390
04/21/2013  11:24:00      -12.195      -11.592        4.990       41.136       37.228       35.827     1692.160     1385.930     1283.588        0.233        0.218       16.825       22.503        1.789      342.226       17.488      864.370
04/21/2013  11:25:00      -22.868      -45.320       29.100       45.868       63.984       41.856     2103.876     4093.942     1751.905        0.569        0.397       50.762       28.855        0.323      342.251       17.529      864.363
04/21/2013  11:26:00       51.464     -101.722       -4.382       67.621       83.170       38.324     4572.558     6917.292     1468.712        1.298        0.648      114.000       37.717        0.109      341.821       16.798      864.365
04/21/2013  11:27:00      -12.468       29.876       29.939       46.260       35.002       29.165     2140.006     1225.157      850.607        0.308        0.211       32.373       18.360        0.322      342.134       17.330      864.348
04/21/2013  11:28:00       -1.157      -37.201       18.018       37.983       82.505       32.047     1442.681     6807.081     1027.033        0.549        0.464       37.219       41.538        1.246      342.428       17.832      864.354
04/21/2013  11:29:00       23.310      -86.927       11.543       70.437       79.696       59.368     4961.375     6351.529     3524.592        1.153        0.742       89.998       50.721        0.318      342.013       17.128      864.361
04/21/2013  11:30:00       -1.370      -10.436       33.975       35.822       42.558       31.516     1283.228     1811.203      993.288        0.268        0.204       10.525       25.760        5.990      342.321       17.650      864.350
04/21/2013  11:31:00      -33.864      -41.427       -9.184       44.961       84.154       26.029     2021.451     7081.882      677.501        0.636        0.489       53.507       15.238        0.081      341.827       16.811      864.361
04/21/2013  11:32:00      -71.640      -33.450        6.906       55.735       35.933       28.654     3106.440     1291.151      821.029        0.576        0.261       79.065       19.387        0.060      342.151       17.362      864.337
04/21/2013  11:33:00      -42.834     -110.077       -5.962       50.781       82.733       27.634     2578.699     6844.788      763.622        1.209        0.509      118.117       27.609        0.055      341.794       16.753      864.344
04/21/2013  11:34:00      -26.692      -56.179        0.831       45.656       36.540       22.429     2084.498     1335.157      503.062        0.390        0.196       62.198       22.745        0.134      341.952       17.022      864.327
04/21/2013  11:35:00      -19.210      -82.713       -6.969       46.738       39.968       25.778     2184.395     1597.420      664.515        0.585        0.222       84.914       10.989        0.017      342.113       17.295      864.304
04/21/2013  11:36:00      -63.895      -79.833        1.536       46.431       51.001       32.202     2155.842     2601.077     1036.959        0.813        0.290      102.254       24.222        0.056      341.760       16.697      864.296
04/21/2013  11:37:00      -28.062      -42.845        8.941       52.572       34.641       41.134     2763.794     1200.021     1692.004        0.418        0.283       51.218       17.377        0.115      342.170       17.394      864.278
04/21/2013  11:38:00      -33.215        8.210       -0.217       34.770       30.241       25.850     1208.949      914.541      668.230        0.198        0.140       34.215       12.371        0.131      342.076       17.235      864.263
04/21/2013  11:39:00       20.237      -86.332       -8.415       47.618       57.995       36.080     2267.516     3363.439     1301.792        0.743        0.347       88.672       21.611        0.059      342.152       17.363      864.251
04/21/2013  11:40:00       34.918       30.340       71.190       51.651       55.792       36.795     2667.778     3112.767     1353.908        0.717        0.357       46.258       37.767        0.667      342.332       17.668      864.237
04/21/2013  11:41:00      134.699      128.187       81.698       83.612       54.997       52.687     6990.931     3024.668     2775.960        2.702        0.640      185.945       42.463        0.052      341.772       16.715      864.218
04/21/2013  11:42:00      153.804       90.890       28.705       60.266       46.137       44.302     3631.937     2128.596     1962.646        2.023        0.386      178.653       27.969        0.025      341.772       16.716      864.222
04/21/2013  11:43:00       49.867       96.531       14.467       70.338       60.718       42.388     4947.491     3686.666     1796.778        1.122        0.522      108.651       27.431        0.064      342.415       17.808      864.210
04/21/2013  11:44:00       49.373       69.216        4.270       55.796       60.890       37.285     3113.246     3707.611     1390.194        0.773        0.411       85.021       23.473        0.076      342.562       18.058      864.188
04/21/2013  11:45:00       43.602      -54.679       33.845       78.757       82.746       53.242     6202.743     6846.921     2834.701        1.096        0.794       69.935       50.135        0.514      342.524       17.994      864.168
04/21/2013  11:46:00       43.437      -15.878       39.001       67.910       60.929       48.750     4611.701     3712.325     2376.611        0.718        0.535       46.248       50.385        1.187      342.526       17.997      864.180
04/21/2013  11:47:00      -53.834       -3.764      -13.697       42.618       42.654       20.180     1816.330     1819.369      407.240        0.357        0.202       53.966       22.317        0.171      341.885       16.910      864.169
04/21/2013  11:48:00       -3.575       -1.555        3.590       40.937       42.498       23.565     1675.800     1806.062      555.309        0.203        0.202        3.898       16.976       18.962      342.505       17.962      864.152
04/21/2013  11:49:00        3.974     -100.289        3.797       36.182       28.738       35.181     1309.165      825.855     1237.683        0.673        0.169      100.368       25.063        0.062      342.361       17.716      864.148
04/21/2013  11:50:00       40.815        8.905       13.162       30.204       60.471       26.647      912.264     3656.711      710.044        0.360        0.264       41.776       28.805        0.475      342.722       18.330      864.134
04/21/2013  11:51:00       61.100       44.119       23.448       76.351       42.658       40.269     5829.469     1819.679     1621.575        0.775        0.464       75.364       26.604        0.125      342.854       18.555      864.129
04/21/2013  11:52:00      128.085       75.929        5.929       51.528       37.171       39.109     2655.166     1381.718     1529.497        1.389        0.278      148.899       22.985        0.024      342.111       17.291      864.096
04/21/2013  11:53:00       13.780      138.778       -2.384       67.070      102.749       40.556     4498.376    10557.421     1644.756        1.807        0.835      139.461       55.201        0.157      342.574       18.075      864.072
04/21/2013  11:54:00      -38.629      144.030       -5.598       50.555       66.832       40.813     2555.820     4466.450     1665.737        1.548        0.434      149.121       38.420        0.066      342.672       18.246      864.054
04/21/2013  11:55:00      -70.524      118.379      -11.105       69.774       81.738       46.672     4868.413     6681.047     2178.250        1.642        0.686      137.794       53.117        0.149      342.430       17.834      864.022
04/21/2013  11:56:00      -73.703       97.724        3.106       76.240       73.739       44.299     5812.479     5437.470     1962.400        1.410        0.661      122.401       35.664        0.085      342.607       18.133      864.015
04/21/2013  11:57:00     -127.375      -12.050      -11.236      101.196       82.097       33.056    10240.601     6739.966     1092.695        1.728        0.904      127.943       42.617        0.111      342.411       17.801      864.005
04/21/2013  11:58:00      -37.331      -92.639      -21.158       44.010       41.478       23.693     1936.895     1720.429      561.342        0.732        0.211       99.878       14.249        0.020      342.452       17.871      864.012
04/21/2013  11:59:00      -53.749       -0.778        5.962       39.977       23.784       24.035     1598.177      565.684      577.667        0.283        0.137       53.755       22.599        0.177      342.519       17.987      863.990
04/21/2013  12:00:00       59.370     -138.428      -21.108       82.326      111.572       41.175     6777.563    12448.201     1695.410        2.202        1.046      150.622       53.468        0.126      342.332       17.665      863.974
04/21/2013  12:01:00       79.709      -50.874       10.103       59.753       64.127       39.878     3570.477     4112.329     1590.282        0.916        0.464       94.560       46.411        0.241      342.568       18.070      863.970
04/21/2013  12:02:00       20.533       33.778       -0.279       18.593       22.584       29.445      345.704      510.046      867.028        0.164        0.086       39.529       12.208        0.095      342.375       17.740      863.940
04/21/2013  12:03:00       73.113       13.542       38.152      101.296       59.627       56.323    10260.894     3555.400     3172.285        1.198        0.849       74.357       30.400        0.167      342.657       18.219      863.885
04/21/2013  12:04:00       87.877       44.106       98.593       77.092       94.446       63.977     5943.178     8920.000     4093.035        1.917        0.948       98.324       48.720        0.246      342.701       18.294      863.844
04/21/2013  12:05:00      106.032      -61.975       55.755       96.420       81.224       71.032     9296.771     6597.364     5045.475        1.956        1.047      122.815       58.091        0.224      342.443       17.856      863.836
04/21/2013  12:06:00       70.943       13.577       68.613      100.766       85.173       65.165    10153.842     7254.513     4246.416        1.579        1.083       72.231       47.286        0.429      342.761       18.397      863.817
04/21/2013  12:07:00       59.088      -24.811       65.541       62.708       94.952       77.134     3932.349     9015.812     5949.626        1.365        0.945       64.086       52.359        0.668      342.790       18.446      863.804
04/21/2013  12:08:00       15.264      -35.838       25.113       43.348       47.706       33.190     1879.042     2275.888     1101.589        0.370        0.263       38.953       21.759        0.312      342.438       17.847      863.809
04/21/2013  12:09:00      171.686      -99.978       17.944      127.291      106.696       67.914    16203.087    11384.084     4612.263        3.599        1.610      198.674       73.726        0.138      342.520       17.984      863.752
04/21/2013  12:10:00       14.431      -10.208       38.266       68.086      122.694       48.335     4635.742    15053.842     2336.267        1.190        1.101       17.677       58.542       10.968      342.828       18.510      863.759
04/21/2013  12:11:00       63.501      -60.676       16.509       81.063      102.120       72.269     6571.247    10428.533     5222.855        1.510        1.111       87.829       68.390        0.606      342.743       18.367      863.742
04/21/2013  12:12:00       13.543       18.083       50.764       52.207       66.964       48.028     2725.525     4484.151     2306.701        0.630        0.476       22.592       36.474        2.606      342.920       18.668      863.721
04/21/2013  12:13:00       43.020        9.342       46.249       56.558       78.880       61.760     3198.859     6221.978     3814.325        0.865        0.662       44.023       46.748        1.128      343.058       18.902      863.699
04/21/2013  12:14:00       89.406      127.445       98.817       91.693       84.709       84.690     8407.555     7175.657     7172.436        2.837        1.138      155.678       58.967        0.143      342.717       18.319      863.687
04/21/2013  12:15:00      159.844      135.476       50.335      102.426       81.968       90.993    10491.139     6718.801     8279.718        3.596        1.274      209.532       50.210        0.057      342.896       18.623      863.687
04/21/2013  12:16:00      294.144      157.005       27.137      124.509       82.264       72.066    15502.482     6767.294     5193.537        6.968        1.373      333.424       40.698        0.015      342.408       17.794      863.684
04/21/2013  12:17:00      114.155       97.631       43.369       79.270       61.791       58.607     6283.781     3818.118     3434.770        1.899        0.677      150.211       33.572        0.050      342.782       18.431      863.670
04/21/2013  12:18:00       26.520       -4.430       58.117       47.715      107.033       56.149     2276.744    11455.987     3152.754        1.049        0.844       26.887       52.531        3.817      342.847       18.542      863.640
04/21/2013  12:19:00       84.097      -16.972       65.753      100.372      105.390       79.103    10074.453    11106.998     6257.237        1.956        1.372       85.792       75.427        0.773      342.761       18.395      863.624
04/21/2013  12:20:00       90.535       88.622      121.582       88.044       88.899       72.414     7751.810     7903.040     5243.826        2.586        1.045      126.690       55.725        0.193      342.470       17.898      863.587
04/21/2013  12:21:00      159.218      147.578       90.508      110.938       97.328       98.119    12307.337     9472.797     9627.275        4.336        1.570      217.094       89.424        0.170      342.353       17.699      863.604
04/21/2013  12:22:00      148.181      108.548       30.935       38.786       39.498       44.470     1504.365     1560.126     1977.622        1.987        0.252      183.685       25.465        0.019      342.407       17.794      863.629
04/21/2013  12:23:00       40.679       89.363        4.482       71.300       67.398       29.019     5083.640     4542.524      842.127        1.006        0.523       98.186       35.870        0.133      342.539       18.020      863.615
04/21/2013  12:24:00      -70.351       21.565      -10.580       52.414       45.676       23.118     2747.271     2086.259      534.447        0.545        0.268       73.582       24.403        0.110      342.684       18.266      863.589
04/21/2013  12:25:00        4.376       36.673       30.844       81.717       39.714       28.894     6677.644     1577.226      834.866        0.570        0.454       36.934       29.792        0.651      343.117       19.002      863.575
04/21/2013  12:26:00       76.837       92.178      109.953       99.910      101.339       66.926     9981.949    10269.569     4479.067        2.561        1.237      120.003       64.625        0.290      342.662       18.227      863.553
04/21/2013  12:27:00       83.006     -130.975       20.513       48.773       86.439       42.512     2378.848     7471.736     1807.235        1.806        0.583      155.062       44.565        0.083      342.761       18.394      863.545
04/21/2013  12:28:00       35.435      -88.966        1.725       46.204       52.805       40.776     2134.848     2788.368     1662.722        0.788        0.329       95.763       28.028        0.086      342.946       18.711      863.537
04/21/2013  12:29:00       21.476      -21.818       61.480       51.031      111.921       72.414     2604.196    12526.262     5243.747        1.254        1.019       30.614       80.576        6.927      343.141       19.044      863.520
04/21/2013  12:30:00       78.825       39.597       80.770       54.391      101.831       41.305     2958.368    10369.459     1706.076        1.467        0.752       88.212       52.509        0.354      342.613       18.146      863.509
04/21/2013  12:31:00       54.712      -55.108       21.083       73.829       82.112       54.552     5450.661     6742.452     2975.922        1.082        0.758       77.655       60.448        0.606      342.847       18.544      863.476
04/21/2013  12:32:00        1.349      -41.477        5.058       42.011       45.739       40.194     1764.948     2092.057     1615.524        0.361        0.274       41.499       34.090        0.675      342.946       18.711      863.452
04/21/2013  12:33:00       21.159      -84.581      -20.934       61.745       49.251       42.897     3812.432     2425.632     1840.145        0.806        0.404       87.188       32.641        0.140      342.830       18.515      863.415
04/21/2013  12:34:00      -36.261      -86.991       -9.975       77.571       41.564       41.281     6017.236     1727.605     1704.103        0.921        0.472       94.246       35.510        0.142      342.859       18.565      863.371
04/21/2013  12:35:00      -51.089     -120.598       -8.864       43.836       59.966       31.676     1921.600     3595.902     1003.341        1.188        0.326      130.973       24.695        0.036      343.190       19.127      863.368
04/21/2013  12:36:00      -24.956      -90.521       28.649       39.113       52.487       41.232     1529.850     2754.919     1700.076        0.781        0.299       93.898       26.572        0.080      343.524       19.696      863.364
04/21/2013  12:37:00       16.101      -27.362       60.906       67.774       69.330       46.002     4593.357     4806.688     2116.144        0.811        0.576       31.748       19.635        0.382      343.634       19.883      863.341
04/21/2013  12:38:00       92.844     -118.489        3.897       98.381      114.533       76.857     9678.728    13117.809     5906.978        2.568        1.435      150.531       74.070        0.242      343.175       19.101      863.307
04/21/2013  12:39:00       49.081     -104.379       16.168       60.936      112.019       59.583     3713.196    12548.274     3550.078        1.669        0.991      115.342       69.042        0.358      343.062       18.909      863.310
04/21/2013  12:40:00       25.731        5.131        4.490       37.964       76.907       43.265     1441.245     5914.716     1871.878        0.497        0.461       26.237       33.372        1.618      343.142       19.046      863.293
04/21/2013  12:41:00       49.752       15.367        2.680       60.350       43.851       30.712     3642.165     1922.918      943.227        0.461        0.325       52.072       33.338        0.410      343.258       19.243      863.296
04/21/2013  12:42:00      134.703       68.246       13.046       61.579       50.717       47.549     3792.008     2572.218     2260.890        1.580        0.431      151.004       25.323        0.028      343.447       19.564      863.279
04/21/2013  12:43:00       50.559       20.695       38.892       56.893       58.129       40.783     3236.870     3378.963     1663.219        0.639        0.414       54.630       27.919        0.261      343.497       19.650      863.239
04/21/2013  12:44:00       54.176      -16.945       40.594       90.563       91.666       51.791     8201.683     8402.606     2682.328        1.208        0.964       56.764       65.979        1.351      343.128       19.020      863.207
04/21/2013  12:45:00      111.597     -105.315       19.385       91.666       89.321       58.139     8402.641     7978.160     3380.168        2.184        0.988      153.445       62.716        0.167      343.172       19.096      863.166
04/21/2013  12:46:00      104.729       82.232       40.157       83.630       58.449       61.647     6994.004     3416.275     3800.300        1.677        0.711      133.155       55.031        0.171      343.500       19.655      863.169
04/21/2013  12:47:00      101.733      111.698       82.501      126.518       83.467       80.716    16006.783     6966.808     6515.016        2.956        1.474      151.083       60.836        0.162      343.696       19.989      863.159
04/21/2013  12:48:00      208.692      119.551       23.013       90.841       80.842       45.369     8252.102     6535.404     2058.375        3.761        0.842      240.509       28.599        0.014      342.877       18.591      863.157
04/21/2013  12:49:00        4.827      156.147      -23.149       38.459       47.752       28.839     1479.082     2280.290      831.670        1.477        0.230      156.222       23.651        0.023      343.035       18.862      863.160
04/21/2013  12:50:00      -42.438       37.934       -9.854       24.080       31.844       21.918      579.838     1014.045      480.384        0.271        0.104       56.921       15.413        0.073      343.132       19.030      863.136
04/21/2013  12:51:00      -74.263        7.349      -10.539       32.004       32.438       21.504     1024.245     1052.255      462.407        0.411        0.127       74.626       15.145        0.041      343.228       19.193      863.103
04/21/2013  12:52:00      -50.577      -38.019        5.124       57.183       39.504       38.731     3269.875     1560.531     1500.095        0.518        0.317       63.273       32.419        0.263      343.339       19.381      863.084
04/21/2013  12:53:00      -37.749      -26.109      -15.196       35.627       31.929       18.829     1269.280     1019.449      354.525        0.249        0.132       45.899       11.415        0.062      343.070       18.923      863.074
04/21/2013  12:54:00      -58.566      -40.745       -1.049       40.149       42.084       24.191     1611.930     1771.052      585.210        0.453        0.198       71.345       26.189        0.135      343.263       19.252      863.073
04/21/2013  12:55:00       28.368       -6.263       10.448      109.040       53.994       39.541    11889.758     2915.385     1563.494        0.866        0.818       29.051       21.313        0.538      343.490       19.638      863.058
04/21/2013  12:56:00      155.735      118.154       21.161       79.425       58.165       59.419     6308.270     3383.193     3530.654        2.594        0.661      195.483       39.996        0.042      343.233       19.197      863.054
04/21/2013  12:57:00      155.209      112.272       48.479       54.326       37.222       43.729     2951.315     1385.510     1912.248        2.265        0.312      191.559       33.854        0.031      343.028       18.850      863.031
04/21/2013  12:58:00      116.853       83.168       14.958       41.197       32.978       39.671     1697.177     1087.549     1573.772        1.258        0.218      143.428       20.789        0.021      343.048       18.885      863.019
04/21/2013  12:59:00       56.429       63.673       -6.883       37.399       37.018       34.844     1398.673     1370.322     1214.120        0.563        0.199       85.079       21.026        0.061      343.187       19.122      862.985
04/21/2013  13:00:00       45.554       55.216       10.767       25.796       33.936       30.489      665.449     1151.639      929.554        0.399        0.137       71.582       20.947        0.086      343.430       19.536      862.964
04/21/2013  13:01:00       14.869      101.743       -5.421       53.467       82.173       34.246     2858.683     6752.460     1172.814        1.069        0.539      102.824       26.137        0.065      343.464       19.593      862.935
04/21/2013  13:02:00      -76.586       32.697        0.480       38.914       41.519       32.729     1514.283     1723.794     1071.207        0.562        0.215       83.274       28.130        0.114      343.485       19.631      862.917
04/21/2013  13:03:00      -62.286       -4.306       14.797       73.082       31.842       28.556     5340.962     1013.899      815.460        0.564        0.359       62.435       34.744        0.310      343.591       19.811      862.894
04/21/2013  13:04:00      112.874       56.761       18.890       99.401       62.587       41.244     9880.539     3917.103     1701.039        1.591        0.775      126.343       34.645        0.075      343.630       19.876      862.896
04/21/2013  13:05:00      129.866       82.886       12.728       71.909       67.380       41.120     5170.869     4540.008     1690.863        1.765        0.570      154.062       26.190        0.029      343.259       19.243      862.879
04/21/2013  13:06:00       60.734      110.191      -11.011       57.905       69.779       47.702     3353.023     4869.143     2275.470        1.322        0.525      125.821       39.693        0.100      343.678       19.958      862.868
04/21/2013  13:07:00       79.765       83.531        5.347       73.574       64.012       47.192     5413.166     4097.508     2227.105        1.255        0.587      115.499       38.416        0.111      343.558       19.755      862.860
04/21/2013  13:08:00       47.087       58.803        2.437       70.013       44.385       32.670     4901.801     1970.001     1067.321        0.681        0.397       75.332       22.835        0.092      343.477       19.617      862.855
04/21/2013  13:09:00      144.142      101.545       51.946      101.892       72.724       68.978    10381.957     5288.824     4757.941        2.710        1.021      176.319       60.239        0.117      343.527       19.699      862.818
04/21/2013  13:10:00      172.147      138.058       16.748       79.186       76.863       66.078     6270.405     5907.950     4366.322        3.276        0.827      220.668       42.160        0.037      343.526       19.697      862.816
04/21/2013  13:11:00      188.074      109.078       42.767      107.934       71.297       57.555    11649.852     5083.259     3312.538        3.457        1.002      217.417       30.050        0.019      343.572       19.776      862.803
04/21/2013  13:12:00       73.339       93.152        9.572       77.827       54.260       54.790     6057.087     2944.199     3001.911        1.307        0.600      118.557       38.825        0.107      343.826       20.212      862.785
04/21/2013  13:13:00      157.641       92.927        3.272      115.003       66.956       63.226    13225.673     4483.119     3997.557        2.760        1.085      182.992       36.982        0.041      344.038       20.570      862.764
04/21/2013  13:14:00        1.064      129.185       -2.669       60.067       97.748       55.475     3608.103     9554.684     3077.505        1.647        0.812      129.189       45.475        0.124      343.629       19.874      862.773
04/21/2013  13:15:00       19.448       49.591       20.089       52.530       30.164       30.912     2759.424      909.888      955.569        0.393        0.231       53.268       31.816        0.357      343.610       19.842      862.757
04/21/2013  13:16:00      151.097       81.873       22.173       86.763       73.529       54.225     7527.875     5406.515     2940.374        2.295        0.794      171.853       27.630        0.026      343.556       19.747      862.735
04/21/2013  13:17:00      112.370       67.933       56.902      104.202       71.088       63.446    10857.963     5053.526     4025.359        2.020        0.997      131.309       43.155        0.108      343.671       19.945      862.709
04/21/2013  13:18:00       57.886       79.862       70.798       74.246       58.286       72.019     5512.463     3397.224     5186.792        1.442        0.705       98.634       47.981        0.237      343.809       20.182      862.691
04/21/2013  13:19:00      125.124       89.335       42.617      115.484       60.987       86.986    13336.516     3719.354     7566.626        2.503        1.231      153.743       53.492        0.121      343.396       19.476      862.710
04/21/2013  13:20:00       37.824       46.832       11.329       54.068       43.610       30.095     2923.300     1901.812      905.695        0.474        0.287       60.199       23.571        0.153      343.489       19.637      862.694
04/21/2013  13:21:00       20.250       59.280        1.856       43.337       49.608       33.839     1878.138     2460.916     1145.082        0.470        0.274       62.643       31.773        0.257      343.876       20.298      862.677
04/21/2013  13:22:00      -25.317       17.980       13.529       27.912       45.795       25.262      779.071     2097.160      638.161        0.233        0.176       31.052       18.146        0.342      344.104       20.685      862.660
04/21/2013  13:23:00      102.785       69.206       21.134       54.056       45.855       32.362     2922.001     2102.702     1047.320        1.094        0.304      123.913       21.555        0.030      343.626       19.870      862.647
04/21/2013  13:24:00       50.426       44.909       17.923       33.487       34.596       31.491     1121.381     1196.872      991.690        0.409        0.165       67.525       21.753        0.104      344.243       20.924      862.633
04/21/2013  13:25:00       92.067       33.171       30.585       87.951       64.127       44.531     7735.340     4112.301     1982.965        1.217        0.692       97.861       37.157        0.144      343.977       20.471      862.613
04/21/2013  13:26:00       96.886       36.341       52.634      131.455      116.503       76.559    17280.391    13572.916     5861.319        2.509        1.836      103.478       82.575        0.637      343.758       20.095      862.582
04/21/2013  13:27:00      119.394       76.258       37.516       97.967       58.306       63.453     9597.459     3399.637     4026.288        1.925        0.851      141.670       36.438        0.066      344.048       20.588      862.572
04/21/2013  13:28:00      246.155       89.192       25.875      104.911       74.359       55.222    11006.304     5529.276     3049.443        4.440        0.979      261.815       44.231        0.029      344.065       20.619      862.573
04/21/2013  13:29:00      201.924      160.912        4.584      110.359       85.963       63.044    12179.103     7389.592     3974.585        4.511        1.177      258.198       41.862        0.026      343.668       19.938      862.572
04/21/2013  13:30:00      311.616      210.438       45.733      113.847       96.867       71.741    12961.221     9383.222     5146.707        8.548        1.375      376.017       46.384        0.015      343.517       19.681      862.543
04/21/2013  13:31:00      178.744      119.778       43.545      124.565       75.535       74.878    15516.370     5705.561     5606.753        3.751        1.341      215.165       66.967        0.097      343.738       20.059      862.516
04/21/2013  13:32:00      166.793      117.011       24.919       87.901       80.318       59.407     7726.583     6451.014     3529.233        2.992        0.885      203.743       48.890        0.058      343.804       20.172      862.509
04/21/2013  13:33:00       94.355       63.385        6.540       78.364       79.763       55.190     6140.864     6362.155     3045.939        1.425        0.777      113.669       35.814        0.099      344.252       20.938      862.500
04/21/2013  13:34:00      166.060      109.094       16.041       94.757       86.069       75.520     8978.817     7407.796     5703.333        3.091        1.104      198.690       44.867        0.051      344.082       20.645      862.491
04/21/2013  13:35:00      140.893      107.697       15.941       99.063       86.990       59.424     9813.551     7567.264     3531.233        2.630        1.046      177.340       20.788        0.014      344.313       21.040      862.483
04/21/2013  13:36:00      126.743      120.066       13.504       97.178       81.264       64.962     9443.609     6603.894     4220.061        2.546        1.013      174.585       39.318        0.051      344.065       20.617      862.482
04/21/2013  13:37:00       83.367       86.166       54.080       82.610       82.668       69.740     6824.454     6833.999     4863.622        1.791        0.926      119.894       47.674        0.158      344.206       20.859      862.461
04/21/2013  13:38:00      176.332       90.099       23.815      112.870       75.591       59.007    12739.678     5713.964     3481.828        3.085        1.097      198.017       39.779        0.040      343.913       20.357      862.459
04/21/2013  13:39:00      197.474       93.876       42.003      110.835       91.802       60.959    12284.450     8427.529     3716.039        3.700        1.221      218.652       55.013        0.063      343.496       19.645      862.456
04/21/2013  13:40:00      278.916      161.714       41.926       75.348       63.857       58.280     5677.329     4077.766     3396.576        5.943        0.658      322.406       32.085        0.010      343.594       19.812      862.433
04/21/2013  13:41:00      104.472      153.692      132.930      127.353       82.808       98.255    16218.714     6857.228     9654.038        4.246        1.636      185.837       78.519        0.179      343.780       20.128      862.400
04/21/2013  13:42:00       69.566      -65.349       52.019       81.917      152.240       93.718     6710.397    23177.137     8783.130        2.524        1.934       95.446       94.729        0.985      343.891       20.321      862.383
04/21/2013  13:43:00      105.230     -162.278        8.691      111.146      211.596      111.934    12353.352    44772.905    12529.265        5.356        3.483      193.410      138.456        0.512      343.985       20.480      862.344
04/21/2013  13:44:00       88.740     -122.834       -7.556       91.196      151.270       64.313     8316.689    22882.628     4136.199        2.917        1.767      151.535       83.891        0.306      343.835       20.224      862.376
04/21/2013  13:45:00       65.150     -108.896       10.882       64.370      101.015       55.116     4143.503    10203.938     3037.781        1.680        0.869      126.897       59.251        0.218      343.946       20.416      862.384
04/21/2013  13:46:00       58.758     -118.138        2.596       47.113       76.086       40.635     2219.602     5789.131     1651.220        1.354        0.483      131.943       44.353        0.113      343.752       20.084      862.379
04/21/2013  13:47:00      166.269       90.066       29.433      116.016       63.827       45.933    13459.769     4073.832     2109.815        2.813        0.982      189.096       24.332        0.017      343.964       20.444      862.380
04/21/2013  13:48:00      206.001      124.330        5.616       93.360       63.457       47.252     8716.147     4026.847     2232.727        3.645        0.749      240.612       30.729        0.016      344.090       20.661      862.376
04/21/2013  13:49:00      -13.562      179.844       -7.700       55.558       78.884       41.738     3086.698     6222.660     1742.048        2.182        0.553      180.355       30.051        0.028      344.176       20.807      862.380
04/21/2013  13:50:00       67.815       60.476       15.663       64.028       57.900       24.149     4099.572     3352.375      583.169        0.827        0.402       90.864       21.753        0.057      344.481       21.330      862.369
04/21/2013  13:51:00       88.789       61.981       15.921       66.450       50.438       38.944     4415.593     2543.965     1516.666        1.023        0.424      108.282       28.404        0.069      344.269       20.968      862.361
04/21/2013  13:52:00       56.150       72.072       17.943       40.380       48.277       39.184     1630.560     2330.692     1535.374        0.708        0.275       91.363       34.580        0.143      344.211       20.868      862.369
04/21/2013  13:53:00       52.557       25.717       18.553       61.600       75.583       50.644     3794.577     5712.811     2564.829        0.792        0.604       58.511       14.280        0.060      344.104       20.687      862.377
04/21/2013  13:54:00      -51.607      -64.026      -16.434       45.422       25.122       26.388     2063.191      631.135      696.311        0.521        0.170       82.235       13.037        0.025      343.742       20.067      862.350
04/21/2013  13:55:00        6.483      -16.314       22.949       60.619       59.995       31.312     3674.605     3599.350      980.463        0.454        0.413       17.555       33.905        3.730      344.152       20.768      862.338
04/21/2013  13:56:00      -13.539      -32.945       -1.035       16.057       31.140       16.495      257.814      969.688      272.072        0.138        0.075       35.618        9.873        0.077      344.147       20.760      862.338
04/21/2013  13:57:00       70.083       71.126       23.331       53.520       47.706       43.624     2864.424     2275.895     1903.016        0.878        0.352       99.852       13.918        0.019      344.204       20.858      862.322
04/21/2013  13:58:00       -7.914      -11.669       -9.208       84.526      109.897       47.215     7144.617    12077.387     2229.293        1.086        1.073       14.099       37.325        7.008      344.451       21.279      862.292
04/21/2013  13:59:00       78.456        3.333       33.970       60.464       54.788       49.033     3655.849     3001.695     2404.225        0.819        0.453       78.527       39.448        0.252      344.249       20.935      862.287
04/21/2013  14:00:00       44.386       62.550       -8.723       65.862       36.008       44.044     4337.869     1296.584     1939.892        0.677        0.379       76.698       33.555        0.191      344.354       21.114      862.283
04/21/2013  14:01:00       11.413      139.260       -5.819       59.340      110.584       51.583     3521.217    12228.910     2660.845        1.898        0.921      139.727       55.752        0.159      344.624       21.575      862.273
04/21/2013  14:02:00       36.999       57.832        9.838       55.779       74.910       40.895     3111.350     5611.489     1672.395        0.760        0.520       68.655       39.580        0.332      344.778       21.838      862.249
04/21/2013  14:03:00      168.312      114.256       20.212      148.296       94.134       55.943    21991.620     8861.194     3129.600        3.788        1.699      203.429       39.274        0.037      344.341       21.089      862.243
04/21/2013  14:04:00       53.323      113.948      -15.171       70.047      107.499       56.959     4906.637    11556.010     3244.382        1.788        0.985      125.807       58.714        0.218      344.182       20.819      862.243
04/21/2013  14:05:00       73.407       42.428       39.113       79.286       46.005       42.637     6286.286     2116.474     1817.894        0.947        0.511       84.787       35.925        0.180      344.386       21.167      862.223
04/21/2013  14:06:00      152.896       85.408       15.453      107.719       83.881       59.955    11603.425     7036.048     3594.653        2.657        1.112      175.133       44.074        0.063      344.314       21.044      862.210
04/21/2013  14:07:00      237.719      123.790       40.507      118.200       96.462       68.658    13971.203     9304.935     4713.984        5.073        1.400      268.019       25.879        0.009      344.089       20.658      862.178
04/21/2013  14:08:00      256.024      171.056       21.371      104.146       84.879       60.190    10846.386     7204.486     3622.777        5.847        1.084      307.909       22.750        0.005      343.863       20.271      862.152
04/21/2013  14:09:00      181.507      131.933       14.289       95.269       63.998       63.061     9076.206     4095.800     3976.637        3.385        0.857      224.390       32.892        0.021      344.329       21.068      862.139
04/21/2013  14:10:00       92.847       38.486       26.779       87.482       53.093       46.766     7653.054     2818.887     2187.055        1.174        0.633      100.508       18.648        0.034      344.794       21.863      862.125
04/21/2013  14:11:00       62.382       67.309       53.317       63.376       49.749       49.065     4016.570     2475.006     2407.414        1.008        0.445       91.772       33.592        0.134      344.822       21.915      862.127
04/21/2013  14:12:00       32.616      278.704      -32.260       79.117      137.949       58.929     6259.468    19029.878     3472.639        5.427        1.438      280.606       69.366        0.061      344.212       20.867      862.126
04/21/2013  14:13:00        4.408      124.956      -10.747       37.381       62.376       37.396     1397.344     3890.787     1398.433        1.122        0.334      125.033       42.060        0.113      344.385       21.167      862.128
04/21/2013  14:14:00        8.906       87.777       12.453       37.327      102.139       40.809     1393.321    10432.370     1665.360        1.071        0.675       88.228       56.234        0.406      344.641       21.603      862.125
04/21/2013  14:15:00       17.511      150.389      -17.890       59.838       90.501       51.001     3580.554     8190.365     2601.068        1.881        0.719      151.405       48.469        0.102      344.306       21.031      862.108
04/21/2013  14:16:00       34.491      178.046       -4.294       62.684       99.088       63.529     3929.252     9818.498     4035.981        2.534        0.889      181.356       59.039        0.106      344.557       21.459      862.091
04/21/2013  14:17:00      -15.750      226.036      -16.802       56.638      157.013       54.339     3207.840    24653.193     2952.720        4.121        1.541      226.584       73.758        0.106      344.639       21.601      862.093
04/21/2013  14:18:00      -46.427      348.310      -44.301       45.343       94.329       35.676     2055.980     8898.044     1272.781        6.883        0.611      351.391       29.170        0.007      344.114       20.698      862.072
04/21/2013  14:19:00       -1.357      138.124        1.681       82.954       90.495       59.912     6881.372     8189.317     3589.482        1.887        0.933      138.131       58.095        0.177      344.732       21.758      862.075
04/21/2013  14:20:00       22.768      192.645       -5.473       94.665      208.066       70.367     8961.513    43291.602     4951.525        4.742        2.860      193.986      100.519        0.269      344.735       21.763      862.047
04/21/2013  14:21:00       71.829      205.072        0.112      113.809      181.029       79.559    12952.488    32771.437     6329.640        4.963        2.603      217.288       89.242        0.169      344.866       21.985      862.038
04/21/2013  14:22:00      144.276      144.982        0.008      111.920       85.653       68.796    12525.981     7336.375     4732.841        3.321        1.230      204.537       52.164        0.065      344.509       21.376      862.042
04/21/2013  14:23:00       80.484      130.875        9.833      117.437      112.301       85.302    13791.378    12611.537     7276.394        2.869        1.684      153.642       80.159        0.272      344.689       21.683      862.029
04/21/2013  14:24:00       81.243      374.962      -57.888       78.653      156.051       75.306     6186.320    24351.763     5671.015        9.337        1.810      383.662       86.421        0.051      344.170       20.795      862.046
04/21/2013  14:25:00      119.159      200.834        0.286      138.505      117.906       88.336    19183.562    13901.835     7803.290        4.770        2.044      233.523       80.133        0.118      344.481       21.326      862.025
04/21/2013  14:26:00      105.721      125.322       24.277      179.803      101.054       65.605    32329.020    10211.931     4304.004        3.715        2.342      163.959       59.539        0.132      344.261       20.953      862.018
04/21/2013  14:27:00       -6.447      244.974      -30.531       42.434       84.110       31.336     1800.653     7074.491      981.947        3.542        0.493      245.059       25.787        0.011      344.343       21.092      862.023
04/21/2013  14:28:00       79.549      182.645        1.622      127.164      132.626       79.797    16170.669    17589.673     6367.507        3.990        2.006      199.217       64.397        0.104      344.604       21.537      862.022
04/21/2013  14:29:00       65.912      176.955       -8.144       83.765       77.329       57.533     7016.541     5979.817     3310.070        2.601        0.815      188.832       47.736        0.064      344.793       21.861      862.015
04/21/2013  14:30:00      -17.345      187.536      -26.543       93.126       85.324       55.140     8672.407     7280.120     3040.449        2.758        0.950      188.337       46.145        0.060      344.755       21.796      862.022
04/21/2013  14:31:00     -103.277      136.702      -11.835       74.822       72.445       55.709     5598.368     5248.217     3103.466        2.172        0.698      171.329       44.904        0.069      344.673       21.657      862.030
04/21/2013  14:32:00      -56.477      229.943      -22.916       36.922      118.615       39.214     1363.234    14069.612     1537.737        3.678        0.849      236.777       51.571        0.047      344.525       21.405      862.036
04/21/2013  14:33:00     -103.233      312.476      -40.570       79.188      123.354       54.486     6270.799    15216.121     2968.713        6.720        1.223      329.087       63.519        0.037      344.310       21.036      862.055
04/21/2013  14:34:00      -22.847      207.554      -24.991       60.348      109.232       44.152     3641.839    11931.576     1949.424        3.087        0.876      208.808       50.340        0.058      344.601       21.533      862.089
04/21/2013  14:35:00     -105.503      173.203      -45.533       69.986       96.232       35.851     4898.000     9260.563     1285.273        2.932        0.772      202.805       29.435        0.021      344.179       20.812      862.084
04/21/2013  14:36:00      -37.884       40.701      -30.648       36.058       78.736       24.519     1300.175     6199.288      601.159        0.606        0.405       55.603       34.686        0.389      344.094       20.667      862.047
04/21/2013  14:37:00     -164.287       20.971      -23.201       79.574       57.247       31.170     6332.023     3277.183      971.594        1.927        0.529      165.620       38.106        0.053      344.405       21.199      862.006
04/21/2013  14:38:00     -121.179       29.571      -14.532       67.918       61.411       26.777     4612.799     3771.331      717.026        1.243        0.455      124.735       26.394        0.045      344.299       21.019      861.995
04/21/2013  14:39:00      -55.836       37.674       14.328       68.111       35.791       32.810     4639.066     1280.968     1076.512        0.587        0.350       67.357       35.014        0.270      344.878       22.011      861.976
04/21/2013  14:40:00       12.247       29.561       20.144       64.617       39.361       37.118     4175.340     1549.308     1377.711        0.426        0.355       31.998       21.811        0.465      344.938       22.113      861.962
04/21/2013  14:41:00      -85.388       17.597        1.746       52.141       58.101       30.287     2718.684     3375.735      917.319        0.731        0.351       87.183       26.727        0.094      344.853       21.967      861.946
04/21/2013  14:42:00      -18.131        4.535       15.301       32.165       29.826       25.326     1034.610      889.582      641.399        0.157        0.128       18.690       14.324        0.587      345.021       22.254      861.923
04/21/2013  14:43:00        4.942      -14.072       12.617       22.548       28.572       20.842      508.409      816.366      434.395        0.107        0.088       14.914        9.339        0.392      344.785       21.851      861.901
04/21/2013  14:44:00       18.367      -46.355       28.265       34.773       47.018       30.426     1209.170     2210.697      925.770        0.381        0.217       49.861       21.846        0.192      344.443       21.266      861.878
04/21/2013  14:45:00       74.301       27.211       81.574       96.450       92.280       64.033     9302.630     8515.539     4100.216        1.741        1.096       79.127       69.476        0.771      344.416       21.217      861.840
04/21/2013  14:46:00       53.605      -75.701       16.915       79.211      125.027       46.645     6274.361    15631.706     2175.744        1.648        1.204       92.758       65.228        0.494      344.527       21.408      861.806
04/21/2013  14:47:00      137.823     -208.240      -41.095       71.692       82.757       51.732     5139.759     6848.672     2676.193        3.935        0.733      249.718       39.509        0.025      344.495       21.352      861.774
04/21/2013  14:48:00      106.829     -202.296      -44.043       74.430      101.018       56.925     5539.892    10204.722     3240.464        3.663        0.949      228.771       53.584        0.055      344.452       21.280      861.775
04/21/2013  14:49:00       55.495      -37.082       35.644       83.613      110.174       59.020     6991.058    12138.258     3483.319        1.417        1.131       66.744       55.434        0.690      344.602       21.539      861.774
04/21/2013  14:50:00      -10.751       23.159       25.267       50.278       21.945       27.277     2527.903      481.599      744.030        0.252        0.188       25.532       28.129        1.214      344.773       21.830      861.760
04/21/2013  14:51:00       28.670        1.745       42.435       43.307       55.167       33.222     1875.494     3043.432     1103.686        0.432        0.301       28.723       37.027        1.662      344.259       20.951      861.730
04/21/2013  14:52:00       56.828      -67.603       12.522       65.552       72.069       47.377     4297.054     5193.990     2244.611        0.984        0.587       88.315       52.307        0.351      344.895       22.038      861.715
04/21/2013  14:53:00       69.446     -233.665      -13.206       68.303       61.292       52.920     4665.337     3756.662     2800.490        3.541        0.561      243.767       36.252        0.022      344.668       21.646      861.701
04/21/2013  14:54:00       13.992     -118.313       -0.437       53.541       56.876       25.154     2866.591     3234.893      632.736        1.046        0.337      119.137       25.071        0.044      344.330       21.071      861.709
04/21/2013  14:55:00      -70.440      -23.452       12.120       54.211       47.578       37.262     2938.802     2263.707     1388.420        0.612        0.330       74.241       36.855        0.246      344.897       22.042      861.698
04/21/2013  14:56:00      -49.929      -36.434        3.320       58.696       46.208       32.552     3445.231     2135.174     1059.663        0.523        0.332       61.809       22.392        0.131      344.814       21.899      861.670
04/21/2013  14:57:00       22.724       19.924       87.356       57.237       67.095       47.435     3276.065     4501.752     2250.060        0.928        0.501       30.222       42.400        1.968      345.082       22.359      861.638
04/21/2013  14:58:00       77.194      -72.333       24.190       76.236       74.613       50.348     5811.932     5567.071     2534.900        1.284        0.696      105.787       37.242        0.124      344.645       21.611      861.655
04/21/2013  14:59:00      110.096       81.232       38.102       84.465       70.829       46.000     7134.360     5016.681     2116.042        1.722        0.713      136.820       21.246        0.024      344.544       21.437      861.651
04/21/2013  15:00:00      144.504       97.055       13.892       73.654       57.461       38.287     5424.841     3301.807     1465.896        2.034        0.510      174.072       21.072        0.015      344.405       21.198      861.632
04/21/2013  15:01:00      -21.963       51.439       27.940       53.064       49.619       35.922     2815.837     2462.016     1290.356        0.524        0.328       55.931       36.324        0.422      345.013       22.241      861.630
04/21/2013  15:02:00      -87.422        6.618       13.251       83.316       53.892       32.501     6941.638     2904.339     1056.317        0.938        0.545       87.672       33.720        0.148      345.101       22.390      861.629
04/21/2013  15:03:00      -86.207      -48.207        8.069       81.321       73.675       53.419     6613.088     5428.076     2853.609        1.236        0.745       98.771       47.016        0.227      344.911       22.065      861.640
04/21/2013  15:04:00      -88.208      -25.927        9.004       80.273       77.775       47.619     6443.706     6048.935     2267.579        1.164        0.738       91.939       42.770        0.216      344.906       22.055      861.633
04/21/2013  15:05:00      -72.079      -67.105       19.478       89.208       62.054       44.526     7958.068     3850.752     1982.575        1.193        0.690       98.481       51.649        0.275      344.953       22.138      861.662
04/21/2013  15:06:00      -64.260      -96.897        3.236       75.726       48.989       46.841     5734.406     2399.947     2194.039        1.193        0.516      116.269       49.898        0.184      344.702       21.708      861.674
04/21/2013  15:07:00      -55.569      -25.268       20.166       89.572       51.700       37.635     8023.188     2672.859     1416.412        0.812        0.606       61.044       38.126        0.390      344.932       22.103      861.641
04/21/2013  15:08:00      -39.115        6.510       17.883       46.832       29.437       30.490     2193.252      866.565      929.623        0.294        0.199       39.653       24.997        0.397      345.131       22.443      861.632
04/21/2013  15:09:00      -95.402       28.440       -4.954       42.603       33.778       28.330     1814.995     1140.939      802.571        0.685        0.188       99.551       25.153        0.064      344.839       21.942      861.620
04/21/2013  15:10:00       -7.252       34.058       20.867      109.542       50.028       33.220    11999.527     2502.797     1103.554        0.862        0.780       34.821       37.941        1.187      345.079       22.354      861.648
04/21/2013  15:11:00       66.989      143.287        2.060       69.227      113.330       55.114     4792.416    12843.729     3037.578        2.284        1.034      158.173       61.514        0.151      344.762       21.811      861.663
04/21/2013  15:12:00       -9.519      101.352       -1.039       34.504      118.082       37.742     1190.548    13943.349     1424.471        1.346        0.828      101.798       60.999        0.359      345.144       22.465      861.637
04/21/2013  15:13:00      -74.715       94.160       -6.713       44.161       75.617       30.958     1950.182     5717.876      958.383        1.156        0.431      120.201       32.988        0.075      345.053       22.308      861.603
04/21/2013  15:14:00      -30.006       16.413       -4.421       63.142       79.150       37.870     3986.973     6264.709     1434.126        0.644        0.584       34.201       29.561        0.747      345.098       22.386      861.568
04/21/2013  15:15:00     -174.255        7.002      -21.015       64.205       72.544       41.576     4122.288     5262.570     1728.560        2.098        0.556      174.395       28.882        0.027      345.333       22.787      861.526
04/21/2013  15:16:00     -132.454       94.776      -11.648       90.270       91.039       60.561     8148.656     8288.147     3667.591        2.338        1.005      162.870       43.247        0.071      345.564       23.184      861.506
04/21/2013  15:17:00     -109.215      177.733      -22.206       45.146       50.332       34.761     2038.186     2533.325     1208.346        2.489        0.289      208.607       27.540        0.017      344.914       22.070      861.516
04/21/2013  15:18:00      -29.104       68.167        0.132       38.247       64.891       34.798     1462.847     4210.825     1210.892        0.619        0.344       74.120       33.722        0.207      345.040       22.287      861.501
04/21/2013  15:19:00       21.676       67.941       -2.815       38.607      102.775       30.878     1490.488    10562.744      953.478        0.905        0.650       71.315       40.071        0.316      344.894       22.038      861.460
04/21/2013  15:20:00      -33.300       96.013      -16.122       23.170       43.445       30.770      536.865     1887.454      946.809        0.698        0.169      101.623       20.777        0.042      344.732       21.760      861.439
04/21/2013  15:21:00      -64.032      110.031      -13.540       32.533       47.500       31.413     1058.412     2256.295      986.764        1.035        0.215      127.306       16.817        0.017      344.860       21.978      861.406
04/21/2013  15:22:00     -122.807       46.872      -25.197       56.223       56.762       32.398     3160.970     3221.892     1049.626        1.267        0.372      131.448       33.765        0.066      345.079       22.352      861.385
04/21/2013  15:23:00      -23.942      102.443       10.181       86.025       94.319       56.711     7400.284     8896.086     3216.113        1.534        0.976      105.203       59.858        0.324      345.469       23.021      861.364
04/21/2013  15:24:00       85.846       50.070       37.120       93.284       79.544       55.312     8701.923     6327.294     3059.427        1.467        0.904       99.381       48.757        0.241      345.164       22.498      861.355
04/21/2013  15:25:00       -1.507      161.197      -19.733       74.083       71.689       44.809     5488.265     5139.384     2007.828        1.950        0.632      161.204       40.096        0.062      345.177       22.519      861.375
04/21/2013  15:26:00       23.711      124.392       -9.028       50.802       59.280       30.640     2580.841     3514.153      938.789        1.157        0.352      126.632       23.975        0.036      344.982       22.186      861.351
04/21/2013  15:27:00      -17.552      155.190      -17.835       59.586       72.990       41.160     3550.477     5327.526     1694.165        1.764        0.529      156.180       36.380        0.054      344.996       22.210      861.322
04/21/2013  15:28:00      -60.786       73.230        2.757       54.147       65.019       40.052     2931.935     4227.496     1604.189        0.891        0.438       95.171       32.754        0.118      345.423       22.941      861.306
04/21/2013  15:29:00      -69.800       56.485       -3.808       59.791       48.736       35.739     3575.019     2375.193     1277.306        0.765        0.361       89.792       30.042        0.112      345.579       23.210      861.311
04/21/2013  15:30:00     -212.043      184.976      -37.982      126.656      123.992       63.386    16041.725    15373.928     4017.756        5.802        1.772      281.386       76.974        0.075      345.289       22.710      861.315
04/21/2013  15:31:00     -178.928      187.466      -34.642       83.087       97.069       53.701     6903.488     9422.355     2883.820        4.378        0.960      259.150       54.185        0.044      345.110       22.402      861.317
04/21/2013  15:32:00      -57.543      158.013      -11.680       97.944       98.540       53.550     9593.075     9710.094     2867.586        2.529        1.109      168.164       61.124        0.132      345.201       22.561      861.306
04/21/2013  15:33:00      -94.093      172.234      -37.210       82.127       99.195       44.466     6744.878     9839.628     1977.252        2.923        0.928      196.260       39.835        0.041      344.886       22.021      861.289
04/21/2013  15:34:00      -31.965       50.415       12.226       60.556       81.165       39.736     3667.028     6587.796     1578.978        0.777        0.592       59.695       25.531        0.183      345.172       22.513      861.246
04/21/2013  15:35:00      -40.282      130.103      -10.446       49.017       50.753       32.396     2402.711     2575.874     1049.513        1.234        0.301      136.196       25.463        0.035      345.112       22.409      861.224
04/21/2013  15:36:00       52.208       77.208       10.793       68.951       68.496       40.725     4754.218     4691.671     1658.560        0.995        0.555       93.202       43.968        0.223      345.325       22.773      861.191
04/21/2013  15:37:00      -64.107      345.268      -38.845       96.761      146.924       59.465     9362.686    21586.577     3536.098        7.965        1.724      351.169       68.638        0.038      345.235       22.619      861.214
04/21/2013  15:38:00     -231.415      328.973      -56.718      134.317      132.425       71.147    18040.971    17536.436     5061.837       10.281        2.032      402.215       81.107        0.041      345.363       22.836      861.159
04/21/2013  15:39:00     -128.807      156.984      -27.666       83.589       91.821       51.980     6987.116     8431.170     2701.932        3.006        0.906      203.065       58.435        0.083      345.733       23.472      861.180
04/21/2013  15:40:00     -137.809      353.382      -37.047       99.473      123.015       62.583     9894.923    15132.621     3916.679        8.709        1.447      379.302       62.487        0.027      345.218       22.587      861.209
04/21/2013  15:41:00      -79.825      256.772      -22.396      107.333      160.037       71.860    11520.317    25611.735     5163.863        5.754        2.115      268.894       86.478        0.103      345.406       22.911      861.187
04/21/2013  15:42:00      -45.344      386.750      -36.649      104.357      163.227       68.984    10890.472    26643.085     4758.751        9.762        2.115      389.399       76.748        0.039      345.334       22.786      861.192
04/21/2013  15:43:00     -123.426      309.934      -33.508       91.789      125.826       62.105     8425.200    15832.069     3856.979        7.026        1.406      333.606       66.482        0.040      344.983       22.185      861.204
04/21/2013  15:44:00     -107.843      291.715      -22.943      100.980      155.844       62.795    10196.968    24287.455     3943.268        6.783        1.921      311.011       69.760        0.050      345.231       22.610      861.138
04/21/2013  15:45:00     -117.624      367.933      -44.570       96.606      107.243       56.547     9332.800    11501.033     3197.524        8.761        1.202      386.277       51.079        0.017      345.074       22.342      861.157
04/21/2013  15:46:00     -168.275      170.217      -47.806      103.057      179.958       64.884    10620.786    32384.969     4209.876        5.339        2.361      239.354       66.307        0.077      345.208       22.571      861.130
04/21/2013  15:47:00      -49.826      169.951        0.546       64.800       99.588       55.220     4199.070     9917.806     3049.204        2.426        0.858      177.104       55.323        0.098      345.382       22.872      861.083
04/21/2013  15:48:00       14.558      287.519      -15.741      110.575      141.068       77.114    12226.921    19900.256     5946.564        6.059        1.904      287.887       74.700        0.067      345.457       22.997      861.055
04/21/2013  15:49:00      -70.460      234.872      -30.306       94.974      114.710       62.655     9020.018    13158.420     3925.711        4.357        1.305      245.214       49.544        0.041      345.622       23.279      861.036
04/21/2013  15:50:00     -127.453      264.809      -43.085      102.004      142.141       61.496    10404.909    20204.086     3781.745        6.130        1.720      293.884       59.369        0.041      345.491       23.055      861.039
04/21/2013  15:51:00      -57.072      475.567      -52.298       99.598      165.108       73.887     9919.694    27260.748     5459.353       13.739        2.132      478.979       76.126        0.025      345.251       22.643      861.007
04/21/2013  15:52:00     -118.541      229.401      -27.730      126.524      115.866       69.395    16008.383    13424.930     4815.726        5.084        1.712      258.219       46.091        0.032      345.580       23.208      861.007
04/21/2013  15:53:00      -76.047      233.920      -17.087       82.972      116.640       65.886     6884.293    13604.877     4340.925        4.281        1.242      245.971       68.937        0.079      345.462       23.008      860.998
04/21/2013  15:54:00     -201.589      434.556      -52.317      129.528      164.846       88.404    16777.630    27174.315     7815.206       14.198        2.588      479.038       86.272        0.032      345.247       22.638      861.041
04/21/2013  15:55:00     -195.440      432.579      -59.601      121.847      172.668       66.017    14846.581    29814.089     4358.275       13.894        2.451      474.680       66.760        0.020      345.013       22.238      861.057
04/21/2013  15:56:00      -59.905      389.564      -50.075      100.592      183.963       66.789    10118.824    33842.444     4460.759       10.313        2.421      394.143       81.656        0.043      345.115       22.410      861.046
04/21/2013  15:57:00        0.827      486.015      -57.646       67.356      118.399       51.792     4536.820    14018.365     2682.396       13.038        1.062      486.016       53.373        0.012      344.912       22.064      861.019
04/21/2013  15:58:00      121.033      293.483      -32.419      136.359      194.664      121.187    18593.891    37894.131    14686.320        8.649        3.559      317.461      124.103        0.153      345.152       22.476      860.991
04/21/2013  15:59:00      124.233      156.402        6.479      170.777       92.439       71.273    29164.893     8544.950     5079.885        4.135        2.139      199.738       67.291        0.113      345.200       22.560      860.963
04/21/2013  16:00:00      118.655       79.582       16.049      128.066       80.668       48.056    16400.885     6507.350     2309.356        2.294        1.261      142.872       48.676        0.116      345.381       22.870      860.921
04/21/2013  16:01:00      118.475       74.048       27.549      105.033       64.505       64.200    11031.924     4160.849     4121.691        1.979        0.966      139.712       46.684        0.112      345.348       22.812      860.933
04/21/2013  16:02:00      -23.328      130.245      -17.651       72.329       53.770       44.603     5231.535     2891.197     1989.456        1.396        0.506      132.318       32.095        0.059      345.629       23.295      860.916
04/21/2013  16:03:00      -57.007      257.472      -35.586      106.179      134.940       50.201    11274.035    18208.920     2520.127        5.140        1.600      263.707       62.618        0.056      345.293       22.717      860.898
04/21/2013  16:04:00       -2.299      269.574      -36.495       78.647      116.926       42.534     6185.423    13671.609     1809.182        4.783        1.083      269.584       49.262        0.033      345.120       22.420      860.904
04/21/2013  16:05:00     -143.778      208.557      -13.999       94.025      103.727       67.378     8840.686    10759.227     4539.799        4.425        1.207      253.315       50.382        0.040      345.404       22.906      860.922
04/21/2013  16:06:00      -59.298      275.980      -31.381       56.192       89.820       49.260     3157.518     8067.602     2426.586        4.716        0.683      282.278       43.969        0.024      345.302       22.731      860.948
04/21/2013  16:07:00       35.972      231.219       -0.070      139.690      146.769       86.554    19513.233    21541.254     7491.563        5.164        2.427      234.001       85.556        0.134      345.524       23.113      860.937
04/21/2013  16:08:00      101.741      269.917      -18.352      131.968      186.976       95.136    17415.443    34959.961     9050.919        7.247        3.071      288.455      102.408        0.126      345.478       23.034      860.925
04/21/2013  16:09:00      136.349      252.781        0.633      127.699      176.262      105.945    16306.994    31068.123    11224.428        7.053        2.930      287.209      106.036        0.136      345.420       22.933      860.898
04/21/2013  16:10:00       63.600      229.915      -26.099       90.287      114.749       67.212     8151.734    13167.326     4517.387        4.171        1.292      238.550       69.986        0.086      345.282       22.698      860.938
04/21/2013  16:11:00      119.001      239.089      -10.568       95.777      102.698       75.750     9173.152    10546.930     5738.036        4.844        1.273      267.067       66.351        0.062      345.274       22.684      860.916
04/21/2013  16:12:00       -1.157      299.679      -18.233      111.485      155.494       80.953    12428.940    24178.520     6553.457        6.664        2.158      299.681       85.221        0.081      345.278       22.690      860.915
04/21/2013  16:13:00       66.136      358.670      -17.465      148.631      165.608      104.014    22091.057    27425.865    10819.009        9.682        3.017      364.717       96.237        0.070      345.461       23.005      860.911
04/21/2013  16:14:00      -65.072      419.922      -48.336      159.164      154.105       86.116    25333.261    23748.269     7415.909       11.969        2.825      424.934       85.771        0.041      345.283       22.700      860.909
04/21/2013  16:15:00      -10.154      323.532      -27.410      202.810      170.138      104.386    41131.751    28946.920    10896.497        9.323        4.049      323.691      105.156        0.106      345.457       22.997      860.899
04/21/2013  16:16:00      -47.561      339.848      -37.758      130.613      189.208       65.264    17059.829    35799.512     4259.346        8.814        2.856      343.160       76.100        0.049      345.611       23.264      860.925
04/21/2013  16:17:00      -85.754      457.753      -49.614       92.169      162.156       66.943     8495.055    26294.565     4481.306       12.930        1.964      465.716       74.174        0.025      345.339       22.795      860.934
04/21/2013  16:18:00     -185.881      163.695      -26.036      118.224      124.020       60.924    13976.887    15380.865     3711.780        4.754        1.653      247.685       55.982        0.051      345.665       23.355      860.919
04/21/2013  16:19:00      -67.017      232.824      -16.488      108.855      138.918       61.974    11849.457    19298.158     3840.759        4.697        1.749      242.277       67.239        0.077      345.547       23.152      860.919
04/21/2013  16:20:00      -32.890      483.038      -27.046      143.561      242.249      111.181    20609.667    58684.586    12361.305       16.338        4.583      484.156      135.598        0.078      345.417       22.928      860.854
04/21/2013  16:21:00       51.522      199.568       20.848      145.440      176.256      105.972    21152.708    31066.332    11229.998        5.317        3.172      206.111      110.444        0.287      345.500       23.070      860.870
04/21/2013  16:22:00      -63.926      371.590      -26.577      144.452      206.432       82.504    20866.383    42614.150     6806.903       10.657        3.514      377.048      102.411        0.074      345.297       22.722      860.821
04/21/2013  16:23:00     -208.023      545.896      -62.370      138.521      199.253       87.790    19188.059    39701.598     7707.097       20.587        3.330      584.189       88.842        0.023      345.334       22.786      860.869
04/21/2013  16:24:00     -164.184      330.278      -45.361      140.320      128.712       74.562    19689.701    16566.895     5559.564        8.995        2.091      368.836       75.496        0.042      345.583       23.212      860.891
04/21/2013  16:25:00      -87.297      218.379      -34.825       79.925       69.283       45.037     6388.013     4800.083     2028.304        3.487        0.661      235.181       38.852        0.027      345.703       23.419      860.889
04/21/2013  16:26:00     -176.023      376.138      -49.390      119.110      125.421       69.106    14187.198    15730.496     4775.654       10.479        1.735      415.288       67.620        0.027      345.445       22.977      860.906
04/21/2013  16:27:00     -168.527      320.618      -47.953      165.507      141.913       76.974    27392.702    20139.327     5925.057        9.347        2.673      362.212       92.435        0.065      345.460       23.003      860.879
04/21/2013  16:28:00     -109.557      172.115      -10.299      154.090      100.117       63.764    23743.619    10023.355     4065.881        3.977        1.892      204.025       65.170        0.102      345.484       23.044      860.875
04/21/2013  16:29:00     -199.508      244.998      -60.700       91.096       98.194       58.342     8298.476     9642.133     3403.750        6.242        1.067      315.955       57.868        0.034      345.329       22.778      860.827
04/21/2013  16:30:00     -131.656      454.966      -62.599      141.340      173.775       75.167    19976.893    30197.741     5650.147       14.202        2.791      473.632       72.251        0.023      345.355       22.821      860.832
04/21/2013  16:31:00      -57.201      577.719      -57.203      127.978      212.221       87.826    16378.362    45037.789     7713.458       20.470        3.456      580.544       93.409        0.026      345.321       22.764      860.829
04/21/2013  16:32:00     -169.083      491.767      -57.657      132.476      191.991       79.652    17550.008    36860.541     6344.442       16.724        3.038      520.023       88.033        0.029      345.227       22.602      860.861
04/21/2013  16:33:00     -226.407      368.277      -64.368      134.925      154.703       63.267    18204.699    23933.076     4002.754       11.858        2.307      432.306       61.506        0.020      345.225       22.600      860.831
04/21/2013  16:34:00     -154.715      482.381      -62.679      141.686      150.862       76.173    20074.940    22759.399     5802.377       15.459        2.432      506.585       77.302        0.023      345.275       22.685      860.864
04/21/2013  16:35:00      -72.328      460.392      -50.028      116.314      166.529       65.685    13528.976    27732.067     4314.528       13.263        2.279      466.039       55.477        0.014      345.213       22.580      860.878
04/21/2013  16:36:00      -40.649      440.543      -38.447       97.019      212.018       82.658     9412.730    44951.460     6832.317       12.919        3.060      442.414      109.313        0.061      345.237       22.620      860.846
04/21/2013  16:37:00     -223.728      269.691      -49.527       85.243      120.026       63.544     7266.425    14406.160     4037.876        7.547        1.286      350.410       55.394        0.025      345.396       22.893      860.823
04/21/2013  16:38:00     -196.096      243.043      -48.238      146.507      119.503       72.341    21464.168    14281.084     5233.275        7.041        2.049      312.287       76.766        0.060      345.556       23.167      860.821
04/21/2013  16:39:00      -77.135      373.438      -52.183      128.239      152.611       50.989    16445.280    23290.077     2599.894        9.522        2.117      381.321       56.753        0.022      345.293       22.717      860.805
04/21/2013  16:40:00       -8.750      300.498      -31.855       75.621      185.118       63.754     5718.586    34268.720     4064.624        6.771        2.203      300.625       84.116        0.078      345.407       22.912      860.793
04/21/2013  16:41:00      -12.795      337.339      -36.054      115.386      179.480       81.993    13313.889    32213.066     6722.857        8.374        2.612      337.582       91.420        0.073      345.234       22.617      860.797
04/21/2013  16:42:00      -98.327      423.819      -56.857      134.217      169.947       66.283    18014.288    28881.856     4393.469       12.190        2.564      435.075       65.393        0.023      345.221       22.594      860.773
04/21/2013  16:43:00      -61.342      407.549      -46.189       74.782      138.248       55.941     5592.299    19112.518     3129.354        9.991        1.392      412.140       61.992        0.023      345.208       22.571      860.797
04/21/2013  16:44:00     -102.382      199.219       -9.876      120.071      162.702       67.314    14417.070    26471.838     4531.114        4.783        2.271      223.987       66.975        0.089      345.386       22.876      860.767
04/21/2013  16:45:00      -93.181      535.742      -57.806      107.415      259.918       73.061    11538.077    67557.337     5337.904       19.172        4.222      543.785      106.185        0.038      345.258       22.657      860.787
04/21/2013  16:46:00      -86.827      510.764      -52.522      106.337      161.015       68.235    11307.572    25925.947     4656.059       15.652        2.094      518.091       70.108        0.018      345.054       22.307      860.822
04/21/2013  16:47:00      -61.662      425.059      -27.147      109.141      139.061       82.170    11911.778    19337.924     6751.866       11.160        1.900      429.508       83.339        0.038      345.192       22.544      860.791
04/21/2013  16:48:00     -220.432      438.097      -64.442      142.577      127.492       74.522    20328.137    16254.185     5553.490       14.340        2.107      490.428       79.396        0.026      345.169       22.505      860.832
04/21/2013  16:49:00     -256.681      348.483      -71.538      121.790      111.788       73.812    14832.918    12496.555     5448.196       11.260        1.639      432.811       73.442        0.029      345.122       22.424      860.826
04/21/2013  16:50:00     -140.360      217.520      -23.933       98.638       96.405       60.392     9729.458     9293.945     3647.246        4.512        1.134      258.874       51.526        0.040      345.315       22.753      860.811
04/21/2013  16:51:00      -81.237      464.343      -52.094      108.499      213.093       72.676    11772.102    45408.794     5281.793       14.368        3.123      471.396       96.175        0.042      345.132       22.439      860.821
04/21/2013  16:52:00      -33.491      347.669      -27.709      137.356      176.118       88.966    18866.718    31017.646     7914.962        9.027        2.890      349.279       96.795        0.077      345.145       22.463      860.833
04/21/2013  16:53:00      -92.975      277.511      -39.504      109.777       89.263       63.311    12050.928     7967.944     4008.253        5.562        1.201      292.672       37.341        0.016      345.292       22.713      860.832
04/21/2013  16:54:00      -19.938      163.127       10.035      127.606       95.091       62.575    16283.395     9042.372     3915.582        2.817        1.462      164.341       79.041        0.231      345.222       22.595      860.813
04/21/2013  16:55:00      -27.971      293.279      -30.345      100.791      196.088       65.638    10158.892    38450.682     4308.283        7.031        2.646      294.610       85.137        0.084      345.401       22.901      860.789
04/21/2013  16:56:00       20.066      234.470      -10.123       86.620      155.429       66.667     7503.006    24158.282     4444.512        4.579        1.805      235.327       77.510        0.108      345.470       23.020      860.779
04/21/2013  16:57:00      107.201      204.532       -2.697      146.034      173.178       94.643    21326.072    29990.668     8957.276        5.679        3.014      230.923       98.801        0.183      345.328       22.777      860.751
04/21/2013  16:58:00       50.472      331.721      -34.258      112.351      177.738       85.942    12622.823    31590.773     7386.090        8.267        2.580      335.539       81.899        0.060      345.313       22.750      860.741
04/21/2013  16:59:00       14.816      241.546      -27.211      103.571      129.882       67.050    10726.981    16869.415     4495.755        4.569        1.605      242.000       73.687        0.093      345.370       22.848      860.748
04/21/2013  17:00:00       79.133      329.422      -17.857      108.856      213.746      121.719    11849.585    45687.515    14815.636        9.371        3.618      338.793      128.196        0.143      345.258       22.656      860.716
04/21/2013  17:01:00       34.618      268.746        0.133      148.874      232.719      120.190    22163.521    54158.105    14445.568        8.208        4.538      270.966      137.512        0.258      345.313       22.751      860.708
04/21/2013  17:02:00     -186.751      437.952      -63.572      145.018      157.363       76.062    21030.270    24763.189     5785.481       14.114        2.579      476.107       79.731        0.028      345.176       22.515      860.725
04/21/2013  17:03:00      -33.615      511.744      -65.693      103.567      163.364       69.532    10726.068    26687.870     4834.741       15.478        2.112      512.847       77.515        0.023      345.086       22.362      860.732
04/21/2013  17:04:00      -74.727      460.902      -47.002      133.069      145.078       80.745    17707.424    21047.712     6519.823       13.274        2.264      466.920       71.658        0.024      345.064       22.323      860.721
04/21/2013  17:05:00     -109.927      386.122      -50.939      117.545      117.987       66.500    13816.783    13921.023     4422.225        9.796        1.608      401.465       60.513        0.023      345.079       22.349      860.711
04/21/2013  17:06:00      -85.708      281.863      -35.631       83.375      109.060       52.821     6951.366    11894.043     2790.057        5.484        1.082      294.606       57.232        0.038      344.996       22.208      860.650
04/21/2013  17:07:00      -48.368      362.897      -23.870       88.472      157.155       80.269     7827.351    24697.723     6443.106        8.678        1.948      366.106       88.104        0.058      345.282       22.698      860.600
04/21/2013  17:08:00       -7.370      331.480      -40.647      120.040      121.383       63.637    14409.640    14733.920     4049.606        7.238        1.660      331.562       65.202        0.039      345.329       22.778      860.577
04/21/2013  17:09:00     -111.233      327.315      -35.828       97.938       89.893       59.010     9591.939     8080.679     3482.166        7.097        1.058      345.699       45.832        0.018      345.274       22.684      860.583
04/21/2013  17:10:00     -138.567      195.936      -35.970      102.423      161.715       60.106    10490.457    26151.801     3612.744        4.956        2.013      239.983       58.400        0.059      345.459       23.002      860.566
04/21/2013  17:11:00     -184.508      320.048      -41.094      118.265      118.517       65.713    13986.617    14046.237     4318.156        8.525        1.618      369.423       64.207        0.030      345.337       22.792      860.571
04/21/2013  17:12:00     -139.743       97.186       -4.632       94.145      133.816       59.420     8863.234    17906.716     3530.717        2.964        1.515      170.215       54.291        0.102      345.555       23.168      860.549
04/21/2013  17:13:00     -134.985      147.913      -47.459       91.451       99.177       44.023     8363.245     9836.161     1938.065        3.124        1.007      200.248       52.973        0.070      345.461       23.005      860.541
04/21/2013  17:14:00      -83.614      269.439      -28.442       84.473      104.344       63.183     7135.745    10887.644     3992.140        5.120        1.101      282.115       63.170        0.050      345.167       22.499      860.556
04/21/2013  17:15:00      -53.436      250.782      -25.580       79.764      109.552       51.286     6362.322    12001.747     2630.219        4.369        1.050      256.411       42.637        0.028      345.197       22.551      860.518
04/21/2013  17:16:00       10.826      212.855      -27.431       90.318      150.538       74.646     8157.337    22661.739     5572.011        4.128        1.820      213.130       88.982        0.174      345.236       22.620      860.492
04/21/2013  17:17:00      -48.455      236.502      -11.198      105.252      164.794       72.162    11077.999    27156.914     5207.389        5.092        2.172      241.415       72.782        0.091      345.321       22.765      860.506
04/21/2013  17:18:00     -173.438      462.462      -54.820      116.460      169.532       60.636    13562.915    28740.963     3676.686       14.646        2.299      493.915       71.883        0.021      345.175       22.513      860.493
04/21/2013  17:19:00      -41.845      549.585      -61.754       99.198      152.564       74.315     9840.153    23275.658     5522.763       17.312        1.932      551.176       78.534        0.020      345.126       22.431      860.506
04/21/2013  17:20:00      -70.986      220.032      -23.456      108.928      151.375       74.808    11865.314    22914.399     5596.199        4.718        2.019      231.199       81.441        0.124      345.430       22.951      860.497
04/21/2013  17:21:00       -3.000      130.429       35.541      103.855      131.948       91.849    10785.857    17410.284     8436.177        2.745        1.832      130.464       82.496        0.400      345.547       23.153      860.508
04/21/2013  17:22:00     -159.706      319.552      -43.360      159.048      157.026       76.603    25296.130    24657.315     5868.010        9.265        2.791      357.239       78.361        0.048      345.381       22.867      860.478
04/21/2013  17:23:00     -172.675      281.277      -25.345      150.189      149.520       73.668    22556.677    22356.110     5426.985        7.995        2.517      330.051       79.462        0.058      345.192       22.544      860.503
04/21/2013  17:24:00     -148.676      184.959      -28.005       94.679      126.359       59.876     8964.082    15966.653     3585.106        4.280        1.426      237.307       53.613        0.051      345.301       22.730      860.535
04/21/2013  17:25:00     -193.421      282.505      -49.621      121.294      169.651       60.736    14712.314    28781.335     3688.863        8.342        2.359      342.375       78.221        0.052      345.183       22.529      860.543
04/21/2013  17:26:00      -34.118      266.981      -21.844      104.535      130.461       74.307    10927.530    17020.192     5521.457        5.319        1.673      269.152       75.003        0.078      345.309       22.744      860.528
04/21/2013  17:27:00      -65.494      622.040      -70.796      138.106      179.096       74.768    19073.348    32075.345     5590.261       22.648        2.837      625.479       88.606        0.020      345.035       22.274      860.511
04/21/2013  17:28:00      -80.180      477.823      -61.694      139.929      174.789       76.782    19580.167    30551.239     5895.550       14.728        2.801      484.503       73.757        0.023      345.113       22.409      860.515
04/21/2013  17:29:00     -106.668      460.308      -48.669      118.217      171.525       76.286    13975.204    29420.983     5819.601       13.741        2.461      472.505       87.882        0.035      345.060       22.316      860.492
04/21/2013  17:30:00     -116.091      420.808      -36.709       92.551      140.041       72.871     8565.629    19611.618     5310.152       11.269        1.674      436.528       71.655        0.027      345.208       22.571      860.508
04/21/2013  17:31:00     -143.263      433.468      -49.261      119.651      155.874       81.998    14316.278    24296.574     6723.611       12.808        2.267      456.529       77.569        0.029      345.180       22.522      860.509
04/21/2013  17:32:00     -145.719      382.600      -34.408      106.653      133.508       72.940    11374.953    17824.519     5320.266       10.165        1.726      409.410       75.120        0.034      345.163       22.495      860.519
04/21/2013  17:33:00     -164.180      223.940      -29.118      113.730      141.541       64.630    12934.453    20033.747     4177.071        5.754        1.857      277.677       54.958        0.039      345.321       22.762      860.494
04/21/2013  17:34:00      -87.836      256.257      -10.819      109.637      179.214       63.950    12020.205    32117.722     4089.563        6.085        2.411      270.893       69.683        0.066      345.379       22.864      860.498
04/21/2013  17:35:00     -137.197      428.237      -46.612      144.157      133.856       79.455    20781.115    17917.322     6313.174       12.469        2.251      449.678       64.856        0.021      345.109       22.402      860.504
04/21/2013  17:36:00     -217.793      412.432      -57.870      131.096      158.924       80.009    17186.110    25256.729     6401.509       13.485        2.442      466.405       85.814        0.034      345.065       22.327      860.491
04/21/2013  17:37:00     -214.195      292.810      -50.636      151.130      126.685       73.353    22840.328    16049.037     5380.613        8.922        2.213      362.790       81.878        0.051      345.169       22.503      860.500
04/21/2013  17:38:00      -57.968      335.512      -33.861       99.251      203.924       57.687     9850.801    41584.869     3327.815        8.591        2.738      340.483       75.006        0.049      345.183       22.529      860.482
04/21/2013  17:39:00     -135.797      355.438      -42.108      125.300      151.820       66.119    15700.020    23049.251     4371.673        9.483        2.156      380.496       69.318        0.033      345.238       22.621      860.466
04/21/2013  17:40:00     -195.277      255.588      -54.837      152.454      139.960       72.064    23242.262    19588.752     5193.179        7.724        2.401      321.649       69.564        0.047      345.357       22.826      860.465
04/21/2013  17:41:00     -105.378      263.500      -30.742      109.802      102.317       59.517    12056.556    10468.843     3542.312        5.377        1.303      283.790       58.391        0.042      345.304       22.734      860.465
04/21/2013  17:42:00     -139.539      421.426      -50.772      145.497      171.476       79.498    21169.502    29404.079     6319.937       12.826        2.845      443.927       82.959        0.035      345.217       22.585      860.475
04/21/2013  17:43:00     -137.320      293.885      -28.354      117.978      157.004       71.897    13918.761    24650.159     5169.236        7.487        2.187      324.384       84.715        0.068      345.187       22.535      860.482
04/21/2013  17:44:00      -71.720      329.276      -31.720       80.667      130.162       53.952     6507.129    16942.035     2910.833        7.046        1.318      336.996       52.059        0.024      345.218       22.587      860.489
04/21/2013  17:45:00     -106.204      220.655      -27.688       77.614      127.121       49.746     6023.872    16159.764     2474.699        4.269        1.233      244.884       50.190        0.042      345.317       22.757      860.491
04/21/2013  17:46:00     -140.660      353.233      -42.615      103.452      153.091       58.670    10702.339    23436.781     3442.207        9.197        1.879      380.209       70.308        0.034      345.142       22.458      860.500
04/21/2013  17:47:00     -168.798      319.198      -42.021       85.162      103.799       67.608     7252.620    10774.232     4570.872        7.737        1.130      361.082       60.150        0.028      345.139       22.451      860.496
04/21/2013  17:48:00      -96.007      314.933      -34.660       89.995      113.723       53.572     8099.163    12932.847     2869.920        6.675        1.195      329.242       51.457        0.024      345.215       22.581      860.487
04/21/2013  17:49:00      -48.247      389.188      -32.104      100.438      133.375       65.013    10087.803    17788.808     4226.751        9.346        1.605      392.167       63.360        0.026      345.131       22.438      860.500
04/21/2013  17:50:00     -120.019      410.173      -42.872      112.018      153.735       66.285    12548.043    23634.519     4393.738       11.252        2.029      427.372       68.427        0.026      345.149       22.471      860.507
04/21/2013  17:51:00     -119.382      395.840      -44.469      129.330      168.613       81.348    16726.357    28430.187     6617.540       11.234        2.589      413.450       89.810        0.047      345.102       22.388      860.495
04/21/2013  17:52:00     -145.148      205.162      -29.085      121.415      144.287       62.291    14741.497    20818.599     3880.193        5.171        1.972      251.315       60.773        0.058      345.222       22.596      860.490
04/21/2013  17:53:00     -238.325      290.128      -61.731      146.632      146.273       71.653    21500.861    21395.911     5134.174        9.640        2.402      375.464       86.940        0.054      345.175       22.514      860.500
04/21/2013  17:54:00     -221.849      254.130      -61.078      135.819       89.009       59.706    18446.759     7922.570     3564.790        7.373        1.497      337.341       71.936        0.045      345.156       22.480      860.492
04/21/2013  17:55:00     -186.916      246.647      -43.957      123.351      148.035       63.760    15215.434    21914.458     4065.310        6.944        2.060      309.471       67.668        0.048      345.277       22.689      860.513
04/21/2013  17:56:00      -83.825      237.447      -23.309       72.274       97.165       56.081     5223.497     9441.000     3145.073        4.088        0.890      251.809       52.199        0.043      345.301       22.729      860.509
04/21/2013  17:57:00     -141.643      305.973      -34.527      112.846      137.716       76.718    12734.114    18965.692     5885.673        7.622        1.879      337.168       80.731        0.057      345.265       22.670      860.508
04/21/2013  17:58:00      -42.404      336.769      -40.004       85.232      165.932       66.909     7264.473    27533.356     4476.872        7.804        1.964      339.428       78.727        0.054      345.198       22.554      860.506
04/21/2013  17:59:00     -124.048      313.349      -41.409       88.751      137.580       68.574     7876.690    18928.213     4702.334        7.339        1.575      337.010       65.963        0.038      345.213       22.579      860.509
04/21/2013  18:00:00     -103.439      298.308      -37.438       79.618      182.772       63.708     6338.966    33405.476     4058.744        7.244        2.190      315.733       78.002        0.061      345.161       22.491      860.515
04/21/2013  18:01:00     -109.323      228.427      -26.327       88.041       94.611       52.244     7751.291     8951.241     2729.387        4.212        0.972      253.240       51.701        0.042      345.218       22.588      860.521
04/21/2013  18:02:00     -207.486      234.360      -46.345       82.237      107.220       50.209     6762.962    11496.108     2520.962        6.045        1.039      313.010       46.948        0.022      345.326       22.773      860.522
04/21/2013  18:03:00     -175.339      241.660      -33.399      105.053      148.581       60.898    11036.040    22076.236     3708.594        6.353        1.841      298.569       70.545        0.056      345.296       22.722      860.539
04/21/2013  18:04:00     -149.702      209.235      -41.970       94.188       93.600       65.622     8871.378     8761.005     4306.192        4.494        1.097      257.274       64.513        0.063      345.246       22.634      860.542
04/21/2013  18:05:00     -162.122      235.940      -37.949      113.137      119.844       63.678    12800.056    14362.650     4054.896        5.730        1.561      286.271       66.878        0.055      345.165       22.498      860.533
04/21/2013  18:06:00     -154.324      315.555      -44.116       66.777       77.308       54.637     4459.152     5976.463     2985.204        6.938        0.671      351.270       40.696        0.013      345.059       22.316      860.534
04/21/2013  18:07:00      -79.646      260.521      -34.759       76.432      106.681       46.954     5841.836    11380.837     2204.709        4.742        0.971      272.424       38.647        0.020      345.100       22.387      860.546
04/21/2013  18:08:00     -190.257      307.770      -52.651       99.788      112.156       69.061     9957.694    12578.989     4769.389        8.049        1.365      361.829       60.107        0.028      345.046       22.293      860.546
04/21/2013  18:09:00     -106.692      255.359      -35.886       94.012      111.914       66.782     8838.239    12524.766     4459.858        5.185        1.291      276.751       72.894        0.069      345.101       22.387      860.556
04/21/2013  18:10:00      -80.592      564.289      -55.006       98.919      145.290       73.897     9784.959    21109.050     5460.832       18.214        1.818      570.014       70.471        0.015      344.936       22.105      860.536
04/21/2013  18:11:00      -60.681      379.151      -38.929       71.205      136.724       54.356     5070.176    18693.513     2954.595        8.783        1.336      383.976       62.915        0.027      344.988       22.195      860.562
04/21/2013  18:12:00      -94.998      296.848      -40.080       88.095       97.294       50.190     7760.693     9466.209     2519.035        5.924        0.987      311.678       39.816        0.016      345.004       22.221      860.575
04/21/2013  18:13:00     -163.099      208.401      -34.609      113.601      104.367       64.185    12905.115    10892.397     4119.759        4.957        1.396      264.636       63.200        0.057      345.101       22.390      860.563
04/21/2013  18:14:00     -113.858      209.385      -28.613       82.129      108.327       48.808     6745.160    11734.800     2382.219        3.924        1.043      238.340       45.879        0.037      345.182       22.527      860.568
04/21/2013  18:15:00     -101.493      262.846      -29.069       85.820      113.124       55.957     7365.097    12796.950     3131.207        5.176        1.165      281.760       51.755        0.034      345.128       22.433      860.569
04/21/2013  18:16:00     -144.284      332.397      -37.486       82.177      122.260       62.439     6753.094    14947.595     3898.581        7.915        1.280      362.361       58.680        0.026      344.982       22.184      860.549
04/21/2013  18:17:00     -143.002      208.509      -32.879       86.848      114.535       52.591     7542.587    13118.255     2765.792        4.421        1.171      252.835       49.849        0.039      345.131       22.438      860.550
04/21/2013  18:18:00     -114.460      237.507      -36.299       66.271       96.936       49.112     4391.866     9396.577     2411.979        4.351        0.810      263.649       51.916        0.039      345.096       22.379      860.567
04/21/2013  18:19:00     -102.241      342.523      -29.664       93.694      159.160       62.375     8778.581    25331.784     3890.660        8.332        1.900      357.457       68.325        0.037      344.956       22.140      860.573
04/21/2013  18:20:00     -123.091      275.294      -40.189      110.914      134.149       67.253    12301.965    17995.928     4522.994        6.368        1.741      301.559       52.683        0.031      344.950       22.129      860.575
04/21/2013  18:21:00     -129.314      293.040      -42.947      113.354      156.077       67.025    12849.134    24359.883     4492.327        7.306        2.085      320.303       79.035        0.061      344.965       22.156      860.563
04/21/2013  18:22:00      -41.303      517.759      -60.128       83.046      132.665       62.419     6896.629    17600.122     3896.178       15.089        1.420      519.404       68.707        0.017      344.819       21.905      860.583
04/21/2013  18:23:00     -160.781      278.271      -37.124       99.624      110.290       52.147     9924.922    12163.917     2719.269        6.473        1.240      321.380       34.940        0.012      344.951       22.132      860.557
04/21/2013  18:24:00     -222.458      362.095      -69.949      134.252      129.585       67.563    18023.565    16792.199     4564.789       11.243        1.969      424.971       71.451        0.028      344.904       22.051      860.544
04/21/2013  18:25:00     -174.419      322.041      -35.581       96.790      139.086       61.075     9368.375    19345.050     3730.183        8.391        1.622      366.241       53.129        0.021      344.878       22.007      860.549
04/21/2013  18:26:00     -189.910      316.511      -40.007      109.006      154.534       68.849    11882.211    23880.630     4740.217        8.917        2.025      369.114       61.393        0.028      344.917       22.073      860.539
04/21/2013  18:27:00       -8.956      516.937      -60.714       80.586      173.999       69.739     6494.032    30275.680     4863.596       15.630        2.082      517.014       81.072        0.025      344.850       21.959      860.532
04/21/2013  18:28:00      -80.299      376.105      -35.065      135.094      165.756       73.619    18250.490    27475.149     5419.802       10.013        2.557      384.581       79.087        0.042      344.876       22.003      860.532
04/21/2013  18:29:00     -101.958      245.759      -35.686       75.172      103.905       51.661     5650.779    10796.288     2668.896        4.559        0.956      266.070       47.800        0.032      344.946       22.123      860.553
04/21/2013  18:30:00     -147.371      379.707      -45.468       89.225      174.698       62.622     7961.129    30519.534     3921.478       10.517        2.120      407.303       63.897        0.025      344.938       22.110      860.555
04/21/2013  18:31:00     -239.123      350.886      -62.628      123.410      107.232       68.478    15230.071    11498.684     4689.238       10.781        1.571      424.618       75.208        0.031      344.942       22.117      860.562
04/21/2013  18:32:00      -94.294      319.287      -30.776       82.000      105.697       67.421     6723.920    11171.799     4545.563        6.711        1.122      332.920       53.458        0.026      344.942       22.117      860.588
04/21/2013  18:33:00     -108.213      154.819      -24.803       77.714      115.476       52.275     6039.541    13334.614     2732.633        2.920        1.105      188.889       48.650        0.066      345.021       22.252      860.599
04/21/2013  18:34:00     -125.395      197.107      -28.960       68.992      102.952       43.574     4759.863    10599.172     1898.658        3.633        0.863      233.614       31.918        0.019      345.020       22.248      860.598
04/21/2013  18:35:00      -50.056      274.801      -33.319       66.765      126.183       47.884     4457.585    15922.067     2292.914        5.090        1.134      279.323       56.018        0.040      344.937       22.108      860.585
04/21/2013  18:36:00     -165.333      370.261      -39.461       95.806      152.901       72.272     9178.844    23378.576     5223.247       10.188        1.889      405.497       79.906        0.039      344.835       21.931      860.579
04/21/2013  18:37:00     -167.626      410.937      -54.333       83.011      104.447       57.881     6890.757    10909.227     3350.262       11.053        1.058      443.811       61.273        0.019      344.818       21.904      860.581
04/21/2013  18:38:00     -160.292      307.821      -47.360       73.979      106.587       52.588     5472.931    11360.886     2765.484        7.114        0.980      347.056       35.179        0.010      344.842       21.943      860.598
04/21/2013  18:39:00      -75.477      248.368      -41.886       97.391      109.971       52.647     9484.933    12093.515     2771.682        4.674        1.218      259.584       43.935        0.029      344.830       21.924      860.612
04/21/2013  18:40:00     -132.535      364.134      -50.339       89.808      128.488       54.607     8065.490    16509.274     2981.951        9.012        1.378      387.504       58.786        0.023      344.796       21.865      860.611
04/21/2013  18:41:00     -134.287      356.759      -32.424       89.436      120.674       63.248     7998.747    14562.251     4000.319        8.646        1.328      381.195       56.396        0.022      344.758       21.800      860.579
04/21/2013  18:42:00     -127.829      394.044      -33.556      112.978      121.886       74.210    12763.968    14856.137     5507.083       10.293        1.656      414.260       72.859        0.031      344.752       21.790      860.569
04/21/2013  18:43:00      -35.878      370.677      -25.598      102.396      151.807       71.584    10484.954    23045.272     5124.268        8.899        1.933      372.409       68.188        0.034      344.769       21.817      860.565
04/21/2013  18:44:00     -154.152      496.541      -61.439      124.602      161.901       64.769    15525.726    26211.792     4195.065       16.000        2.297      519.919       67.105        0.017      344.753       21.792      860.589
04/21/2013  18:45:00     -124.770      330.471      -31.699      128.259      147.639       67.764    16450.401    21797.294     4591.985        8.430        2.142      353.240       72.002        0.042      344.733       21.757      860.613
04/21/2013  18:46:00     -163.869      312.981      -37.951      111.358      131.258       76.417    12400.686    17228.550     5839.593        8.085        1.773      353.285       74.514        0.044      344.721       21.737      860.632
04/21/2013  18:47:00      -89.127      394.555      -46.762       94.992      132.474       62.026     9023.526    17549.323     3847.229        9.811        1.521      404.496       62.140        0.024      344.687       21.677      860.632
04/21/2013  18:48:00     -138.693      176.643      -13.897       99.598      131.451       66.659     9919.702    17279.326     4443.408        4.113        1.582      224.585       66.812        0.089      344.735       21.760      860.626
04/21/2013  18:49:00      -83.541      393.834      -56.331      110.090      146.979       69.141    12119.718    21602.699     4780.464       10.187        1.925      402.597       60.755        0.023      344.652       21.617      860.633
04/21/2013  18:50:00     -123.629      481.350      -50.542       87.127      118.661       68.056     7591.183    14080.417     4631.606       13.791        1.315      496.972       56.978        0.013      344.636       21.591      860.624
04/21/2013  18:51:00      -99.580      366.995      -37.789       77.137      113.649       55.570     5950.047    12916.123     3087.996        8.399        1.098      380.265       54.766        0.021      344.669       21.649      860.635
04/21/2013  18:52:00     -119.161      326.181      -37.961       85.488      196.363       58.632     7308.275    38558.620     3437.707        8.566        2.465      347.265       56.638        0.027      344.660       21.633      860.650
04/21/2013  18:53:00     -153.385      302.105      -35.509      106.394      108.283       71.340    11319.705    11725.294     5089.373        7.209        1.407      338.813       66.139        0.038      344.612       21.551      860.656
04/21/2013  18:54:00     -168.018      300.890      -40.122       97.630      116.076       66.257     9531.555    13473.675     4389.960        7.388        1.370      344.623       67.803        0.039      344.585       21.506      860.651
04/21/2013  18:55:00     -240.302      336.601      -51.865      107.872      136.867       66.989    11636.347    18732.490     4487.504       10.429        1.743      413.576       58.922        0.020      344.549       21.442      860.645
04/21/2013  18:56:00     -150.765      253.713      -38.321       89.963      104.447       63.624     8093.379    10909.221     4048.065        5.580        1.153      295.128       60.980        0.043      344.575       21.488      860.656
04/21/2013  18:57:00     -134.221      381.793      -50.681       85.061      135.334       63.006     7235.345    18315.404     3969.787        9.793        1.476      404.698       63.923        0.025      344.546       21.439      860.658
04/21/2013  18:58:00      -70.684      325.424      -44.846       87.587       92.787       53.456     7671.469     8609.467     2857.491        6.602        0.957      333.012       49.171        0.022      344.567       21.473      860.640
04/21/2013  18:59:00      -56.834      304.296      -36.009       49.710      102.789       31.270     2471.130    10565.530      977.828        5.557        0.701      309.558       34.572        0.012      344.572       21.483      860.622
04/21/2013  19:00:00     -153.806      304.438      -36.828       97.917      120.753       62.577     9587.646    14581.374     3915.887        7.288        1.404      341.084       63.812        0.035      344.577       21.490      860.618
04/21/2013  19:01:00      -98.801      278.742      -33.256       64.567       85.486       45.214     4168.842     7307.923     2044.283        5.104        0.676      295.734       40.077        0.018      344.602       21.535      860.633
04/21/2013  19:02:00      -66.820      305.642      -35.591       74.400      137.134       48.009     5535.421    18805.738     2304.891        6.289        1.332      312.861       54.977        0.031      344.582       21.499      860.653
04/21/2013  19:03:00     -126.399      213.748      -22.610       93.307      125.332       62.151     8706.219    15708.199     3862.786        4.522        1.414      248.324       56.158        0.051      344.605       21.539      860.665
04/21/2013  19:04:00     -122.868      222.651      -20.204       80.474      109.725       57.611     6476.118    12039.501     3319.075        4.345        1.092      254.302       61.856        0.059      344.537       21.423      860.659
04/21/2013  19:05:00     -192.637      396.180      -54.477      156.034      173.130       90.633    24346.584    29974.065     8214.426       12.977        3.127      440.531       79.359        0.032      344.511       21.377      860.646
04/21/2013  19:06:00     -126.525      343.940      -44.334      105.775      132.981       60.217    11188.316    17684.009     3626.132        8.438        1.625      366.474       60.980        0.028      344.512       21.381      860.659
04/21/2013  19:07:00     -121.498      352.360      -50.063      158.609      159.111       66.075    25156.736    25316.308     4365.902        9.812        2.742      372.719       69.696        0.035      344.487       21.337      860.676
04/21/2013  19:08:00      -68.590      341.626      -23.640       82.368      185.482       68.155     6784.522    34403.524     4645.071        8.389        2.292      348.443       91.497        0.069      344.448       21.271      860.691
04/21/2013  19:09:00     -106.152      354.262      -43.309       74.548      116.946       55.301     5557.431    13676.325     3058.172        8.046        1.115      369.824       50.125        0.018      344.442       21.259      860.686
04/21/2013  19:10:00     -120.980      369.464      -42.805       91.363      138.847       62.219     8347.139    19278.523     3871.265        9.223        1.575      388.767       59.904        0.024      344.429       21.238      860.683
04/21/2013  19:11:00     -107.823      366.663      -42.110      121.078      177.730       60.654    14659.974    31588.032     3678.859        9.887        2.496      382.188       73.717        0.037      344.446       21.267      860.687
04/21/2013  19:12:00      -97.769      226.163      -18.274      101.533      137.489       67.396    10308.922    18903.145     4542.233        4.739        1.688      246.391       64.679        0.069      344.414       21.212      860.703
04/21/2013  19:13:00     -106.785      382.503      -48.499      131.853       88.028       68.032    17385.301     7748.936     4628.366        9.491        1.488      397.129       59.258        0.022      344.425       21.231      860.692
04/21/2013  19:14:00     -102.716      230.342      -22.020       71.122      101.172       56.127     5058.291    10235.805     3150.223        4.126        0.922      252.206       47.337        0.035      344.406       21.198      860.704
04/21/2013  19:15:00      -40.596      376.718      -46.941       92.579      117.104       67.176     8570.840    13713.419     4512.641        8.628        1.340      378.899       60.987        0.026      344.384       21.160      860.706
04/21/2013  19:16:00      -80.766      255.358      -27.708       64.844      118.347       40.454     4204.794    14006.126     1636.555        4.617        0.992      267.826       47.921        0.032      344.406       21.198      860.704
04/21/2013  19:17:00      -67.402      145.143       -4.269       73.998       85.251       49.025     5475.704     7267.704     2403.458        2.038        0.757      160.029       49.500        0.096      344.357       21.115      860.711
04/21/2013  19:18:00     -119.053      195.616      -15.187       73.666      104.929       56.829     5426.609    11010.056     3229.588        3.616        0.983      228.997       49.160        0.046      344.387       21.167      860.727
04/21/2013  19:19:00     -100.350      219.553      -22.539       94.863      133.692       55.539     8998.962    17873.440     3084.542        4.436        1.498      241.399       60.779        0.063      344.386       21.165      860.716
04/21/2013  19:20:00      -86.877      216.955      -27.588       76.624      105.504       55.066     5871.218    11131.105     3032.241        3.770        1.002      233.703       48.852        0.044      344.333       21.075      860.711
04/21/2013  19:21:00     -166.971      410.839      -48.468      108.689      171.168       62.545    11813.387    29298.376     3911.914       12.201        2.251      443.472       78.834        0.032      344.274       20.974      860.719
04/21/2013  19:22:00     -147.186      345.924      -41.631       98.508      110.760       66.288     9703.789    12267.876     4394.113        8.471        1.318      375.935       58.659        0.024      344.266       20.959      860.728
04/21/2013  19:23:00     -125.512      317.359      -33.971       92.711      138.267       54.669     8595.282    19117.639     2988.652        7.416        1.535      341.277       47.789        0.020      344.259       20.947      860.739
04/21/2013  19:24:00     -139.255      347.186      -42.556       81.685      143.817       56.864     6672.403    20683.396     3233.553        8.616        1.529      374.072       49.058        0.017      344.253       20.939      860.766
04/21/2013  19:25:00     -139.387      208.763      -19.336       93.718       89.882       63.795     8783.141     8078.778     4069.794        4.215        1.047      251.020       57.338        0.052      344.243       20.921      860.771
04/21/2013  19:26:00     -115.790      278.579      -28.354       89.227       96.936       64.637     7961.401     9396.684     4177.999        5.667        1.077      301.685       50.846        0.028      344.200       20.847      860.777
04/21/2013  19:27:00     -152.772      285.272      -44.456       91.542      109.085       60.605     8380.010    11899.478     3673.022        6.532        1.198      323.603       54.902        0.029      344.210       20.864      860.785
04/21/2013  19:28:00      -49.961      290.523      -25.806       73.877      101.546       53.135     5457.869    10311.636     2823.375        5.308        0.930      294.788       46.127        0.024      344.162       20.780      860.793
04/21/2013  19:29:00     -115.372      235.374      -28.058       69.691       83.590       46.528     4856.872     6987.335     2164.884        4.175        0.700      262.129       32.472        0.015      344.166       20.788      860.810
04/21/2013  19:30:00     -120.558      232.092      -35.533       82.745       85.558       48.899     6846.743     7320.249     2391.142        4.311        0.828      261.536       40.591        0.024      344.186       20.821      860.817
04/21/2013  19:31:00     -125.807      197.940      -33.587       89.640       94.923       52.136     8035.300     9010.346     2718.127        3.795        0.988      234.537       41.279        0.031      344.165       20.787      860.845
04/21/2013  19:32:00     -118.802      297.396      -25.236       79.953      165.002       59.222     6392.471    27225.659     3507.256        7.015        1.856      320.248       42.989        0.018      344.148       20.759      860.849
04/21/2013  19:33:00     -117.689      213.080      -34.796       69.141      102.092       45.337     4780.495    10422.791     2055.479        3.886        0.863      243.421       37.165        0.023      344.137       20.739      860.868
04/21/2013  19:34:00     -161.215      218.861      -46.359      100.467       84.976       48.898    10093.539     7221.002     2390.974        4.787        0.985      271.828       47.600        0.031      344.110       20.694      860.863
04/21/2013  19:35:00     -140.362      249.672      -28.537       77.071       96.990       49.108     5939.897     9406.987     2411.571        5.030        0.888      286.422       45.559        0.025      344.049       20.587      860.873
04/21/2013  19:36:00      -93.436      167.334      -20.388       48.545       88.669       42.222     2356.632     7862.126     1782.712        2.457        0.600      191.653       35.069        0.033      344.026       20.549      860.881
04/21/2013  19:37:00     -133.728      138.217      -25.665       65.015       66.343       37.573     4226.910     4401.396     1411.762        2.384        0.502      192.320       33.044        0.030      344.032       20.562      860.891
04/21/2013  19:38:00     -206.016      255.045      -48.551       89.125      102.280       57.734     7943.219    10461.151     3333.243        6.579        1.087      327.858       61.276        0.035      343.990       20.490      860.917
04/21/2013  19:39:00     -189.015      209.730      -36.998      107.370       86.914       52.610    11528.391     7554.014     2767.861        5.146        1.093      282.336       55.935        0.039      343.919       20.365      860.939
04/21/2013  19:40:00     -216.646      214.176      -34.412      106.794      129.773       63.801    11404.882    16840.923     4070.588        6.315        1.616      304.643       71.597        0.055      343.889       20.316      860.957
04/21/2013  19:41:00     -147.647      190.793      -43.366       56.054       80.839       37.938     3141.999     6534.917     1439.316        3.560        0.556      241.250       23.767        0.010      343.846       20.242      860.976
04/21/2013  19:42:00     -107.451      175.377      -22.076       58.988       91.478       46.745     3479.614     8368.202     2185.067        2.841        0.702      205.676       42.678        0.043      343.777       20.125      860.995
04/21/2013  19:43:00     -161.538      260.113      -39.083       95.023      152.329       67.445     9029.327    23204.192     4548.850        6.602        1.839      306.191       63.234        0.043      343.778       20.128      861.001
04/21/2013  19:44:00     -180.002      230.381      -40.583       84.392      143.407       56.952     7121.958    20565.549     3243.580        5.902        1.547      292.363       60.710        0.043      343.778       20.126      861.014
04/21/2013  19:45:00     -141.697      248.225      -29.252       90.846      112.801       52.733     8252.924    12724.032     2780.762        5.315        1.188      285.821       53.207        0.035      343.767       20.107      861.019
04/21/2013  19:46:00     -158.170      284.187      -33.389      103.860      136.624       59.806    10786.912    18666.103     3576.812        6.996        1.651      325.239       59.941        0.034      343.758       20.092      861.022
04/21/2013  19:47:00     -173.755      353.777      -36.281       98.242      131.677       80.491     9651.458    17338.923     6478.732        9.506        1.673      394.144       71.878        0.033      343.752       20.081      861.024
04/21/2013  19:48:00     -147.830      249.559      -27.657      110.379      138.759       76.671    12183.536    19253.995     5878.405        6.110        1.866      290.058       81.142        0.078      343.745       20.070      861.041
04/21/2013  19:49:00     -155.278      270.404      -45.161      100.801      146.486       55.559    10160.792    21458.151     3086.773        6.698        1.735      311.816       67.123        0.046      343.741       20.063      861.052
04/21/2013  19:50:00     -150.998      273.581      -29.748       71.732      102.362       53.662     5145.411    10477.983     2879.575        5.851        0.925      312.485       45.790        0.021      343.717       20.022      861.061
04/21/2013  19:51:00     -228.336      285.548      -60.258       93.327       97.578       57.572     8709.882     9521.419     3314.537        7.942        1.077      365.616       59.254        0.026      343.750       20.078      861.067
04/21/2013  19:52:00     -166.420      275.822      -36.003      108.377      122.513       75.296    11745.660    15009.358     5669.539        6.874        1.621      322.139       84.025        0.068      343.731       20.047      861.073
04/21/2013  19:53:00     -179.544      199.119      -42.287       85.482      106.536       53.484     7307.181    11349.911     2860.546        4.759        1.076      268.113       59.844        0.050      343.746       20.071      861.087
04/21/2013  19:54:00     -166.869      278.974      -38.408       90.314      100.070       63.462     8156.533    10014.056     4027.429        6.467        1.110      325.072       53.167        0.027      343.759       20.093      861.102
04/21/2013  19:55:00     -181.856      225.778      -35.428       87.664      103.899       50.044     7684.911    10794.902     2504.388        5.314        1.049      289.910       50.119        0.030      343.730       20.046      861.104
04/21/2013  19:56:00     -186.714      243.457      -45.156      110.142      126.197       63.318    12131.338    15925.588     4009.215        6.411        1.603      306.812       71.784        0.055      343.720       20.027      861.115
04/21/2013  19:57:00     -159.081      208.955      -33.529       70.214      106.889       53.070     4929.977    11425.232     2816.386        4.463        0.959      262.620       58.609        0.050      343.698       19.989      861.142
04/21/2013  19:58:00     -119.124      227.710      -38.025       70.125       99.715       44.025     4917.568     9943.167     1938.231        4.214        0.840      256.987       45.845        0.032      343.666       19.936      861.161
04/21/2013  19:59:00     -203.555      324.821      -53.389       84.709       97.167       52.663     7175.613     9441.376     2773.420        8.459        0.970      383.332       40.874        0.011      343.692       19.979      861.166
04/21/2013  20:00:00     -155.509      251.024      -27.819       89.576      147.603       61.595     8023.780    21786.760     3793.898        6.078        1.680      295.290       63.318        0.046      343.665       19.933      861.179
04/21/2013  20:01:00     -150.904      272.729      -43.138      101.622      143.425       54.229    10327.042    20570.836     2940.813        6.642        1.692      311.694       55.992        0.032      343.660       19.926      861.203
04/21/2013  20:02:00     -147.723      229.243      -32.674      110.165      150.101       57.698    12136.435    22530.431     3329.088        5.671        1.900      272.717       61.588        0.051      343.650       19.908      861.204
04/21/2013  20:03:00     -168.494      246.797      -45.347      100.334      101.309       63.723    10066.825    10263.592     4060.636        5.787        1.220      298.829       52.912        0.031      343.645       19.898      861.221
04/21/2013  20:04:00     -182.108      364.437      -58.635       98.320      109.217       67.120     9666.814    11928.458     4505.138        9.775        1.305      407.403       71.117        0.030      343.647       19.902      861.239
04/21/2013  20:05:00     -167.967      257.837      -50.548       83.907       97.664       51.129     7040.442     9538.231     2614.154        5.822        0.960      307.722       53.677        0.030      343.623       19.860      861.254
04/21/2013  20:06:00     -180.296      218.629      -35.490       90.957      114.531       58.371     8273.184    13117.258     3407.126        5.318        1.240      283.382       51.355        0.033      343.604       19.828      861.260
04/21/2013  20:07:00     -219.974      244.769      -58.625       96.433      129.181       55.960     9299.401    16687.617     3131.508        7.042        1.456      329.091       60.199        0.033      343.606       19.833      861.270
04/21/2013  20:08:00     -189.535      266.736      -43.313       86.193      119.643       58.680     7429.164    14314.565     3443.377        6.706        1.259      327.218       59.873        0.033      343.544       19.728      861.277
04/21/2013  20:09:00     -164.983      212.318      -35.189       69.082       99.593       50.142     4772.324     9918.742     2514.201        4.537        0.860      268.883       52.893        0.039      343.519       19.684      861.289
04/21/2013  20:10:00     -137.181      164.757      -19.951       72.857       88.077       39.576     5308.148     7757.594     1566.261        3.049        0.732      214.391       32.201        0.023      343.485       19.627      861.297
04/21/2013  20:11:00     -156.271      225.728      -25.381       96.238      108.525       62.119     9261.825    11777.769     3858.736        5.045        1.245      274.542       51.230        0.035      343.472       19.604      861.295
04/21/2013  20:12:00     -105.335      175.146      -22.385       68.790       97.316       54.186     4732.010     9470.499     2936.117        2.970        0.857      204.381       53.493        0.069      343.434       19.540      861.316
04/21/2013  20:13:00      -88.664      172.109      -18.180       65.020       88.736       43.620     4227.643     7874.068     1902.692        2.591        0.700      193.605       42.673        0.049      343.415       19.508      861.311
04/21/2013  20:14:00     -167.882      199.234      -35.008      107.531      110.293       63.006    11562.957    12164.610     3969.746        4.840        1.385      260.535       67.159        0.066      343.445       19.558      861.322
04/21/2013  20:15:00     -164.770      245.282      -28.084       93.634      121.378       59.007     8767.247    14732.717     3481.871        5.754        1.349      295.487       61.703        0.044      343.437       19.545      861.337
04/21/2013  20:16:00     -183.866      190.549      -34.618       98.313      117.870       69.111     9665.532    13893.340     4776.344        4.982        1.417      264.793       61.476        0.054      343.477       19.614      861.344
04/21/2013  20:17:00     -202.491      205.402      -47.624      100.888      102.921       56.485    10178.387    10592.748     3190.539        5.471        1.198      288.431       61.450        0.045      343.490       19.635      861.360
04/21/2013  20:18:00     -151.515      204.312      -31.169       86.453       85.953       45.520     7474.129     7387.944     2072.031        4.130        0.847      254.363       31.961        0.016      343.464       19.590      861.399
04/21/2013  20:19:00     -121.014      199.502      -18.564       74.129       87.543       52.574     5495.046     7663.748     2764.071        3.535        0.796      233.335       51.711        0.049      343.405       19.490      861.425
04/21/2013  20:20:00     -191.534      262.480      -41.917       94.817      126.281       61.923     8990.239    15946.978     3834.450        6.805        1.439      324.932       61.619        0.036      343.422       19.518      861.437
04/21/2013  20:21:00     -198.071      244.407      -54.361      111.005      122.959       61.578    12322.161    15118.942     3791.872        6.657        1.562      314.590       76.267        0.059      343.409       19.497      861.441
04/21/2013  20:22:00     -113.982      168.174      -20.734       80.041      105.788       52.074     6406.633    11191.124     2711.651        3.100        1.015      203.161       58.960        0.084      343.382       19.452      861.476
04/21/2013  20:23:00     -132.774      139.213      -10.206       75.400       86.836       48.429     5685.219     7540.478     2345.338        2.634        0.779      192.377       38.223        0.039      343.411       19.499      861.486
04/21/2013  20:24:00     -160.720      187.939      -36.325       91.684      106.877       55.837     8405.992    11422.790     3117.738        4.270        1.147      247.289       60.644        0.060      343.427       19.529      861.511
04/21/2013  20:25:00     -159.145      190.763      -30.110       87.135       93.995       48.388     7592.459     8835.032     2341.380        4.069        0.938      248.431       52.612        0.045      343.383       19.451      861.515
04/21/2013  20:26:00     -105.596      248.334      -28.033       91.650       83.286       49.277     8399.773     6936.609     2428.217        4.568        0.888      269.853       45.717        0.029      343.320       19.345      861.541
04/21/2013  20:27:00     -191.959      189.901      -45.077       82.658      109.962       51.888     6832.346    12091.565     2692.348        4.827        1.081      270.020       55.506        0.042      343.331       19.367      861.542
04/21/2013  20:28:00     -160.584      189.565      -29.663       75.155      106.686       51.043     5648.248    11381.948     2605.373        4.111        0.982      248.439       42.518        0.029      343.345       19.388      861.555
04/21/2013  20:29:00     -206.793      187.942      -40.637      121.927       80.390       58.190    14866.107     6462.598     3386.036        5.222        1.236      279.438       59.726        0.046      343.350       19.398      861.561
04/21/2013  20:30:00     -208.604      222.055      -40.551      120.321      123.403       56.406    14477.037    15228.342     3181.668        6.367        1.644      304.670       61.783        0.041      343.347       19.391      861.564
04/21/2013  20:31:00     -187.949      223.357      -30.423       91.356      124.894       59.606     8345.923    15598.492     3552.867        5.681        1.375      291.913       58.284        0.040      343.301       19.312      861.579
04/21/2013  20:32:00     -111.971      115.298      -10.287      107.442       77.425       52.813    11543.813     5994.631     2789.233        2.313        1.016      160.721       49.122        0.093      343.245       19.218      861.594
04/21/2013  20:33:00     -122.206      192.095      -26.591       76.404       91.005       51.867     5837.545     8281.887     2690.135        3.467        0.840      227.673       45.129        0.039      343.252       19.231      861.616
04/21/2013  20:34:00     -158.794      169.221      -32.158       71.398       92.063       45.737     5097.737     8475.600     2091.909        3.527        0.783      232.059       45.989        0.039      343.249       19.224      861.633
04/21/2013  20:35:00     -170.946      278.047      -50.054      101.042      114.942       65.177    10209.425    13211.746     4247.990        6.835        1.383      326.394       70.531        0.047      343.306       19.323      861.649
04/21/2013  20:36:00     -161.775      239.585      -25.508       76.362      120.525       66.321     5831.176    14526.249     4398.468        5.448        1.238      289.089       52.354        0.033      343.307       19.323      861.663
04/21/2013  20:37:00     -218.469      216.401      -50.986      105.457      108.002       58.402    11121.226    11664.484     3410.770        6.167        1.310      307.503       67.983        0.049      343.322       19.348      861.679
04/21/2013  20:38:00     -172.256      234.237      -41.091       81.631      100.029       59.362     6663.574    10005.791     3523.866        5.321        1.010      290.757       62.244        0.046      343.334       19.369      861.701
04/21/2013  20:39:00      -89.970       76.678       -9.567       71.129       83.123       48.749     5059.265     6909.377     2376.417        1.420        0.717      118.212       45.903        0.151      343.318       19.346      861.736
04/21/2013  20:40:00     -130.246      114.735      -28.453       55.083      102.919       42.186     3034.142    10592.384     1779.623        2.317        0.770      173.574       32.363        0.035      343.289       19.295      861.767
04/21/2013  20:41:00     -161.267      131.929      -23.163       74.608      154.002       54.891     5566.385    23716.664     3013.027        3.812        1.615      208.356       50.997        0.060      343.292       19.298      861.804
04/21/2013  20:42:00     -113.239       32.478      -17.604       66.329       63.921       44.201     4399.546     4085.887     1953.738        1.231        0.522      117.804       34.820        0.087      343.301       19.316      861.842
04/21/2013  20:43:00     -160.251       31.133      -33.831       77.074       66.610       42.457     5940.406     4436.838     1802.629        1.998        0.609      163.247       42.643        0.068      343.271       19.263      861.886
04/21/2013  20:44:00     -163.227      107.862      -17.126       99.543      109.682       70.416     9908.796    12030.237     4958.459        3.273        1.345      195.646       73.190        0.140      343.248       19.222      861.905
04/21/2013  20:45:00     -116.715      -32.544      -15.261       45.588       67.865       34.960     2078.306     4605.680     1222.216        1.141        0.395      121.167       40.071        0.109      343.248       19.227      861.917
04/21/2013  20:46:00     -155.569      -37.478       -0.594       70.604       51.093       33.302     4984.951     2610.540     1109.054        1.715        0.435      160.020       30.437        0.036      343.145       19.050      861.946
04/21/2013  20:47:00     -105.135       -3.996       -9.864       96.126       41.752       41.344     9240.257     1743.235     1709.352        1.193        0.635      105.211       50.839        0.233      343.131       19.025      861.966
04/21/2013  20:48:00     -141.445       -8.792       -3.661      110.847       54.927       33.744    12286.989     3016.936     1138.660        1.827        0.822      141.718       43.947        0.096      343.051       18.889      861.994
04/21/2013  20:49:00     -112.790      -33.845        1.858       92.737       52.826       34.809     8600.059     2790.588     1211.637        1.323        0.630      117.759       35.976        0.093      342.956       18.728      862.006
04/21/2013  20:50:00      -93.885     -100.036        2.534       64.464       60.003       40.033     4155.571     3600.418     1602.625        1.409        0.468      137.191       41.108        0.090      342.851       18.549      862.026
04/21/2013  20:51:00     -125.792     -107.581        1.582       55.744       43.269       35.354     3107.394     1872.203     1249.931        1.681        0.311      165.522       24.114        0.021      342.695       18.284      862.060
04/21/2013  20:52:00      -88.126      -93.060        0.221       68.000       53.340       39.549     4624.065     2845.139     1564.114        1.273        0.452      128.165       37.432        0.085      342.650       18.207      862.082
04/21/2013  20:53:00     -112.954      -86.631       -1.578       72.516       58.974       41.507     5258.542     3477.890     1722.835        1.536        0.523      142.350       32.314        0.052      342.610       18.141      862.103
04/21/2013  20:54:00     -122.945      -73.250       -2.977       77.206       66.641       46.476     5960.711     4441.088     2160.005        1.652        0.628      143.112       45.615        0.102      342.537       18.014      862.103
04/21/2013  20:55:00     -161.801      -98.707      -13.740       70.715       56.861       29.804     5000.569     3233.208      888.258        2.261        0.456      189.532       27.304        0.021      342.586       18.097      862.114
04/21/2013  20:56:00     -169.631     -109.592      -10.390       80.414       68.042       41.261     6466.456     4629.662     1702.480        2.684        0.640      201.954       42.779        0.045      342.535       18.009      862.120
04/21/2013  20:57:00     -137.968      -81.610       -3.136       85.110       73.832       41.201     7243.671     5451.213     1697.541        2.005        0.720      160.298       42.709        0.071      342.525       17.995      862.139
04/21/2013  20:58:00      -91.510      -35.716        8.739       91.192       75.177       32.723     8316.061     5651.653     1070.762        1.238        0.752       98.233       40.218        0.168      342.545       18.028      862.144
04/21/2013  20:59:00     -158.186      -34.045       -9.711       64.962       45.964       35.260     4220.058     2112.657     1243.254        1.692        0.379      161.809       26.813        0.027      342.626       18.167      862.169
04/21/2013  21:00:00      -94.214      -11.166       -0.055       42.300       43.561       19.649     1789.313     1897.532      386.067        0.654        0.204       94.873       10.407        0.012      342.582       18.091      862.196
04/21/2013  21:01:00      -95.810      -41.225        7.163       58.703       41.434       25.993     3446.085     1716.789      675.613        0.838        0.292      104.303       27.141        0.068      342.549       18.036      862.212
04/21/2013  21:02:00     -166.140      -42.344       -6.150       72.373       54.066       34.184     5237.832     2923.089     1168.561        1.938        0.466      171.451       22.056        0.017      342.589       18.102      862.231
04/21/2013  21:03:00     -190.056      -20.084      -15.323       48.449       51.006       29.399     2347.271     2601.595      864.309        2.129        0.291      191.114       18.842        0.010      342.585       18.094      862.248
04/21/2013  21:04:00     -130.598      -44.026       -7.102       68.146       44.725       32.458     4643.945     2000.346     1053.495        1.337        0.385      137.819       37.169        0.073      342.498       17.949      862.256
04/21/2013  21:05:00      -98.186      -25.831       14.487       86.170       65.450       38.001     7425.347     4283.737     1444.085        1.183        0.658      101.527       41.629        0.168      342.560       18.054      862.257
04/21/2013  21:06:00     -248.556        0.272      -24.840       99.666       54.682       45.962     9933.349     2990.134     2112.538        3.871        0.752      248.556       46.743        0.035      342.702       18.293      862.271
04/21/2013  21:07:00     -271.545      -14.765      -25.190       71.688       64.607       45.263     5139.192     4174.075     2048.705        4.297        0.568      271.946       40.533        0.022      342.679       18.254      862.292
04/21/2013  21:08:00     -216.125      -17.406      -18.137       62.282       53.481       34.768     3878.990     2860.179     1208.840        2.764        0.397      216.825       33.074        0.023      342.638       18.184      862.327
04/21/2013  21:09:00     -208.781       25.186      -17.159       77.599       62.016       44.302     6021.591     3845.961     1962.705        2.817        0.592      210.295       43.245        0.042      342.624       18.160      862.333
04/21/2013  21:10:00     -141.218       24.322      -19.242       48.018       59.144       28.711     2305.701     3497.964      824.310        1.376        0.331      143.297       27.461        0.037      342.584       18.095      862.369
04/21/2013  21:11:00     -185.466       21.525      -19.589       64.680       87.522       38.753     4183.565     7660.126     1501.796        2.429        0.667      186.710       27.462        0.022      342.618       18.152      862.379
04/21/2013  21:12:00     -145.194       99.001      -25.138       65.542       72.490       46.663     4295.817     5254.838     2177.406        2.162        0.586      175.734       46.268        0.069      342.749       18.374      862.406
04/21/2013  21:13:00     -123.020       61.484      -18.105       91.836       72.653       38.008     8433.913     5278.410     1444.636        1.720        0.758      137.529       33.366        0.059      342.737       18.355      862.422
04/21/2013  21:14:00      -97.215      115.513      -10.379       71.245       89.433       45.787     5075.833     7998.272     2096.420        1.903        0.759      150.977       38.396        0.065      342.788       18.442      862.445
04/21/2013  21:15:00      -89.180       27.164       -3.575       69.167       63.162       41.830     4784.032     3989.500     1749.772        0.961        0.526       93.226       32.250        0.120      342.778       18.426      862.455
04/21/2013  21:16:00     -121.297       85.365      -23.613       44.798       80.888       36.299     2006.890     6542.799     1317.585        1.621        0.493      148.325       33.650        0.051      342.898       18.630      862.486
04/21/2013  21:17:00      -85.150       63.863      -14.777       48.279       61.068       38.657     2330.908     3729.328     1494.385        0.955        0.378      106.438       31.235        0.086      342.842       18.534      862.491
04/21/2013  21:18:00      -76.873       18.870        2.806       66.480       38.748       25.663     4419.623     1501.392      658.608        0.643        0.329       79.155       21.687        0.075      342.758       18.391      862.497
04/21/2013  21:19:00     -127.807      113.717      -24.916       76.890       77.884       43.957     5912.103     6065.926     1932.238        2.190        0.696      171.074       45.256        0.070      342.808       18.475      862.520
04/21/2013  21:20:00     -105.599      105.323       -2.145       83.341       63.331       44.703     6945.760     4010.869     1998.350        1.760        0.648      149.144       35.555        0.057      342.813       18.484      862.547
04/21/2013  21:21:00     -133.912      162.205      -24.310       62.931       87.108       37.726     3960.311     7587.883     1423.247        2.890        0.649      210.340       29.147        0.019      342.851       18.548      862.553
04/21/2013  21:22:00      -83.095       60.955       -7.757       56.067       62.112       29.676     3143.551     3857.862      880.637        0.928        0.394      103.054       16.109        0.024      342.846       18.541      862.567
04/21/2013  21:23:00      -84.722      -10.020       -3.401       42.794       50.488       32.426     1831.336     2549.033     1051.447        0.636        0.272       85.312       21.766        0.065      342.836       18.524      862.581
04/21/2013  21:24:00     -100.821       17.993       -4.511       97.344       89.551       43.398     9475.844     8019.343     1883.427        1.494        0.969      102.414       50.595        0.244      342.732       18.345      862.601
04/21/2013  21:25:00     -189.081       65.523      -21.741       64.763       75.752       37.342     4194.270     5738.389     1394.459        2.592        0.566      200.112       35.692        0.032      342.641       18.190      862.603
04/21/2013  21:26:00     -138.935      -15.483        5.844       96.482       57.841       46.382     9308.707     3345.599     2151.255        1.719        0.740      139.795       43.762        0.098      342.527       17.997      862.630
04/21/2013  21:27:00      -97.296       56.633      -15.066       48.873       76.297       35.462     2388.548     5821.232     1257.582        1.118        0.473      112.578       28.720        0.065      342.479       17.917      862.650
04/21/2013  21:28:00     -138.101       44.721      -21.682       51.645       71.806       43.665     2667.254     5156.094     1906.616        1.563        0.486      145.162       43.490        0.090      342.444       17.859      862.659
04/21/2013  21:29:00      -81.665        8.044       -4.143       58.426       68.065       36.750     3413.557     4632.872     1350.561        0.807        0.470       82.060       33.305        0.165      342.427       17.829      862.674
04/21/2013  21:30:00     -121.885       76.642       -6.614       55.218       78.144       34.965     3049.047     6106.454     1222.540        1.557        0.519      143.979       25.125        0.030      342.467       17.895      862.679
04/21/2013  21:31:00     -108.761      114.794      -24.236       43.868       47.028       31.911     1924.417     2211.610     1018.313        1.537        0.258      158.135       24.957        0.025      342.462       17.888      862.686
04/21/2013  21:32:00      -89.043       62.665       -7.116       82.147       93.689       44.783     6748.160     8777.558     2005.530        1.472        0.877      108.883       43.623        0.161      342.476       17.912      862.699
04/21/2013  21:33:00      -89.168       82.201       -9.951       62.894      102.408       46.669     3955.651    10487.446     2178.004        1.571        0.831      121.277       51.518        0.180      342.461       17.885      862.702
04/21/2013  21:34:00      -60.390      104.470      -11.973       40.912       72.568       37.351     1673.806     5266.079     1395.092        1.152        0.417      120.669       35.471        0.086      342.409       17.798      862.720
04/21/2013  21:35:00      -99.269      169.990      -14.144       50.794       72.820       38.582     2580.043     5302.765     1488.586        2.416        0.469      196.852       39.090        0.039      342.429       17.830      862.730
04/21/2013  21:36:00      -61.417      166.078      -13.939       57.383       62.193       37.516     3292.774     3868.018     1407.421        2.006        0.428      177.070       31.809        0.032      342.411       17.800      862.760
04/21/2013  21:37:00     -102.426      145.133      -23.052       67.947       62.196       38.766     4616.736     3868.353     1502.802        2.103        0.499      177.636       47.722        0.072      342.437       17.844      862.771
04/21/2013  21:38:00      -49.822      169.725      -11.765       57.758       57.372       34.572     3335.931     3291.536     1195.256        1.962        0.391      176.887       31.741        0.032      342.382       17.750      862.784
04/21/2013  21:39:00      -48.456      131.499       -9.288       42.272       51.616       27.106     1786.890     2664.257      734.716        1.245        0.259      140.143       22.233        0.025      342.379       17.746      862.801
04/21/2013  21:40:00      -61.077      168.070      -12.832       52.724       59.147       32.540     2779.809     3498.373     1058.851        1.974        0.367      178.824       29.181        0.027      342.372       17.734      862.807
04/21/2013  21:41:00      -55.191      138.646      -18.830       55.221       53.837       36.904     3049.378     2898.385     1361.890        1.497        0.365      149.227       25.705        0.030      342.364       17.721      862.816
04/21/2013  21:42:00      -84.184      135.107      -10.552       54.664       65.590       38.474     2988.134     4302.057     1480.236        1.711        0.439      159.188       31.830        0.040      342.358       17.709      862.844
04/21/2013  21:43:00      -76.511      141.009      -15.991       64.626       68.244       34.063     4176.512     4657.277     1160.281        1.799        0.500      160.429       26.271        0.027      342.372       17.735      862.863
04/21/2013  21:44:00      -90.731      227.302      -28.359       53.531       84.797       38.824     2865.555     7190.472     1507.314        3.613        0.578      244.742       34.603        0.020      342.312       17.630      862.876
04/21/2013  21:45:00      -46.058      126.113      -17.160       54.904       61.672       32.336     3014.495     3803.402     1045.644        1.309        0.393      134.260       27.398        0.042      342.298       17.610      862.890
04/21/2013  21:46:00      -78.792      144.880      -22.970       74.448       73.223       44.728     5542.440     5361.654     2000.607        2.031        0.645      164.919       46.149        0.078      342.266       17.554      862.913
04/21/2013  21:47:00     -135.660      174.034      -25.207       89.794       97.803       48.448     8063.042     9565.446     2347.165        3.465        0.999      220.661       59.182        0.072      342.288       17.592      862.914
04/21/2013  21:48:00     -104.564       82.729      -26.497       72.768       55.615       31.125     5295.243     3092.992      968.774        1.392        0.468      133.333       44.967        0.114      342.299       17.610      862.925
04/21/2013  21:49:00      -75.965      231.599      -23.335       84.924      133.805       47.895     7212.108    17903.772     2293.927        4.368        1.370      243.739       60.490        0.062      342.224       17.483      862.934
04/21/2013  21:50:00      -82.899      210.624      -22.301       71.744       94.156       42.657     5147.136     8865.310     1819.615        3.378        0.792      226.350       45.696        0.041      342.255       17.533      862.940
04/21/2013  21:51:00        5.461      131.693       -9.393       41.451       70.305       40.250     1718.166     4942.782     1620.031        1.287        0.414      131.806       44.404        0.113      342.124       17.315      862.954
04/21/2013  21:52:00      -14.380      115.692       -8.973       38.187       42.865       25.588     1458.235     1837.399      654.733        0.881        0.198      116.583       21.649        0.034      342.106       17.283      862.960
04/21/2013  21:53:00      -60.786      141.836       -9.768       75.209       73.844       44.708     5656.320     5452.974     1998.780        1.851        0.655      154.313       42.769        0.077      342.084       17.247      862.962
04/21/2013  21:54:00       -7.108      187.888      -16.117       48.658       69.878       45.528     2367.627     4882.873     2072.789        2.247        0.466      188.022       43.139        0.053      342.090       17.253      862.975
04/21/2013  21:55:00      -33.205      156.836      -25.154       56.308       48.884       29.346     3170.636     2389.678      861.211        1.638        0.321      160.312       16.668        0.011      342.104       17.278      862.983
04/21/2013  21:56:00        4.595      196.366      -17.285       47.835       99.728       39.621     2288.194     9945.749     1569.857        2.634        0.690      196.420       50.888        0.067      342.040       17.169      862.997
04/21/2013  21:57:00       27.736       86.747       10.504       49.539       97.735       46.444     2454.073     9552.111     2157.066        1.128        0.708       91.074       47.388        0.271      341.987       17.080      862.995
04/21/2013  21:58:00       42.888       57.580        4.348       53.899       37.646       34.568     2905.088     1417.204     1194.920        0.534        0.276       71.797       24.449        0.116      341.933       16.990      862.984
04/21/2013  21:59:00       45.453       98.789      -11.027       53.495       58.716       30.765     2861.727     3447.603      946.492        0.960        0.363      108.744       31.216        0.082      341.888       16.912      862.972
04/21/2013  22:00:00       -8.372      235.618      -37.927       54.696       50.804       27.370     2991.646     2581.082      749.095        3.167        0.316      235.766       20.585        0.008      341.944       17.004      862.988
04/21/2013  22:01:00      -39.013      139.972      -24.579       56.208       54.209       18.622     3159.373     2938.609      346.771        1.408        0.322      145.308       17.962        0.015      341.963       17.040      862.999
04/21/2013  22:02:00      -58.299      107.301      -19.306       37.487       38.348       18.529     1405.250     1470.594      343.329        0.925        0.161      122.116       14.036        0.013      341.950       17.019      863.008
04/21/2013  22:03:00      -16.115       93.713      -13.400       37.976       55.344       22.444     1442.165     3062.980      503.752        0.711        0.250       95.089       20.301        0.046      341.952       17.023      863.015
04/21/2013  22:04:00       20.517      119.154       -0.121       60.108       58.869       36.334     3613.014     3465.570     1320.151        1.151        0.420      120.907       39.580        0.107      341.868       16.878      862.997
04/21/2013  22:05:00        6.541      128.317      -21.178       42.765       49.671       28.252     1828.873     2467.218      798.194        1.102        0.255      128.484       24.696        0.037      341.811       16.784      862.993
04/21/2013  22:06:00       38.170      125.416      -19.016       29.810      100.606       31.797      888.614    10121.481     1011.032        1.478        0.601      131.096       42.383        0.105      341.754       16.685      862.996
04/21/2013  22:07:00       40.376      111.190      -10.201       49.679       72.858       41.524     2468.009     5308.272     1724.247        1.180        0.475      118.294       37.957        0.103      341.710       16.611      862.975
04/21/2013  22:08:00       26.150       52.457       27.359       88.010       44.245       44.093     7745.827     1957.646     1944.200        0.791        0.582       58.614       41.741        0.507      341.646       16.503      862.970
04/21/2013  22:09:00       31.177      127.587      -16.107       37.162       58.016       31.435     1381.051     3365.832      988.146        1.162        0.287      131.341       28.463        0.047      341.638       16.490      862.981
04/21/2013  22:10:00       33.030      122.118      -15.490       37.198       58.236       32.063     1383.691     3391.416     1028.042        1.102        0.290      126.506       31.628        0.063      341.658       16.522      862.983
04/21/2013  22:11:00      -55.988      178.130      -20.289       46.781       61.220       26.886     2188.423     3747.935      722.848        2.097        0.333      186.721       23.077        0.015      341.683       16.564      863.004
04/21/2013  22:12:00      -18.913      133.426       -9.694       31.702       58.144       24.258     1004.992     3380.706      588.447        1.161        0.249      134.760       31.783        0.056      341.671       16.545      863.027
04/21/2013  22:13:00      -11.492       35.756        4.627       28.267       35.574       24.966      799.000     1265.523      623.286        0.206        0.134       37.558       14.583        0.151      341.628       16.472      863.050
04/21/2013  22:14:00       14.463       16.603       -5.899       27.137       27.809       26.104      736.410      773.350      681.410        0.135        0.110       22.019       15.009        0.465      341.701       16.597      863.053
04/21/2013  22:15:00       10.951      -35.472      -22.138       21.852       62.848       17.829      477.491     3949.860      317.886        0.331        0.237       37.123       28.851        0.604      341.759       16.697      863.067
04/21/2013  22:16:00      -47.858      -85.152       -3.219       42.162       37.553       27.270     1777.674     1410.250      743.673        0.674        0.197       97.679       16.114        0.027      341.857       16.861      863.088
04/21/2013  22:17:00       -2.921      -77.226       -8.000       31.550       41.527       22.656      995.393     1724.456      513.284        0.463        0.162       77.281       12.669        0.027      341.870       16.883      863.117
04/21/2013  22:18:00       17.217      -38.013       20.700       32.133       48.316       23.549     1032.547     2334.404      554.537        0.304        0.196       41.730       21.190        0.258      341.787       16.741      863.144
04/21/2013  22:19:00        9.700      -15.025       31.995       25.454       50.137       30.058      647.881     2513.731      903.454        0.270        0.203       17.884       20.928        1.369      341.730       16.645      863.151
04/21/2013  22:20:00       15.054      -58.970       26.085       29.139       65.894       37.632      849.060     4341.985     1416.171        0.549        0.330       60.861       44.168        0.527      341.789       16.745      863.166
04/21/2013  22:21:00       41.542     -127.090      -32.334       42.551       42.870       28.395     1810.615     1837.829      806.284        1.169        0.223      133.707       19.419        0.021      341.862       16.870      863.178
04/21/2013  22:22:00       87.648     -149.230      -21.107       45.125       49.252       35.806     2036.278     2425.756     1282.036        1.807        0.287      173.066       28.793        0.028      342.021       17.138      863.195
04/21/2013  22:23:00       44.066      -91.870      -15.752       38.024       49.062       30.578     1445.820     2407.095      935.019        0.771        0.239      101.892       20.102        0.039      342.012       17.123      863.236
04/21/2013  22:24:00       -2.162       19.932       35.663       17.547       23.395       16.379      307.898      547.325      268.261        0.140        0.056       20.049       11.030        0.303      341.852       16.854      863.245
04/21/2013  22:25:00       -2.130       -2.154       41.809       25.802       33.690       19.336      665.744     1134.991      373.875        0.197        0.109        3.029       17.399       32.985      341.782       16.734      863.253
04/21/2013  22:26:00        5.209        9.780       37.139       18.698       33.492       16.006      349.615     1121.728      256.177        0.161        0.086       11.081       13.721        1.533      341.735       16.654      863.269
04/21/2013  22:27:00        6.844       -0.274       40.174       25.356       32.927       25.258      642.938     1084.165      637.985        0.201        0.118        6.849       23.323       11.596      341.799       16.762      863.276
04/21/2013  22:28:00       53.249      -16.875       49.566       50.352       60.004       44.551     2535.299     3600.476     1984.765        0.685        0.406       55.859       40.068        0.515      341.751       16.682      863.278
04/21/2013  22:29:00       28.512       31.116       65.280       51.933       51.011       40.313     2697.010     2602.150     1625.122        0.648        0.346       42.204       39.912        0.894      341.695       16.585      863.272
04/21/2013  22:30:00       32.072       36.248       57.688       33.455       39.001       21.726     1119.228     1521.067      472.030        0.439        0.156       48.399       20.161        0.174      341.635       16.484      863.308
04/21/2013  22:31:00       62.501       40.258       42.924       66.809       68.230       54.783     4463.452     4655.345     3001.151        0.974        0.606       74.345       44.323        0.355      341.722       16.633      863.334
04/21/2013  22:32:00      161.256      113.412       25.303       77.727       51.552       43.225     6041.490     2657.648     1868.443        2.503        0.528      197.144       35.169        0.032      341.634       16.479      863.340
04/21/2013  22:33:00      124.685       98.885       66.938       68.575       61.155       54.124     4702.550     3739.935     2929.438        2.059        0.569      159.138       41.249        0.067      341.498       16.249      863.353
04/21/2013  22:34:00      183.621       86.087       39.587      104.569       79.298       64.811    10934.667     6288.176     4200.509        3.205        1.071      202.799       54.719        0.073      341.562       16.358      863.353
04/21/2013  22:35:00      131.922       86.854       28.805       83.112       57.243       46.970     6907.576     3276.768     2206.223        1.908        0.620      157.946       49.147        0.097      341.456       16.179      863.367
04/21/2013  22:36:00      151.882       95.874       32.275       71.532       56.638       47.394     5116.822     3207.819     2246.163        2.193        0.529      179.611       27.074        0.023      341.443       16.156      863.374
04/21/2013  22:37:00      144.969      102.238       32.423       48.966       40.284       30.333     2397.713     1622.831      920.103        1.873        0.247      177.394       17.036        0.009      341.469       16.201      863.352
04/21/2013  22:38:00      157.088      110.180       59.676       85.207       57.916       59.839     7260.266     3354.252     3580.720        2.728        0.710      191.876       49.692        0.067      341.441       16.152      863.341
04/21/2013  22:39:00      135.153      104.573       47.217       96.044       58.900       65.665     9224.393     3469.192     4311.835        2.421        0.850      170.885       63.834        0.140      341.320       15.949      863.316
04/21/2013  22:40:00      206.675      129.180       21.829      101.364       84.175       56.220    10274.748     7085.436     3160.695        4.020        1.026      243.725       48.664        0.040      341.556       16.347      863.316
04/21/2013  22:41:00      197.397      124.756       41.770      106.325       69.382       60.976    11304.977     4813.861     3718.012        3.805        0.992      233.516       55.494        0.056      341.662       16.527      863.307
04/21/2013  22:42:00      155.651      109.736       23.519      112.943       73.205       62.331    12756.053     5358.969     3885.146        2.941        1.100      190.445       35.927        0.036      341.542       16.325      863.319
04/21/2013  22:43:00      150.756      110.228       16.881       94.848       73.896       55.543     8996.050     5460.652     3084.983        2.635        0.877      186.755       50.581        0.073      341.479       16.219      863.326
04/21/2013  22:44:00       77.325      119.176        3.318       68.140       73.371       61.450     4643.064     5383.350     3776.145        1.699        0.690      142.064       53.774        0.143      341.385       16.060      863.314
04/21/2013  22:45:00       48.471      112.471       -7.398       67.478       96.773       60.676     4553.244     9364.932     3681.605        1.632        0.880      122.472       59.991        0.240      341.361       16.019      863.315
04/21/2013  22:46:00       33.428      126.573      -17.546       57.200       96.636       46.195     3271.864     9338.563     2133.995        1.609        0.737      130.913       49.865        0.145      341.384       16.057      863.311
04/21/2013  22:47:00       24.696      173.437      -21.979       36.464       41.576       28.274     1329.630     1728.577      799.408        1.751        0.193      175.187       22.922        0.017      341.323       15.956      863.305
04/21/2013  22:48:00        5.985       98.448       -0.685       43.743       77.266       35.118     1913.408     5970.044     1233.275        0.942        0.456       98.629       41.717        0.179      341.270       15.866      863.289
04/21/2013  22:49:00       49.000      153.575       -6.985       67.482      100.478       51.399     4553.848    10095.808     2641.890        2.166        0.865      161.202       55.597        0.119      341.359       16.015      863.284
04/21/2013  22:50:00      -19.259      340.650      -35.060       57.816      130.308       47.696     3342.685    16980.216     2274.924        7.012        1.130      341.194       65.164        0.036      341.559       16.352      863.277
04/21/2013  22:51:00      -11.978      310.109      -39.749       42.345       65.391       29.252     1793.062     4275.977      855.665        5.241        0.346      310.340       32.269        0.011      341.570       16.369      863.273
04/21/2013  22:52:00      -52.575      229.930      -28.367       66.254       54.261       33.381     4389.530     2944.277     1114.298        3.244        0.422      235.865       28.769        0.015      341.483       16.222      863.278
04/21/2013  22:53:00      -83.137      233.226      -32.501       60.130       68.398       30.853     3615.634     4678.232      951.887        3.580        0.462      247.601       24.655        0.010      341.467       16.196      863.261
04/21/2013  22:54:00      -74.719      226.572      -26.269       50.252       55.060       31.585     2525.297     3031.555      997.642        3.208        0.328      238.575       21.379        0.008      341.429       16.131      863.258
04/21/2013  22:55:00      -72.157      220.823      -33.464       44.777       66.492       32.010     2004.954     4421.219     1024.646        3.127        0.373      232.314       32.871        0.020      341.448       16.163      863.267
04/21/2013  22:56:00      -40.571      251.645      -25.124       37.629       64.287       26.383     1415.938     4132.760      696.044        3.592        0.312      254.895       30.557        0.014      341.396       16.076      863.264
04/21/2013  22:57:00      -58.992      205.817      -20.475       33.893       55.633       26.396     1148.739     3095.082      696.765        2.560        0.247      214.104       27.119        0.016      341.377       16.045      863.266
04/21/2013  22:58:00      -75.253      179.655      -20.713       53.293       66.459       29.241     2840.146     4416.802      855.026        2.324        0.406      194.779       34.989        0.032      341.348       15.996      863.262
04/21/2013  22:59:00      -35.367      191.106      -18.554       51.843       58.934       27.658     2687.706     3473.193      764.988        2.252        0.346      194.351       24.929        0.016      341.290       15.898      863.255
04/21/2013  23:00:00      -32.185      182.496      -14.455       41.583       48.648       31.726     1729.153     2366.641     1006.566        1.982        0.255      185.313       28.625        0.024      341.214       15.770      863.267
04/21/2013  23:01:00      -51.438      185.109      -23.643       35.804       37.424       28.146     1281.951     1400.539      792.195        2.047        0.174      192.123       22.203        0.013      341.204       15.753      863.270
04/21/2013  23:02:00      -23.139      150.172      -20.382       40.675       34.991       22.537     1654.432     1224.342      507.909        1.344        0.169      151.944       18.395        0.015      341.172       15.701      863.277
04/21/2013  23:03:00       12.104      190.091      -29.361       33.243       47.495       26.088     1105.081     2255.766      680.585        2.059        0.202      190.476       27.390        0.021      341.120       15.610      863.293
04/21/2013  23:04:00      -17.678      179.048      -20.933       34.266       44.879       26.437     1174.138     2014.081      698.922        1.835        0.194      179.919       23.323        0.017      341.129       15.628      863.297
04/21/2013  23:05:00        2.538      187.566      -21.240       36.674       41.333       21.576     1344.988     1708.436      465.516        1.958        0.176      187.583       14.706        0.006      341.109       15.592      863.307
04/21/2013  23:06:00       10.394      109.158       -9.725       27.706       30.543       18.706      767.609      932.851      349.930        0.708        0.103      109.652       16.033        0.021      341.022       15.446      863.320
04/21/2013  23:07:00       -4.481      119.175       -7.860       25.192       37.027       18.401      634.656     1371.005      338.612        0.831        0.117      119.259       19.118        0.026      341.087       15.556      863.340
04/21/2013  23:08:00      -11.277      117.374      -16.141       19.421       20.876       12.179      377.192      435.811      148.320        0.756        0.048      117.914        7.052        0.004      341.073       15.533      863.351
04/21/2013  23:09:00      -14.635      125.916      -13.869       23.493       26.284       15.301      551.922      690.846      234.106        0.887        0.074      126.764       11.129        0.008      341.068       15.524      863.354
04/21/2013  23:10:00       -2.254      107.230       -1.621       32.487       46.920       24.003     1055.395     2201.502      576.126        0.767        0.192      107.253       27.439        0.065      340.997       15.404      863.357
04/21/2013  23:11:00       13.941      131.094      -14.230       33.702       26.922       21.271     1135.848      724.801      452.455        0.995        0.116      131.833       13.998        0.011      341.002       15.413      863.368
04/21/2013  23:12:00       22.722      125.690      -13.301       29.044       43.904       23.617      843.570     1927.559      557.784        0.991        0.166      127.728       25.465        0.040      340.931       15.292      863.365
04/21/2013  23:13:00       21.582       95.839       -3.947       31.061       45.369       25.115      964.776     2058.326      630.740        0.666        0.183       98.239       24.841        0.064      340.869       15.188      863.366
04/21/2013  23:14:00       47.405       96.410       -8.555       44.228       41.872       37.885     1956.080     1753.277     1435.294        0.838        0.257      107.435       30.557        0.081      340.856       15.166      863.356
04/21/2013  23:15:00       69.967      114.818       -4.700       50.572       74.777       43.361     2557.555     5591.577     1880.181        1.406        0.501      134.456       45.085        0.112      340.841       15.140      863.357
04/21/2013  23:16:00       93.344       92.784        0.423       53.716       40.021       36.952     2885.457     1601.689     1365.472        1.159        0.293      131.613       28.056        0.045      340.758       14.999      863.354
04/21/2013  23:17:00       92.544       95.153        8.019       61.639       56.603       49.489     3799.341     3203.931     2449.138        1.357        0.473      132.734       39.941        0.091      340.836       15.132      863.354
04/21/2013  23:18:00      111.047       88.485       24.000       64.355       62.093       49.783     4141.580     3855.567     2478.386        1.560        0.524      141.989       38.092        0.072      340.890       15.222      863.357
04/21/2013  23:19:00      213.362      124.643       20.559       65.391       51.720       48.572     4275.971     2674.909     2359.268        3.539        0.466      247.102       26.516        0.012      340.915       15.263      863.349
04/21/2013  23:20:00      153.313       94.894       15.042       55.450       57.145       39.702     3074.685     3265.510     1576.286        2.032        0.396      180.304       17.916        0.010      340.773       15.023      863.322
04/21/2013  23:21:00      119.209      112.624        2.917       64.109       56.041       42.085     4109.977     3140.570     1771.132        1.796        0.451      163.997       33.626        0.042      340.790       15.053      863.320
04/21/2013  23:22:00       96.787      127.582       -4.701       60.265       78.751       55.975     3631.889     6201.764     3133.161        1.931        0.648      160.140       47.491        0.088      340.835       15.128      863.319
04/21/2013  23:23:00       80.716      105.226        7.157       70.437       65.671       64.069     4961.346     4312.698     4104.774        1.551        0.669      132.618       51.497        0.151      340.812       15.089      863.316
04/21/2013  23:24:00       78.937       88.570       17.764       95.968       66.645       66.406     9209.925     4441.603     4409.732        1.622        0.903      118.641       54.474        0.211      340.815       15.094      863.326
04/21/2013  23:25:00       99.761       95.844       16.217       84.634       58.241       53.672     7162.994     3392.021     2880.663        1.642        0.672      138.341       38.496        0.077      340.775       15.027      863.318
04/21/2013  23:26:00       69.512       93.674        5.265       61.042       68.849       46.727     3726.152     4740.126     2183.437        1.214        0.532      116.647       42.726        0.134      340.769       15.018      863.316
04/21/2013  23:27:00       76.157       84.196        8.726       54.555       63.824       50.811     2976.219     4073.535     2581.767        1.130        0.482      113.529       40.176        0.125      340.768       15.017      863.298
04/21/2013  23:28:00       34.124       83.316       -7.856       46.297       55.088       34.739     2143.405     3034.732     1206.774        0.727        0.319       90.033       30.698        0.116      340.700       14.904      863.303
04/21/2013  23:29:00       92.087       80.817        4.757       60.498       50.849       39.105     3660.055     2585.637     1529.215        1.140        0.389      122.521       31.875        0.068      340.761       15.005      863.296
04/21/2013  23:30:00       70.572       93.216        0.474       43.714       53.082       37.465     1910.903     2817.696     1403.602        0.990        0.307      116.917       34.406        0.087      340.734       14.959      863.301
04/21/2013  23:31:00       58.283      125.897      -22.176       44.133       54.837       36.080     1947.751     3007.089     1301.789        1.300        0.313      138.733       31.595        0.052      340.735       14.961      863.301
04/21/2013  23:32:00      101.144      142.060       -1.447       74.863       79.063       58.610     5604.408     6250.977     3435.119        2.285        0.765      174.388       52.459        0.090      340.752       14.988      863.297
04/21/2013  23:33:00       68.259       89.283       10.068       71.123       86.249       51.559     5058.467     7438.858     2658.378        1.394        0.758      112.387       45.704        0.165      340.761       15.004      863.297
04/21/2013  23:34:00       57.002      140.829       -3.812       70.110       82.307       56.978     4915.430     6774.413     3246.455        1.901        0.747      151.928       57.117        0.141      340.809       15.085      863.310
04/21/2013  23:35:00       50.437      137.222        3.570       69.784       86.323       62.902     4869.798     7451.636     3956.677        1.883        0.814      146.198       57.719        0.156      340.819       15.101      863.318
04/21/2013  23:36:00       53.914      125.127       -7.970       48.130       67.463       45.983     2316.543     4551.290     2114.428        1.380        0.449      136.248       42.178        0.096      340.795       15.061      863.344
04/21/2013  23:37:00       42.532      117.855        0.893       53.694       58.023       48.481     2882.997     3366.670     2350.445        1.215        0.430      125.294       36.501        0.085      340.820       15.103      863.344
04/21/2013  23:38:00       26.712      131.749      -15.364       45.374       71.726       39.138     2058.833     5144.551     1531.782        1.352        0.437      134.430       39.908        0.088      340.789       15.051      863.361
04/21/2013  23:39:00       14.901      126.815       -8.293       51.674       77.379       43.621     2670.225     5987.452     1902.761        1.346        0.528      127.687       47.524        0.139      340.793       15.058      863.379
04/21/2013  23:40:00       53.646       99.759        6.782       61.100       65.221       46.338     3733.150     4253.738     2147.170        1.150        0.507      113.268       39.660        0.123      340.758       14.998      863.392
04/21/2013  23:41:00       55.217      183.836       -5.079       67.284      114.327       61.345     4527.146    13070.649     3763.171        2.911        1.068      191.950       71.586        0.139      340.804       15.075      863.411
04/21/2013  23:42:00       36.669      184.503      -14.180       57.896       87.885       45.940     3352.000     7723.837     2110.480        2.438        0.659      188.111       50.899        0.073      340.803       15.074      863.415
04/21/2013  23:43:00       32.927      199.279      -20.895       59.884      118.709       51.583     3586.073    14091.744     2660.841        3.078        1.017      201.981       60.211        0.089      340.825       15.112      863.435
04/21/2013  23:44:00      -23.911      167.539      -11.698       57.788       75.374       39.581     3339.498     5681.166     1566.686        1.968        0.529      169.237       42.879        0.064      340.830       15.119      863.461
04/21/2013  23:45:00       -9.233      240.421      -27.099       62.606       76.921       39.763     3919.468     5916.815     1581.075        3.502        0.571      240.599       39.875        0.027      340.834       15.126      863.472
04/21/2013  23:46:00      -29.034      257.454      -31.720       69.770       63.887       35.589     4867.916     4081.550     1266.601        3.917        0.511      259.086       31.900        0.015      340.864       15.174      863.480
04/21/2013  23:47:00      -91.920      270.877      -33.382       55.416      106.675       35.276     3070.982    11379.662     1244.427        4.931        0.785      286.048       37.844        0.018      340.924       15.276      863.516
04/21/2013  23:48:00      -87.725      204.572      -28.230       90.824      119.190       48.723     8249.087    14206.196     2373.963        3.758        1.241      222.588       47.450        0.045      340.936       15.298      863.518
04/21/2013  23:49:00      -66.209      163.380      -26.095       67.433       66.663       42.907     4547.243     4444.020     1841.035        2.129        0.542      176.286       35.595        0.041      340.967       15.352      863.526
04/21/2013  23:50:00     -115.791      195.153      -22.212       88.514       96.031       58.429     7834.736     9221.905     3413.987        3.622        1.024      226.919       46.579        0.042      341.057       15.502      863.530
04/21/2013  23:51:00     -128.856      228.916      -41.566       90.051      147.276       65.208     8109.135    21690.261     4252.055        5.239        1.703      262.691       50.071        0.036      341.084       15.548      863.524
04/21/2013  23:52:00     -161.644      299.137      -65.583      127.268      105.081       54.204    16197.122    11041.960     2938.097        7.504        1.509      340.017       57.165        0.028      341.124       15.616      863.522
04/21/2013  23:53:00      -71.174      196.485       -8.373       79.469      143.707       52.993     6315.271    20651.561     2808.219        3.675        1.489      208.978       61.426        0.086      341.026       15.451      863.548
04/21/2013  23:54:00      -57.960      340.888      -46.988       49.503       91.661       40.555     2450.524     8401.796     1644.701        6.713        0.625      345.781       37.911        0.012      341.043       15.479      863.556
04/21/2013  23:55:00      -57.848      218.148      -25.662       54.059       87.009       40.277     2922.372     7570.645     1622.258        3.185        0.606      225.688       38.657        0.029      340.966       15.349      863.553
04/21/2013  23:56:00      -29.448      308.173      -40.431       64.869      104.479       44.764     4208.022    10915.863     2003.801        5.730        0.856      309.577       50.186        0.026      340.971       15.355      863.543
04/21/2013  23:57:00      -63.481      338.084      -37.100       70.732       94.572       48.629     5003.068     8943.940     2364.785        6.801        0.816      343.992       46.937        0.019      340.965       15.345      863.544
04/21/2013  23:58:00      -35.342      321.223      -35.128       83.760      142.472       52.735     7015.753    20298.296     2780.987        6.788        1.505      323.162       62.062        0.037      340.934       15.294      863.539
04/21/2013  23:59:00     -134.262      386.114      -36.861      122.344      145.477       65.564    14968.017    21163.528     4298.605       10.444        2.022      408.792       70.913        0.030      340.929       15.285      863.526
